<?xml version="1.0" encoding="UTF-8" standalone="no" ?>
<gpx xmlns="http://www.topografix.com/GPX/1/1" xmlns:xsi="http://www.w3.org/2001/XMLSchema-instance" xsi:schemaLocation="http://www.topografix.com/GPX/1/1 http://www.topografix.com/GPX/1/1/gpx.xsd" version="1.1" creator="VisuGPX - https://www.visugpx.com">
  <metadata>
    <name>83-Me-Lorgues</name>
    <desc><![CDATA[83-Me-Lorgues : les Crostes, Entraygues, grotte St Michel
2022-09-28]]></desc>
  </metadata>
  <trk>
    <name><![CDATA[2022-09-28-01 Lorgues Les Crostes]]></name>
    <extensions>
      <line xmlns="http://www.topografix.com/GPX/gpx_style/0/2">
        <width>3</width>
      </line>
    </extensions>
    <trkseg>
      <trkpt lat="43.44527" lon="6.38234">
        <ele>177.4</ele>
        <time>2022-09-28T11:51:22.000Z</time>
      </trkpt>
      <trkpt lat="43.44527" lon="6.38234">
        <ele>177.4</ele>
        <time>2022-09-28T11:51:23.000Z</time>
      </trkpt>
      <trkpt lat="43.44532" lon="6.38235">
        <ele>178.8</ele>
        <time>2022-09-28T11:51:47.000Z</time>
      </trkpt>
      <trkpt lat="43.44536" lon="6.38238">
        <ele>178.9</ele>
        <time>2022-09-28T11:52:24.000Z</time>
      </trkpt>
      <trkpt lat="43.44532" lon="6.38242">
        <ele>178.8</ele>
        <time>2022-09-28T11:53:12.000Z</time>
      </trkpt>
      <trkpt lat="43.44528" lon="6.38244">
        <ele>177.2</ele>
        <time>2022-09-28T11:54:46.000Z</time>
      </trkpt>
      <trkpt lat="43.44525" lon="6.38248">
        <ele>176.3</ele>
        <time>2022-09-28T11:54:51.000Z</time>
      </trkpt>
      <trkpt lat="43.44523" lon="6.38254">
        <ele>178.1</ele>
        <time>2022-09-28T11:55:02.000Z</time>
      </trkpt>
      <trkpt lat="43.44523" lon="6.38261">
        <ele>178.8</ele>
        <time>2022-09-28T11:55:19.000Z</time>
      </trkpt>
      <trkpt lat="43.4452" lon="6.38266">
        <ele>178.4</ele>
        <time>2022-09-28T11:55:26.000Z</time>
      </trkpt>
      <trkpt lat="43.44515" lon="6.38266">
        <ele>178.1</ele>
        <time>2022-09-28T11:55:31.000Z</time>
      </trkpt>
      <trkpt lat="43.4451" lon="6.38267">
        <ele>178.3</ele>
        <time>2022-09-28T11:55:36.000Z</time>
      </trkpt>
      <trkpt lat="43.44505" lon="6.38268">
        <ele>178.1</ele>
        <time>2022-09-28T11:55:42.000Z</time>
      </trkpt>
      <trkpt lat="43.445" lon="6.38268">
        <ele>178</ele>
        <time>2022-09-28T11:55:48.000Z</time>
      </trkpt>
      <trkpt lat="43.44495" lon="6.38269">
        <ele>177.8</ele>
        <time>2022-09-28T11:55:52.000Z</time>
      </trkpt>
      <trkpt lat="43.4449" lon="6.38269">
        <ele>177.9</ele>
        <time>2022-09-28T11:55:57.000Z</time>
      </trkpt>
      <trkpt lat="43.44485" lon="6.38273">
        <ele>177.2</ele>
        <time>2022-09-28T11:56:02.000Z</time>
      </trkpt>
      <trkpt lat="43.4448" lon="6.38274">
        <ele>177.6</ele>
        <time>2022-09-28T11:56:06.000Z</time>
      </trkpt>
      <trkpt lat="43.44476" lon="6.38277">
        <ele>177.3</ele>
        <time>2022-09-28T11:56:11.000Z</time>
      </trkpt>
      <trkpt lat="43.44471" lon="6.38278">
        <ele>177.5</ele>
        <time>2022-09-28T11:56:15.000Z</time>
      </trkpt>
      <trkpt lat="43.44467" lon="6.38282">
        <ele>177.4</ele>
        <time>2022-09-28T11:56:20.000Z</time>
      </trkpt>
      <trkpt lat="43.44462" lon="6.38285">
        <ele>178.2</ele>
        <time>2022-09-28T11:56:23.000Z</time>
      </trkpt>
      <trkpt lat="43.44457" lon="6.38286">
        <ele>177.7</ele>
        <time>2022-09-28T11:56:28.000Z</time>
      </trkpt>
      <trkpt lat="43.44453" lon="6.38288">
        <ele>177.7</ele>
        <time>2022-09-28T11:56:33.000Z</time>
      </trkpt>
      <trkpt lat="43.44449" lon="6.38292">
        <ele>178.7</ele>
        <time>2022-09-28T11:56:38.000Z</time>
      </trkpt>
      <trkpt lat="43.44445" lon="6.38296">
        <ele>178.9</ele>
        <time>2022-09-28T11:56:45.000Z</time>
      </trkpt>
      <trkpt lat="43.44441" lon="6.383">
        <ele>180</ele>
        <time>2022-09-28T11:56:49.000Z</time>
      </trkpt>
      <trkpt lat="43.44436" lon="6.38302">
        <ele>179.2</ele>
        <time>2022-09-28T11:56:55.000Z</time>
      </trkpt>
      <trkpt lat="43.44432" lon="6.38304">
        <ele>180.1</ele>
        <time>2022-09-28T11:56:59.000Z</time>
      </trkpt>
      <trkpt lat="43.44427" lon="6.38306">
        <ele>179.7</ele>
        <time>2022-09-28T11:57:04.000Z</time>
      </trkpt>
      <trkpt lat="43.44423" lon="6.38307">
        <ele>180.7</ele>
        <time>2022-09-28T11:57:09.000Z</time>
      </trkpt>
      <trkpt lat="43.44418" lon="6.3831">
        <ele>180.7</ele>
        <time>2022-09-28T11:57:13.000Z</time>
      </trkpt>
      <trkpt lat="43.44412" lon="6.38313">
        <ele>181.4</ele>
        <time>2022-09-28T11:57:18.000Z</time>
      </trkpt>
      <trkpt lat="43.44408" lon="6.38315">
        <ele>181</ele>
        <time>2022-09-28T11:57:23.000Z</time>
      </trkpt>
      <trkpt lat="43.44404" lon="6.38317">
        <ele>181.2</ele>
        <time>2022-09-28T11:57:26.000Z</time>
      </trkpt>
      <trkpt lat="43.44399" lon="6.38319">
        <ele>181.2</ele>
        <time>2022-09-28T11:57:31.000Z</time>
      </trkpt>
      <trkpt lat="43.44394" lon="6.3832">
        <ele>181.4</ele>
        <time>2022-09-28T11:57:36.000Z</time>
      </trkpt>
      <trkpt lat="43.44389" lon="6.38322">
        <ele>182.6</ele>
        <time>2022-09-28T11:57:39.000Z</time>
      </trkpt>
      <trkpt lat="43.44384" lon="6.38324">
        <ele>182.2</ele>
        <time>2022-09-28T11:57:45.000Z</time>
      </trkpt>
      <trkpt lat="43.4438" lon="6.38326">
        <ele>182.8</ele>
        <time>2022-09-28T11:57:48.000Z</time>
      </trkpt>
      <trkpt lat="43.44375" lon="6.38328">
        <ele>182.8</ele>
        <time>2022-09-28T11:57:53.000Z</time>
      </trkpt>
      <trkpt lat="43.4437" lon="6.38331">
        <ele>182.8</ele>
        <time>2022-09-28T11:57:57.000Z</time>
      </trkpt>
      <trkpt lat="43.44366" lon="6.38335">
        <ele>182.8</ele>
        <time>2022-09-28T11:58:00.000Z</time>
      </trkpt>
      <trkpt lat="43.44362" lon="6.38338">
        <ele>181.9</ele>
        <time>2022-09-28T11:58:05.000Z</time>
      </trkpt>
      <trkpt lat="43.44358" lon="6.38342">
        <ele>182</ele>
        <time>2022-09-28T11:58:09.000Z</time>
      </trkpt>
      <trkpt lat="43.44354" lon="6.38348">
        <ele>182.2</ele>
        <time>2022-09-28T11:58:13.000Z</time>
      </trkpt>
      <trkpt lat="43.44351" lon="6.38352">
        <ele>182.3</ele>
        <time>2022-09-28T11:58:16.000Z</time>
      </trkpt>
      <trkpt lat="43.44349" lon="6.38358">
        <ele>182.2</ele>
        <time>2022-09-28T11:58:20.000Z</time>
      </trkpt>
      <trkpt lat="43.44346" lon="6.38364">
        <ele>181.2</ele>
        <time>2022-09-28T11:58:25.000Z</time>
      </trkpt>
      <trkpt lat="43.44342" lon="6.38369">
        <ele>181.4</ele>
        <time>2022-09-28T11:58:29.000Z</time>
      </trkpt>
      <trkpt lat="43.44339" lon="6.38374">
        <ele>181.3</ele>
        <time>2022-09-28T11:58:32.000Z</time>
      </trkpt>
      <trkpt lat="43.44336" lon="6.38379">
        <ele>181.2</ele>
        <time>2022-09-28T11:58:35.000Z</time>
      </trkpt>
      <trkpt lat="43.44332" lon="6.38383">
        <ele>181.3</ele>
        <time>2022-09-28T11:58:38.000Z</time>
      </trkpt>
      <trkpt lat="43.44329" lon="6.38388">
        <ele>180.2</ele>
        <time>2022-09-28T11:58:44.000Z</time>
      </trkpt>
      <trkpt lat="43.44326" lon="6.38394">
        <ele>180.3</ele>
        <time>2022-09-28T11:58:48.000Z</time>
      </trkpt>
      <trkpt lat="43.44322" lon="6.384">
        <ele>180.1</ele>
        <time>2022-09-28T11:58:52.000Z</time>
      </trkpt>
      <trkpt lat="43.44319" lon="6.38404">
        <ele>180.2</ele>
        <time>2022-09-28T11:58:55.000Z</time>
      </trkpt>
      <trkpt lat="43.44316" lon="6.3841">
        <ele>179.7</ele>
        <time>2022-09-28T11:59:01.000Z</time>
      </trkpt>
      <trkpt lat="43.44313" lon="6.38415">
        <ele>179.5</ele>
        <time>2022-09-28T11:59:05.000Z</time>
      </trkpt>
      <trkpt lat="43.44309" lon="6.38421">
        <ele>179.8</ele>
        <time>2022-09-28T11:59:09.000Z</time>
      </trkpt>
      <trkpt lat="43.44305" lon="6.38426">
        <ele>179.4</ele>
        <time>2022-09-28T11:59:15.000Z</time>
      </trkpt>
      <trkpt lat="43.44301" lon="6.38431">
        <ele>179.3</ele>
        <time>2022-09-28T11:59:19.000Z</time>
      </trkpt>
      <trkpt lat="43.44296" lon="6.38434">
        <ele>177.9</ele>
        <time>2022-09-28T11:59:25.000Z</time>
      </trkpt>
      <trkpt lat="43.44293" lon="6.38437">
        <ele>177.5</ele>
        <time>2022-09-28T11:59:29.000Z</time>
      </trkpt>
      <trkpt lat="43.44288" lon="6.3844">
        <ele>177.7</ele>
        <time>2022-09-28T11:59:32.000Z</time>
      </trkpt>
      <trkpt lat="43.44283" lon="6.38442">
        <ele>177.4</ele>
        <time>2022-09-28T11:59:38.000Z</time>
      </trkpt>
      <trkpt lat="43.44278" lon="6.38444">
        <ele>177</ele>
        <time>2022-09-28T11:59:42.000Z</time>
      </trkpt>
      <trkpt lat="43.44273" lon="6.38446">
        <ele>177</ele>
        <time>2022-09-28T11:59:45.000Z</time>
      </trkpt>
      <trkpt lat="43.44268" lon="6.38448">
        <ele>176.4</ele>
        <time>2022-09-28T11:59:50.000Z</time>
      </trkpt>
      <trkpt lat="43.44264" lon="6.38451">
        <ele>175.9</ele>
        <time>2022-09-28T11:59:55.000Z</time>
      </trkpt>
      <trkpt lat="43.44259" lon="6.38452">
        <ele>175.2</ele>
        <time>2022-09-28T11:59:59.000Z</time>
      </trkpt>
      <trkpt lat="43.44255" lon="6.38454">
        <ele>175</ele>
        <time>2022-09-28T12:00:02.000Z</time>
      </trkpt>
      <trkpt lat="43.44249" lon="6.38454">
        <ele>174.6</ele>
        <time>2022-09-28T12:00:06.000Z</time>
      </trkpt>
      <trkpt lat="43.44245" lon="6.38455">
        <ele>174.5</ele>
        <time>2022-09-28T12:00:12.000Z</time>
      </trkpt>
      <trkpt lat="43.4424" lon="6.38458">
        <ele>174.6</ele>
        <time>2022-09-28T12:00:16.000Z</time>
      </trkpt>
      <trkpt lat="43.44234" lon="6.38459">
        <ele>174.8</ele>
        <time>2022-09-28T12:00:20.000Z</time>
      </trkpt>
      <trkpt lat="43.4423" lon="6.38463">
        <ele>174.5</ele>
        <time>2022-09-28T12:00:26.000Z</time>
      </trkpt>
      <trkpt lat="43.44225" lon="6.38465">
        <ele>174.1</ele>
        <time>2022-09-28T12:00:30.000Z</time>
      </trkpt>
      <trkpt lat="43.4422" lon="6.38466">
        <ele>174</ele>
        <time>2022-09-28T12:00:33.000Z</time>
      </trkpt>
      <trkpt lat="43.44216" lon="6.38466">
        <ele>174</ele>
        <time>2022-09-28T12:00:37.000Z</time>
      </trkpt>
      <trkpt lat="43.4421" lon="6.38467">
        <ele>173.2</ele>
        <time>2022-09-28T12:00:42.000Z</time>
      </trkpt>
      <trkpt lat="43.44205" lon="6.38467">
        <ele>173.4</ele>
        <time>2022-09-28T12:00:45.000Z</time>
      </trkpt>
      <trkpt lat="43.442" lon="6.38467">
        <ele>173.7</ele>
        <time>2022-09-28T12:00:48.000Z</time>
      </trkpt>
      <trkpt lat="43.44195" lon="6.38468">
        <ele>173.2</ele>
        <time>2022-09-28T12:00:54.000Z</time>
      </trkpt>
      <trkpt lat="43.44189" lon="6.38467">
        <ele>173.2</ele>
        <time>2022-09-28T12:00:59.000Z</time>
      </trkpt>
      <trkpt lat="43.44184" lon="6.38467">
        <ele>173.5</ele>
        <time>2022-09-28T12:01:03.000Z</time>
      </trkpt>
      <trkpt lat="43.44179" lon="6.38468">
        <ele>173.4</ele>
        <time>2022-09-28T12:01:08.000Z</time>
      </trkpt>
      <trkpt lat="43.44173" lon="6.38468">
        <ele>173.7</ele>
        <time>2022-09-28T12:01:12.000Z</time>
      </trkpt>
      <trkpt lat="43.44169" lon="6.38468">
        <ele>172.9</ele>
        <time>2022-09-28T12:01:18.000Z</time>
      </trkpt>
      <trkpt lat="43.44163" lon="6.38468">
        <ele>173.4</ele>
        <time>2022-09-28T12:01:22.000Z</time>
      </trkpt>
      <trkpt lat="43.44157" lon="6.38469">
        <ele>173.5</ele>
        <time>2022-09-28T12:01:28.000Z</time>
      </trkpt>
      <trkpt lat="43.44152" lon="6.38468">
        <ele>174</ele>
        <time>2022-09-28T12:01:31.000Z</time>
      </trkpt>
      <trkpt lat="43.44146" lon="6.38469">
        <ele>172.9</ele>
        <time>2022-09-28T12:01:37.000Z</time>
      </trkpt>
      <trkpt lat="43.44141" lon="6.38469">
        <ele>172.8</ele>
        <time>2022-09-28T12:01:41.000Z</time>
      </trkpt>
      <trkpt lat="43.44135" lon="6.38469">
        <ele>173.5</ele>
        <time>2022-09-28T12:01:46.000Z</time>
      </trkpt>
      <trkpt lat="43.44131" lon="6.38467">
        <ele>174</ele>
        <time>2022-09-28T12:01:51.000Z</time>
      </trkpt>
      <trkpt lat="43.44126" lon="6.38467">
        <ele>174.9</ele>
        <time>2022-09-28T12:01:54.000Z</time>
      </trkpt>
      <trkpt lat="43.44121" lon="6.38466">
        <ele>174.9</ele>
        <time>2022-09-28T12:02:00.000Z</time>
      </trkpt>
      <trkpt lat="43.44116" lon="6.38465">
        <ele>175.9</ele>
        <time>2022-09-28T12:02:03.000Z</time>
      </trkpt>
      <trkpt lat="43.44111" lon="6.38466">
        <ele>176.1</ele>
        <time>2022-09-28T12:02:08.000Z</time>
      </trkpt>
      <trkpt lat="43.44107" lon="6.38465">
        <ele>176.5</ele>
        <time>2022-09-28T12:02:11.000Z</time>
      </trkpt>
      <trkpt lat="43.44101" lon="6.38463">
        <ele>175.8</ele>
        <time>2022-09-28T12:02:17.000Z</time>
      </trkpt>
      <trkpt lat="43.44097" lon="6.38464">
        <ele>176.5</ele>
        <time>2022-09-28T12:02:20.000Z</time>
      </trkpt>
      <trkpt lat="43.44092" lon="6.38464">
        <ele>176.8</ele>
        <time>2022-09-28T12:02:25.000Z</time>
      </trkpt>
      <trkpt lat="43.44086" lon="6.38464">
        <ele>177.6</ele>
        <time>2022-09-28T12:02:29.000Z</time>
      </trkpt>
      <trkpt lat="43.44081" lon="6.38465">
        <ele>178.4</ele>
        <time>2022-09-28T12:02:35.000Z</time>
      </trkpt>
      <trkpt lat="43.44076" lon="6.38465">
        <ele>178.8</ele>
        <time>2022-09-28T12:02:39.000Z</time>
      </trkpt>
      <trkpt lat="43.44071" lon="6.38463">
        <ele>178.9</ele>
        <time>2022-09-28T12:02:44.000Z</time>
      </trkpt>
      <trkpt lat="43.44066" lon="6.38462">
        <ele>179.3</ele>
        <time>2022-09-28T12:02:48.000Z</time>
      </trkpt>
      <trkpt lat="43.44062" lon="6.38463">
        <ele>178.8</ele>
        <time>2022-09-28T12:02:53.000Z</time>
      </trkpt>
      <trkpt lat="43.44056" lon="6.38465">
        <ele>179.4</ele>
        <time>2022-09-28T12:02:57.000Z</time>
      </trkpt>
      <trkpt lat="43.44051" lon="6.38466">
        <ele>179.4</ele>
        <time>2022-09-28T12:03:01.000Z</time>
      </trkpt>
      <trkpt lat="43.44046" lon="6.38467">
        <ele>178.3</ele>
        <time>2022-09-28T12:03:06.000Z</time>
      </trkpt>
      <trkpt lat="43.44041" lon="6.38468">
        <ele>178.6</ele>
        <time>2022-09-28T12:03:10.000Z</time>
      </trkpt>
      <trkpt lat="43.44036" lon="6.38469">
        <ele>178.9</ele>
        <time>2022-09-28T12:03:13.000Z</time>
      </trkpt>
      <trkpt lat="43.44031" lon="6.3847">
        <ele>178.9</ele>
        <time>2022-09-28T12:03:16.000Z</time>
      </trkpt>
      <trkpt lat="43.44026" lon="6.38473">
        <ele>177.8</ele>
        <time>2022-09-28T12:03:21.000Z</time>
      </trkpt>
      <trkpt lat="43.44021" lon="6.38475">
        <ele>177.8</ele>
        <time>2022-09-28T12:03:25.000Z</time>
      </trkpt>
      <trkpt lat="43.44016" lon="6.38476">
        <ele>177.8</ele>
        <time>2022-09-28T12:03:29.000Z</time>
      </trkpt>
      <trkpt lat="43.44011" lon="6.38477">
        <ele>177</ele>
        <time>2022-09-28T12:03:34.000Z</time>
      </trkpt>
      <trkpt lat="43.44006" lon="6.38477">
        <ele>176.6</ele>
        <time>2022-09-28T12:03:37.000Z</time>
      </trkpt>
      <trkpt lat="43.44002" lon="6.38479">
        <ele>176.3</ele>
        <time>2022-09-28T12:03:40.000Z</time>
      </trkpt>
      <trkpt lat="43.43996" lon="6.38479">
        <ele>175.7</ele>
        <time>2022-09-28T12:03:46.000Z</time>
      </trkpt>
      <trkpt lat="43.43991" lon="6.38482">
        <ele>174.6</ele>
        <time>2022-09-28T12:03:51.000Z</time>
      </trkpt>
      <trkpt lat="43.43987" lon="6.38482">
        <ele>174.3</ele>
        <time>2022-09-28T12:03:54.000Z</time>
      </trkpt>
      <trkpt lat="43.43982" lon="6.38483">
        <ele>174.4</ele>
        <time>2022-09-28T12:03:57.000Z</time>
      </trkpt>
      <trkpt lat="43.43977" lon="6.38485">
        <ele>173.5</ele>
        <time>2022-09-28T12:04:03.000Z</time>
      </trkpt>
      <trkpt lat="43.43972" lon="6.38485">
        <ele>173.4</ele>
        <time>2022-09-28T12:04:07.000Z</time>
      </trkpt>
      <trkpt lat="43.43967" lon="6.38486">
        <ele>173.1</ele>
        <time>2022-09-28T12:04:10.000Z</time>
      </trkpt>
      <trkpt lat="43.43963" lon="6.38486">
        <ele>173.2</ele>
        <time>2022-09-28T12:04:14.000Z</time>
      </trkpt>
      <trkpt lat="43.43958" lon="6.38487">
        <ele>172.5</ele>
        <time>2022-09-28T12:04:20.000Z</time>
      </trkpt>
      <trkpt lat="43.43953" lon="6.38488">
        <ele>171.7</ele>
        <time>2022-09-28T12:04:25.000Z</time>
      </trkpt>
      <trkpt lat="43.43948" lon="6.38488">
        <ele>169.8</ele>
        <time>2022-09-28T12:04:33.000Z</time>
      </trkpt>
      <trkpt lat="43.43942" lon="6.38488">
        <ele>168.6</ele>
        <time>2022-09-28T12:04:40.000Z</time>
      </trkpt>
      <trkpt lat="43.43937" lon="6.38489">
        <ele>167.6</ele>
        <time>2022-09-28T12:04:48.000Z</time>
      </trkpt>
      <trkpt lat="43.43933" lon="6.3849">
        <ele>167</ele>
        <time>2022-09-28T12:04:53.000Z</time>
      </trkpt>
      <trkpt lat="43.43928" lon="6.38489">
        <ele>166</ele>
        <time>2022-09-28T12:04:59.000Z</time>
      </trkpt>
      <trkpt lat="43.43923" lon="6.38491">
        <ele>164.8</ele>
        <time>2022-09-28T12:05:05.000Z</time>
      </trkpt>
      <trkpt lat="43.43918" lon="6.38492">
        <ele>164.1</ele>
        <time>2022-09-28T12:05:10.000Z</time>
      </trkpt>
      <trkpt lat="43.43913" lon="6.38494">
        <ele>162.6</ele>
        <time>2022-09-28T12:05:19.000Z</time>
      </trkpt>
      <trkpt lat="43.43908" lon="6.38494">
        <ele>161.8</ele>
        <time>2022-09-28T12:05:25.000Z</time>
      </trkpt>
      <trkpt lat="43.43904" lon="6.38496">
        <ele>160.9</ele>
        <time>2022-09-28T12:05:30.000Z</time>
      </trkpt>
      <trkpt lat="43.43899" lon="6.38497">
        <ele>159.2</ele>
        <time>2022-09-28T12:05:34.000Z</time>
      </trkpt>
      <trkpt lat="43.43894" lon="6.38496">
        <ele>158.8</ele>
        <time>2022-09-28T12:05:37.000Z</time>
      </trkpt>
      <trkpt lat="43.43889" lon="6.38496">
        <ele>159</ele>
        <time>2022-09-28T12:05:43.000Z</time>
      </trkpt>
      <trkpt lat="43.43884" lon="6.38498">
        <ele>158.6</ele>
        <time>2022-09-28T12:05:48.000Z</time>
      </trkpt>
      <trkpt lat="43.43878" lon="6.38497">
        <ele>158.9</ele>
        <time>2022-09-28T12:05:52.000Z</time>
      </trkpt>
      <trkpt lat="43.43873" lon="6.38498">
        <ele>158.9</ele>
        <time>2022-09-28T12:05:58.000Z</time>
      </trkpt>
      <trkpt lat="43.43869" lon="6.38498">
        <ele>158.6</ele>
        <time>2022-09-28T12:06:03.000Z</time>
      </trkpt>
      <trkpt lat="43.43864" lon="6.38501">
        <ele>157.9</ele>
        <time>2022-09-28T12:06:08.000Z</time>
      </trkpt>
      <trkpt lat="43.43862" lon="6.38507">
        <ele>158.6</ele>
        <time>2022-09-28T12:06:17.000Z</time>
      </trkpt>
      <trkpt lat="43.43856" lon="6.38506">
        <ele>157.3</ele>
        <time>2022-09-28T12:06:22.000Z</time>
      </trkpt>
      <trkpt lat="43.43851" lon="6.38505">
        <ele>158.6</ele>
        <time>2022-09-28T12:06:28.000Z</time>
      </trkpt>
      <trkpt lat="43.43846" lon="6.38506">
        <ele>159.2</ele>
        <time>2022-09-28T12:06:33.000Z</time>
      </trkpt>
      <trkpt lat="43.43841" lon="6.38506">
        <ele>159.4</ele>
        <time>2022-09-28T12:06:36.000Z</time>
      </trkpt>
      <trkpt lat="43.43836" lon="6.38506">
        <ele>159.9</ele>
        <time>2022-09-28T12:06:41.000Z</time>
      </trkpt>
      <trkpt lat="43.43831" lon="6.38506">
        <ele>159.7</ele>
        <time>2022-09-28T12:06:44.000Z</time>
      </trkpt>
      <trkpt lat="43.43826" lon="6.38506">
        <ele>160.3</ele>
        <time>2022-09-28T12:06:49.000Z</time>
      </trkpt>
      <trkpt lat="43.4382" lon="6.38506">
        <ele>161.4</ele>
        <time>2022-09-28T12:06:55.000Z</time>
      </trkpt>
      <trkpt lat="43.43815" lon="6.38505">
        <ele>160.9</ele>
        <time>2022-09-28T12:07:00.000Z</time>
      </trkpt>
      <trkpt lat="43.4381" lon="6.38504">
        <ele>161</ele>
        <time>2022-09-28T12:07:03.000Z</time>
      </trkpt>
      <trkpt lat="43.43805" lon="6.38505">
        <ele>162.2</ele>
        <time>2022-09-28T12:07:08.000Z</time>
      </trkpt>
      <trkpt lat="43.438" lon="6.38505">
        <ele>161.7</ele>
        <time>2022-09-28T12:07:13.000Z</time>
      </trkpt>
      <trkpt lat="43.43795" lon="6.38504">
        <ele>162.6</ele>
        <time>2022-09-28T12:07:16.000Z</time>
      </trkpt>
      <trkpt lat="43.43791" lon="6.38505">
        <ele>162.7</ele>
        <time>2022-09-28T12:07:23.000Z</time>
      </trkpt>
      <trkpt lat="43.43786" lon="6.38507">
        <ele>163.4</ele>
        <time>2022-09-28T12:07:29.000Z</time>
      </trkpt>
      <trkpt lat="43.43781" lon="6.38509">
        <ele>165</ele>
        <time>2022-09-28T12:07:34.000Z</time>
      </trkpt>
      <trkpt lat="43.43776" lon="6.38508">
        <ele>165.3</ele>
        <time>2022-09-28T12:07:39.000Z</time>
      </trkpt>
      <trkpt lat="43.43771" lon="6.3851">
        <ele>166</ele>
        <time>2022-09-28T12:07:42.000Z</time>
      </trkpt>
      <trkpt lat="43.43767" lon="6.3851">
        <ele>165.8</ele>
        <time>2022-09-28T12:07:47.000Z</time>
      </trkpt>
      <trkpt lat="43.43761" lon="6.38511">
        <ele>166.7</ele>
        <time>2022-09-28T12:07:53.000Z</time>
      </trkpt>
      <trkpt lat="43.43755" lon="6.3851">
        <ele>167.5</ele>
        <time>2022-09-28T12:07:59.000Z</time>
      </trkpt>
      <trkpt lat="43.43751" lon="6.38512">
        <ele>169</ele>
        <time>2022-09-28T12:08:04.000Z</time>
      </trkpt>
      <trkpt lat="43.43745" lon="6.38512">
        <ele>170.4</ele>
        <time>2022-09-28T12:08:10.000Z</time>
      </trkpt>
      <trkpt lat="43.4374" lon="6.3851">
        <ele>170.2</ele>
        <time>2022-09-28T12:08:15.000Z</time>
      </trkpt>
      <trkpt lat="43.43736" lon="6.38512">
        <ele>171.6</ele>
        <time>2022-09-28T12:08:22.000Z</time>
      </trkpt>
      <trkpt lat="43.4373" lon="6.38513">
        <ele>172.2</ele>
        <time>2022-09-28T12:08:28.000Z</time>
      </trkpt>
      <trkpt lat="43.43725" lon="6.38512">
        <ele>172.6</ele>
        <time>2022-09-28T12:08:32.000Z</time>
      </trkpt>
      <trkpt lat="43.4372" lon="6.38515">
        <ele>173.3</ele>
        <time>2022-09-28T12:08:36.000Z</time>
      </trkpt>
      <trkpt lat="43.43716" lon="6.38516">
        <ele>173.1</ele>
        <time>2022-09-28T12:08:41.000Z</time>
      </trkpt>
      <trkpt lat="43.4371" lon="6.38515">
        <ele>174</ele>
        <time>2022-09-28T12:08:46.000Z</time>
      </trkpt>
      <trkpt lat="43.43705" lon="6.38516">
        <ele>174.3</ele>
        <time>2022-09-28T12:08:50.000Z</time>
      </trkpt>
      <trkpt lat="43.437" lon="6.38516">
        <ele>175.2</ele>
        <time>2022-09-28T12:08:56.000Z</time>
      </trkpt>
      <trkpt lat="43.43694" lon="6.38514">
        <ele>174.8</ele>
        <time>2022-09-28T12:08:59.000Z</time>
      </trkpt>
      <trkpt lat="43.43688" lon="6.38514">
        <ele>175.5</ele>
        <time>2022-09-28T12:09:05.000Z</time>
      </trkpt>
      <trkpt lat="43.43684" lon="6.38512">
        <ele>175.8</ele>
        <time>2022-09-28T12:09:10.000Z</time>
      </trkpt>
      <trkpt lat="43.43679" lon="6.38511">
        <ele>177.1</ele>
        <time>2022-09-28T12:09:13.000Z</time>
      </trkpt>
      <trkpt lat="43.43674" lon="6.3851">
        <ele>176.9</ele>
        <time>2022-09-28T12:09:17.000Z</time>
      </trkpt>
      <trkpt lat="43.43669" lon="6.38509">
        <ele>177.1</ele>
        <time>2022-09-28T12:09:22.000Z</time>
      </trkpt>
      <trkpt lat="43.43664" lon="6.38511">
        <ele>177.9</ele>
        <time>2022-09-28T12:09:28.000Z</time>
      </trkpt>
      <trkpt lat="43.43659" lon="6.38511">
        <ele>177.5</ele>
        <time>2022-09-28T12:09:34.000Z</time>
      </trkpt>
      <trkpt lat="43.43653" lon="6.38511">
        <ele>180.7</ele>
        <time>2022-09-28T12:09:40.000Z</time>
      </trkpt>
      <trkpt lat="43.43648" lon="6.38511">
        <ele>182.8</ele>
        <time>2022-09-28T12:09:45.000Z</time>
      </trkpt>
      <trkpt lat="43.43644" lon="6.38511">
        <ele>183.3</ele>
        <time>2022-09-28T12:09:50.000Z</time>
      </trkpt>
      <trkpt lat="43.43639" lon="6.38513">
        <ele>183.4</ele>
        <time>2022-09-28T12:09:56.000Z</time>
      </trkpt>
      <trkpt lat="43.43635" lon="6.38513">
        <ele>183.1</ele>
        <time>2022-09-28T12:10:01.000Z</time>
      </trkpt>
      <trkpt lat="43.43629" lon="6.38513">
        <ele>183.1</ele>
        <time>2022-09-28T12:10:08.000Z</time>
      </trkpt>
      <trkpt lat="43.43623" lon="6.3851">
        <ele>184.1</ele>
        <time>2022-09-28T12:10:13.000Z</time>
      </trkpt>
      <trkpt lat="43.43618" lon="6.38509">
        <ele>184.4</ele>
        <time>2022-09-28T12:10:18.000Z</time>
      </trkpt>
      <trkpt lat="43.43613" lon="6.38507">
        <ele>184.7</ele>
        <time>2022-09-28T12:10:24.000Z</time>
      </trkpt>
      <trkpt lat="43.43608" lon="6.38506">
        <ele>185.1</ele>
        <time>2022-09-28T12:10:28.000Z</time>
      </trkpt>
      <trkpt lat="43.43603" lon="6.38505">
        <ele>185.3</ele>
        <time>2022-09-28T12:10:33.000Z</time>
      </trkpt>
      <trkpt lat="43.43597" lon="6.38505">
        <ele>186.3</ele>
        <time>2022-09-28T12:10:39.000Z</time>
      </trkpt>
      <trkpt lat="43.43592" lon="6.38505">
        <ele>185.8</ele>
        <time>2022-09-28T12:10:44.000Z</time>
      </trkpt>
      <trkpt lat="43.43587" lon="6.38504">
        <ele>186.8</ele>
        <time>2022-09-28T12:10:49.000Z</time>
      </trkpt>
      <trkpt lat="43.43582" lon="6.38504">
        <ele>187.2</ele>
        <time>2022-09-28T12:10:54.000Z</time>
      </trkpt>
      <trkpt lat="43.43577" lon="6.38504">
        <ele>187.8</ele>
        <time>2022-09-28T12:10:58.000Z</time>
      </trkpt>
      <trkpt lat="43.43572" lon="6.38503">
        <ele>188</ele>
        <time>2022-09-28T12:11:03.000Z</time>
      </trkpt>
      <trkpt lat="43.43566" lon="6.38504">
        <ele>188.6</ele>
        <time>2022-09-28T12:11:07.000Z</time>
      </trkpt>
      <trkpt lat="43.4356" lon="6.38503">
        <ele>188.7</ele>
        <time>2022-09-28T12:11:12.000Z</time>
      </trkpt>
      <trkpt lat="43.43555" lon="6.38502">
        <ele>189</ele>
        <time>2022-09-28T12:11:17.000Z</time>
      </trkpt>
      <trkpt lat="43.4355" lon="6.38502">
        <ele>189.6</ele>
        <time>2022-09-28T12:11:21.000Z</time>
      </trkpt>
      <trkpt lat="43.43545" lon="6.38504">
        <ele>189.4</ele>
        <time>2022-09-28T12:11:26.000Z</time>
      </trkpt>
      <trkpt lat="43.43541" lon="6.38505">
        <ele>190.1</ele>
        <time>2022-09-28T12:11:31.000Z</time>
      </trkpt>
      <trkpt lat="43.43536" lon="6.38505">
        <ele>190.9</ele>
        <time>2022-09-28T12:11:36.000Z</time>
      </trkpt>
      <trkpt lat="43.43531" lon="6.38504">
        <ele>190.9</ele>
        <time>2022-09-28T12:11:40.000Z</time>
      </trkpt>
      <trkpt lat="43.43526" lon="6.38504">
        <ele>191.3</ele>
        <time>2022-09-28T12:11:46.000Z</time>
      </trkpt>
      <trkpt lat="43.43521" lon="6.38503">
        <ele>192.3</ele>
        <time>2022-09-28T12:11:50.000Z</time>
      </trkpt>
      <trkpt lat="43.43515" lon="6.38503">
        <ele>193.1</ele>
        <time>2022-09-28T12:11:55.000Z</time>
      </trkpt>
      <trkpt lat="43.4351" lon="6.38502">
        <ele>193.6</ele>
        <time>2022-09-28T12:12:00.000Z</time>
      </trkpt>
      <trkpt lat="43.43506" lon="6.38501">
        <ele>193.8</ele>
        <time>2022-09-28T12:12:04.000Z</time>
      </trkpt>
      <trkpt lat="43.435" lon="6.38501">
        <ele>193.8</ele>
        <time>2022-09-28T12:12:09.000Z</time>
      </trkpt>
      <trkpt lat="43.43494" lon="6.38501">
        <ele>194.4</ele>
        <time>2022-09-28T12:12:24.000Z</time>
      </trkpt>
      <trkpt lat="43.4349" lon="6.38502">
        <ele>193.6</ele>
        <time>2022-09-28T12:12:30.000Z</time>
      </trkpt>
      <trkpt lat="43.43484" lon="6.38501">
        <ele>193.7</ele>
        <time>2022-09-28T12:12:34.000Z</time>
      </trkpt>
      <trkpt lat="43.43478" lon="6.38502">
        <ele>193.9</ele>
        <time>2022-09-28T12:12:38.000Z</time>
      </trkpt>
      <trkpt lat="43.43473" lon="6.38502">
        <ele>193</ele>
        <time>2022-09-28T12:12:44.000Z</time>
      </trkpt>
      <trkpt lat="43.43468" lon="6.38502">
        <ele>192.1</ele>
        <time>2022-09-28T12:12:51.000Z</time>
      </trkpt>
      <trkpt lat="43.43464" lon="6.38501">
        <ele>191.8</ele>
        <time>2022-09-28T12:12:55.000Z</time>
      </trkpt>
      <trkpt lat="43.43459" lon="6.38501">
        <ele>191.3</ele>
        <time>2022-09-28T12:13:00.000Z</time>
      </trkpt>
      <trkpt lat="43.43453" lon="6.38499">
        <ele>191.3</ele>
        <time>2022-09-28T12:13:12.000Z</time>
      </trkpt>
      <trkpt lat="43.43448" lon="6.385">
        <ele>191.3</ele>
        <time>2022-09-28T12:13:15.000Z</time>
      </trkpt>
      <trkpt lat="43.43443" lon="6.38499">
        <ele>191.3</ele>
        <time>2022-09-28T12:13:17.000Z</time>
      </trkpt>
      <trkpt lat="43.43438" lon="6.38501">
        <ele>190.5</ele>
        <time>2022-09-28T12:13:20.000Z</time>
      </trkpt>
      <trkpt lat="43.43434" lon="6.38504">
        <ele>190.1</ele>
        <time>2022-09-28T12:13:24.000Z</time>
      </trkpt>
      <trkpt lat="43.43427" lon="6.38504">
        <ele>190</ele>
        <time>2022-09-28T12:13:27.000Z</time>
      </trkpt>
      <trkpt lat="43.43422" lon="6.38507">
        <ele>190</ele>
        <time>2022-09-28T12:13:30.000Z</time>
      </trkpt>
      <trkpt lat="43.43418" lon="6.38511">
        <ele>189.7</ele>
        <time>2022-09-28T12:13:34.000Z</time>
      </trkpt>
      <trkpt lat="43.43414" lon="6.38515">
        <ele>189.2</ele>
        <time>2022-09-28T12:13:38.000Z</time>
      </trkpt>
      <trkpt lat="43.43411" lon="6.38522">
        <ele>188.3</ele>
        <time>2022-09-28T12:13:42.000Z</time>
      </trkpt>
      <trkpt lat="43.43408" lon="6.38527">
        <ele>187.9</ele>
        <time>2022-09-28T12:13:45.000Z</time>
      </trkpt>
      <trkpt lat="43.43404" lon="6.38531">
        <ele>187.6</ele>
        <time>2022-09-28T12:13:49.000Z</time>
      </trkpt>
      <trkpt lat="43.434" lon="6.38537">
        <ele>187.8</ele>
        <time>2022-09-28T12:13:53.000Z</time>
      </trkpt>
      <trkpt lat="43.43397" lon="6.38541">
        <ele>188</ele>
        <time>2022-09-28T12:13:57.000Z</time>
      </trkpt>
      <trkpt lat="43.43393" lon="6.38546">
        <ele>186.8</ele>
        <time>2022-09-28T12:14:04.000Z</time>
      </trkpt>
      <trkpt lat="43.43389" lon="6.3855">
        <ele>186.2</ele>
        <time>2022-09-28T12:14:08.000Z</time>
      </trkpt>
      <trkpt lat="43.43385" lon="6.38555">
        <ele>185.9</ele>
        <time>2022-09-28T12:14:12.000Z</time>
      </trkpt>
      <trkpt lat="43.43381" lon="6.3856">
        <ele>185.3</ele>
        <time>2022-09-28T12:14:16.000Z</time>
      </trkpt>
      <trkpt lat="43.43378" lon="6.38566">
        <ele>185.1</ele>
        <time>2022-09-28T12:14:19.000Z</time>
      </trkpt>
      <trkpt lat="43.43373" lon="6.38571">
        <ele>185.1</ele>
        <time>2022-09-28T12:14:22.000Z</time>
      </trkpt>
      <trkpt lat="43.43369" lon="6.38576">
        <ele>185.1</ele>
        <time>2022-09-28T12:14:25.000Z</time>
      </trkpt>
      <trkpt lat="43.43365" lon="6.38581">
        <ele>184.8</ele>
        <time>2022-09-28T12:14:28.000Z</time>
      </trkpt>
      <trkpt lat="43.4336" lon="6.38585">
        <ele>184.6</ele>
        <time>2022-09-28T12:14:32.000Z</time>
      </trkpt>
      <trkpt lat="43.43356" lon="6.38588">
        <ele>184.1</ele>
        <time>2022-09-28T12:14:36.000Z</time>
      </trkpt>
      <trkpt lat="43.43353" lon="6.38593">
        <ele>183.4</ele>
        <time>2022-09-28T12:14:40.000Z</time>
      </trkpt>
      <trkpt lat="43.43349" lon="6.38598">
        <ele>182.4</ele>
        <time>2022-09-28T12:14:46.000Z</time>
      </trkpt>
      <trkpt lat="43.43344" lon="6.38601">
        <ele>181.9</ele>
        <time>2022-09-28T12:14:51.000Z</time>
      </trkpt>
      <trkpt lat="43.4334" lon="6.38605">
        <ele>180.8</ele>
        <time>2022-09-28T12:14:58.000Z</time>
      </trkpt>
      <trkpt lat="43.43336" lon="6.3861">
        <ele>179.6</ele>
        <time>2022-09-28T12:15:02.000Z</time>
      </trkpt>
      <trkpt lat="43.43331" lon="6.38613">
        <ele>179.7</ele>
        <time>2022-09-28T12:15:07.000Z</time>
      </trkpt>
      <trkpt lat="43.43326" lon="6.38613">
        <ele>179.9</ele>
        <time>2022-09-28T12:15:10.000Z</time>
      </trkpt>
      <trkpt lat="43.43321" lon="6.38611">
        <ele>180.3</ele>
        <time>2022-09-28T12:15:13.000Z</time>
      </trkpt>
      <trkpt lat="43.43317" lon="6.38608">
        <ele>179.5</ele>
        <time>2022-09-28T12:15:19.000Z</time>
      </trkpt>
      <trkpt lat="43.43312" lon="6.38603">
        <ele>180.2</ele>
        <time>2022-09-28T12:15:23.000Z</time>
      </trkpt>
      <trkpt lat="43.43308" lon="6.38599">
        <ele>180.1</ele>
        <time>2022-09-28T12:15:29.000Z</time>
      </trkpt>
      <trkpt lat="43.43304" lon="6.38595">
        <ele>180.5</ele>
        <time>2022-09-28T12:15:33.000Z</time>
      </trkpt>
      <trkpt lat="43.43301" lon="6.38589">
        <ele>180.5</ele>
        <time>2022-09-28T12:15:36.000Z</time>
      </trkpt>
      <trkpt lat="43.43297" lon="6.38584">
        <ele>180.8</ele>
        <time>2022-09-28T12:15:40.000Z</time>
      </trkpt>
      <trkpt lat="43.43293" lon="6.38579">
        <ele>178.9</ele>
        <time>2022-09-28T12:15:47.000Z</time>
      </trkpt>
      <trkpt lat="43.4329" lon="6.38574">
        <ele>178.1</ele>
        <time>2022-09-28T12:15:52.000Z</time>
      </trkpt>
      <trkpt lat="43.43287" lon="6.3857">
        <ele>177.6</ele>
        <time>2022-09-28T12:15:56.000Z</time>
      </trkpt>
      <trkpt lat="43.43283" lon="6.38565">
        <ele>176.7</ele>
        <time>2022-09-28T12:16:01.000Z</time>
      </trkpt>
      <trkpt lat="43.4328" lon="6.3856">
        <ele>175.9</ele>
        <time>2022-09-28T12:16:09.000Z</time>
      </trkpt>
      <trkpt lat="43.43278" lon="6.38553">
        <ele>175.6</ele>
        <time>2022-09-28T12:16:56.000Z</time>
      </trkpt>
      <trkpt lat="43.43275" lon="6.38546">
        <ele>174.9</ele>
        <time>2022-09-28T12:17:00.000Z</time>
      </trkpt>
      <trkpt lat="43.43275" lon="6.3854">
        <ele>174.2</ele>
        <time>2022-09-28T12:17:06.000Z</time>
      </trkpt>
      <trkpt lat="43.43274" lon="6.38533">
        <ele>174</ele>
        <time>2022-09-28T12:17:11.000Z</time>
      </trkpt>
      <trkpt lat="43.43273" lon="6.38526">
        <ele>173.8</ele>
        <time>2022-09-28T12:17:16.000Z</time>
      </trkpt>
      <trkpt lat="43.43271" lon="6.38519">
        <ele>172.8</ele>
        <time>2022-09-28T12:17:23.000Z</time>
      </trkpt>
      <trkpt lat="43.43269" lon="6.38512">
        <ele>172</ele>
        <time>2022-09-28T12:17:30.000Z</time>
      </trkpt>
      <trkpt lat="43.43269" lon="6.38504">
        <ele>171.2</ele>
        <time>2022-09-28T12:17:35.000Z</time>
      </trkpt>
      <trkpt lat="43.43269" lon="6.38497">
        <ele>170.4</ele>
        <time>2022-09-28T12:17:41.000Z</time>
      </trkpt>
      <trkpt lat="43.43269" lon="6.3849">
        <ele>170.1</ele>
        <time>2022-09-28T12:17:45.000Z</time>
      </trkpt>
      <trkpt lat="43.4327" lon="6.38484">
        <ele>168.8</ele>
        <time>2022-09-28T12:17:52.000Z</time>
      </trkpt>
      <trkpt lat="43.43271" lon="6.38477">
        <ele>168</ele>
        <time>2022-09-28T12:17:58.000Z</time>
      </trkpt>
      <trkpt lat="43.43272" lon="6.3847">
        <ele>167</ele>
        <time>2022-09-28T12:18:05.000Z</time>
      </trkpt>
      <trkpt lat="43.43273" lon="6.38463">
        <ele>166.4</ele>
        <time>2022-09-28T12:18:11.000Z</time>
      </trkpt>
      <trkpt lat="43.43275" lon="6.38456">
        <ele>165.6</ele>
        <time>2022-09-28T12:18:17.000Z</time>
      </trkpt>
      <trkpt lat="43.43276" lon="6.38449">
        <ele>164.4</ele>
        <time>2022-09-28T12:18:24.000Z</time>
      </trkpt>
      <trkpt lat="43.43278" lon="6.38443">
        <ele>163.5</ele>
        <time>2022-09-28T12:18:34.000Z</time>
      </trkpt>
      <trkpt lat="43.43279" lon="6.38437">
        <ele>162.4</ele>
        <time>2022-09-28T12:18:40.000Z</time>
      </trkpt>
      <trkpt lat="43.43283" lon="6.38431">
        <ele>161.9</ele>
        <time>2022-09-28T12:18:43.000Z</time>
      </trkpt>
      <trkpt lat="43.43285" lon="6.38425">
        <ele>160.8</ele>
        <time>2022-09-28T12:18:50.000Z</time>
      </trkpt>
      <trkpt lat="43.43287" lon="6.38417">
        <ele>159.7</ele>
        <time>2022-09-28T12:18:56.000Z</time>
      </trkpt>
      <trkpt lat="43.43287" lon="6.3841">
        <ele>159.3</ele>
        <time>2022-09-28T12:19:03.000Z</time>
      </trkpt>
      <trkpt lat="43.43283" lon="6.38405">
        <ele>158.6</ele>
        <time>2022-09-28T12:19:10.000Z</time>
      </trkpt>
      <trkpt lat="43.43279" lon="6.38401">
        <ele>157.9</ele>
        <time>2022-09-28T12:19:15.000Z</time>
      </trkpt>
      <trkpt lat="43.43274" lon="6.38398">
        <ele>156.8</ele>
        <time>2022-09-28T12:19:21.000Z</time>
      </trkpt>
      <trkpt lat="43.43269" lon="6.38395">
        <ele>155.6</ele>
        <time>2022-09-28T12:19:27.000Z</time>
      </trkpt>
      <trkpt lat="43.43264" lon="6.38394">
        <ele>155</ele>
        <time>2022-09-28T12:19:32.000Z</time>
      </trkpt>
      <trkpt lat="43.4326" lon="6.38392">
        <ele>154.1</ele>
        <time>2022-09-28T12:19:37.000Z</time>
      </trkpt>
      <trkpt lat="43.43255" lon="6.38393">
        <ele>153</ele>
        <time>2022-09-28T12:19:44.000Z</time>
      </trkpt>
      <trkpt lat="43.4325" lon="6.38394">
        <ele>152.5</ele>
        <time>2022-09-28T12:19:51.000Z</time>
      </trkpt>
      <trkpt lat="43.43245" lon="6.38395">
        <ele>152.1</ele>
        <time>2022-09-28T12:19:58.000Z</time>
      </trkpt>
      <trkpt lat="43.4324" lon="6.38397">
        <ele>151.8</ele>
        <time>2022-09-28T12:20:08.000Z</time>
      </trkpt>
      <trkpt lat="43.43235" lon="6.38397">
        <ele>151.3</ele>
        <time>2022-09-28T12:20:14.000Z</time>
      </trkpt>
      <trkpt lat="43.4323" lon="6.384">
        <ele>150.6</ele>
        <time>2022-09-28T12:20:19.000Z</time>
      </trkpt>
      <trkpt lat="43.43225" lon="6.38401">
        <ele>149.4</ele>
        <time>2022-09-28T12:20:27.000Z</time>
      </trkpt>
      <trkpt lat="43.43221" lon="6.38404">
        <ele>148.5</ele>
        <time>2022-09-28T12:20:33.000Z</time>
      </trkpt>
      <trkpt lat="43.43217" lon="6.38406">
        <ele>147.7</ele>
        <time>2022-09-28T12:20:39.000Z</time>
      </trkpt>
      <trkpt lat="43.43212" lon="6.38408">
        <ele>148.7</ele>
        <time>2022-09-28T12:20:46.000Z</time>
      </trkpt>
      <trkpt lat="43.43208" lon="6.38412">
        <ele>147.2</ele>
        <time>2022-09-28T12:20:56.000Z</time>
      </trkpt>
      <trkpt lat="43.43204" lon="6.38417">
        <ele>146.6</ele>
        <time>2022-09-28T12:21:02.000Z</time>
      </trkpt>
      <trkpt lat="43.432" lon="6.3842">
        <ele>146.2</ele>
        <time>2022-09-28T12:21:07.000Z</time>
      </trkpt>
      <trkpt lat="43.43196" lon="6.38426">
        <ele>145.7</ele>
        <time>2022-09-28T12:21:13.000Z</time>
      </trkpt>
      <trkpt lat="43.43192" lon="6.38431">
        <ele>144.7</ele>
        <time>2022-09-28T12:21:18.000Z</time>
      </trkpt>
      <trkpt lat="43.43189" lon="6.38435">
        <ele>144</ele>
        <time>2022-09-28T12:21:22.000Z</time>
      </trkpt>
      <trkpt lat="43.43184" lon="6.38439">
        <ele>143.1</ele>
        <time>2022-09-28T12:21:27.000Z</time>
      </trkpt>
      <trkpt lat="43.4318" lon="6.38437">
        <ele>141.7</ele>
        <time>2022-09-28T12:21:32.000Z</time>
      </trkpt>
      <trkpt lat="43.43176" lon="6.38433">
        <ele>140.4</ele>
        <time>2022-09-28T12:21:41.000Z</time>
      </trkpt>
      <trkpt lat="43.43172" lon="6.38429">
        <ele>139.6</ele>
        <time>2022-09-28T12:21:45.000Z</time>
      </trkpt>
      <trkpt lat="43.43168" lon="6.38425">
        <ele>139.1</ele>
        <time>2022-09-28T12:21:49.000Z</time>
      </trkpt>
      <trkpt lat="43.43165" lon="6.3842">
        <ele>138.8</ele>
        <time>2022-09-28T12:21:53.000Z</time>
      </trkpt>
      <trkpt lat="43.43161" lon="6.38415">
        <ele>137.7</ele>
        <time>2022-09-28T12:21:57.000Z</time>
      </trkpt>
      <trkpt lat="43.43157" lon="6.3841">
        <ele>136.8</ele>
        <time>2022-09-28T12:22:01.000Z</time>
      </trkpt>
      <trkpt lat="43.43153" lon="6.38406">
        <ele>136.3</ele>
        <time>2022-09-28T12:22:05.000Z</time>
      </trkpt>
      <trkpt lat="43.4315" lon="6.38402">
        <ele>135.6</ele>
        <time>2022-09-28T12:22:09.000Z</time>
      </trkpt>
      <trkpt lat="43.43146" lon="6.38397">
        <ele>135.3</ele>
        <time>2022-09-28T12:22:13.000Z</time>
      </trkpt>
      <trkpt lat="43.43142" lon="6.38392">
        <ele>134.7</ele>
        <time>2022-09-28T12:22:17.000Z</time>
      </trkpt>
      <trkpt lat="43.43138" lon="6.38387">
        <ele>133.6</ele>
        <time>2022-09-28T12:22:21.000Z</time>
      </trkpt>
      <trkpt lat="43.43134" lon="6.38383">
        <ele>133</ele>
        <time>2022-09-28T12:22:25.000Z</time>
      </trkpt>
      <trkpt lat="43.4313" lon="6.38379">
        <ele>132.7</ele>
        <time>2022-09-28T12:22:29.000Z</time>
      </trkpt>
      <trkpt lat="43.43126" lon="6.38374">
        <ele>132.7</ele>
        <time>2022-09-28T12:22:33.000Z</time>
      </trkpt>
      <trkpt lat="43.43122" lon="6.3837">
        <ele>132.9</ele>
        <time>2022-09-28T12:22:37.000Z</time>
      </trkpt>
      <trkpt lat="43.43119" lon="6.38365">
        <ele>132.4</ele>
        <time>2022-09-28T12:22:41.000Z</time>
      </trkpt>
      <trkpt lat="43.43115" lon="6.38361">
        <ele>131.4</ele>
        <time>2022-09-28T12:22:46.000Z</time>
      </trkpt>
      <trkpt lat="43.43112" lon="6.38356">
        <ele>130</ele>
        <time>2022-09-28T12:22:51.000Z</time>
      </trkpt>
      <trkpt lat="43.43109" lon="6.38351">
        <ele>129.5</ele>
        <time>2022-09-28T12:22:55.000Z</time>
      </trkpt>
      <trkpt lat="43.43105" lon="6.38345">
        <ele>129.4</ele>
        <time>2022-09-28T12:22:59.000Z</time>
      </trkpt>
      <trkpt lat="43.43101" lon="6.3834">
        <ele>129.9</ele>
        <time>2022-09-28T12:23:03.000Z</time>
      </trkpt>
      <trkpt lat="43.43098" lon="6.38334">
        <ele>130.3</ele>
        <time>2022-09-28T12:23:06.000Z</time>
      </trkpt>
      <trkpt lat="43.43095" lon="6.38329">
        <ele>128.6</ele>
        <time>2022-09-28T12:23:10.000Z</time>
      </trkpt>
      <trkpt lat="43.43092" lon="6.38324">
        <ele>129.4</ele>
        <time>2022-09-28T12:23:15.000Z</time>
      </trkpt>
      <trkpt lat="43.43089" lon="6.38319">
        <ele>130.1</ele>
        <time>2022-09-28T12:23:19.000Z</time>
      </trkpt>
      <trkpt lat="43.43085" lon="6.38314">
        <ele>129.4</ele>
        <time>2022-09-28T12:23:24.000Z</time>
      </trkpt>
      <trkpt lat="43.4308" lon="6.38309">
        <ele>130.5</ele>
        <time>2022-09-28T12:23:28.000Z</time>
      </trkpt>
      <trkpt lat="43.43076" lon="6.38304">
        <ele>131.2</ele>
        <time>2022-09-28T12:23:32.000Z</time>
      </trkpt>
      <trkpt lat="43.43072" lon="6.383">
        <ele>131.7</ele>
        <time>2022-09-28T12:23:35.000Z</time>
      </trkpt>
      <trkpt lat="43.43069" lon="6.38295">
        <ele>131.4</ele>
        <time>2022-09-28T12:23:39.000Z</time>
      </trkpt>
      <trkpt lat="43.43065" lon="6.38292">
        <ele>131.6</ele>
        <time>2022-09-28T12:23:43.000Z</time>
      </trkpt>
      <trkpt lat="43.43061" lon="6.38287">
        <ele>132.4</ele>
        <time>2022-09-28T12:23:46.000Z</time>
      </trkpt>
      <trkpt lat="43.43058" lon="6.38281">
        <ele>132.7</ele>
        <time>2022-09-28T12:23:49.000Z</time>
      </trkpt>
      <trkpt lat="43.43054" lon="6.38276">
        <ele>132.8</ele>
        <time>2022-09-28T12:23:53.000Z</time>
      </trkpt>
      <trkpt lat="43.4305" lon="6.38271">
        <ele>132.6</ele>
        <time>2022-09-28T12:23:58.000Z</time>
      </trkpt>
      <trkpt lat="43.43047" lon="6.38267">
        <ele>132.2</ele>
        <time>2022-09-28T12:24:02.000Z</time>
      </trkpt>
      <trkpt lat="43.43043" lon="6.38263">
        <ele>131.5</ele>
        <time>2022-09-28T12:24:06.000Z</time>
      </trkpt>
      <trkpt lat="43.43038" lon="6.3826">
        <ele>132.1</ele>
        <time>2022-09-28T12:24:11.000Z</time>
      </trkpt>
      <trkpt lat="43.43033" lon="6.38257">
        <ele>131.3</ele>
        <time>2022-09-28T12:24:16.000Z</time>
      </trkpt>
      <trkpt lat="43.43029" lon="6.38255">
        <ele>131.2</ele>
        <time>2022-09-28T12:24:20.000Z</time>
      </trkpt>
      <trkpt lat="43.43024" lon="6.38254">
        <ele>131.1</ele>
        <time>2022-09-28T12:24:23.000Z</time>
      </trkpt>
      <trkpt lat="43.4302" lon="6.38251">
        <ele>130.7</ele>
        <time>2022-09-28T12:24:27.000Z</time>
      </trkpt>
      <trkpt lat="43.43015" lon="6.38247">
        <ele>129.9</ele>
        <time>2022-09-28T12:24:32.000Z</time>
      </trkpt>
      <trkpt lat="43.4301" lon="6.38245">
        <ele>128.9</ele>
        <time>2022-09-28T12:24:38.000Z</time>
      </trkpt>
      <trkpt lat="43.43005" lon="6.38243">
        <ele>128.1</ele>
        <time>2022-09-28T12:24:43.000Z</time>
      </trkpt>
      <trkpt lat="43.43" lon="6.38241">
        <ele>127.3</ele>
        <time>2022-09-28T12:24:50.000Z</time>
      </trkpt>
      <trkpt lat="43.42996" lon="6.38239">
        <ele>126.5</ele>
        <time>2022-09-28T12:24:55.000Z</time>
      </trkpt>
      <trkpt lat="43.42992" lon="6.38237">
        <ele>126.1</ele>
        <time>2022-09-28T12:24:59.000Z</time>
      </trkpt>
      <trkpt lat="43.42987" lon="6.38234">
        <ele>125.7</ele>
        <time>2022-09-28T12:25:03.000Z</time>
      </trkpt>
      <trkpt lat="43.42982" lon="6.38233">
        <ele>124.3</ele>
        <time>2022-09-28T12:25:10.000Z</time>
      </trkpt>
      <trkpt lat="43.42977" lon="6.3823">
        <ele>123.8</ele>
        <time>2022-09-28T12:25:14.000Z</time>
      </trkpt>
      <trkpt lat="43.42972" lon="6.38229">
        <ele>123.5</ele>
        <time>2022-09-28T12:25:18.000Z</time>
      </trkpt>
      <trkpt lat="43.42967" lon="6.38226">
        <ele>122.3</ele>
        <time>2022-09-28T12:25:24.000Z</time>
      </trkpt>
      <trkpt lat="43.42962" lon="6.38224">
        <ele>122.1</ele>
        <time>2022-09-28T12:25:28.000Z</time>
      </trkpt>
      <trkpt lat="43.42958" lon="6.38222">
        <ele>121.1</ele>
        <time>2022-09-28T12:25:34.000Z</time>
      </trkpt>
      <trkpt lat="43.42952" lon="6.3822">
        <ele>120.8</ele>
        <time>2022-09-28T12:25:39.000Z</time>
      </trkpt>
      <trkpt lat="43.42948" lon="6.38218">
        <ele>119.9</ele>
        <time>2022-09-28T12:25:45.000Z</time>
      </trkpt>
      <trkpt lat="43.42943" lon="6.38215">
        <ele>119.6</ele>
        <time>2022-09-28T12:25:49.000Z</time>
      </trkpt>
      <trkpt lat="43.42938" lon="6.38212">
        <ele>118.8</ele>
        <time>2022-09-28T12:25:55.000Z</time>
      </trkpt>
      <trkpt lat="43.42933" lon="6.38209">
        <ele>118.6</ele>
        <time>2022-09-28T12:25:59.000Z</time>
      </trkpt>
      <trkpt lat="43.42928" lon="6.38207">
        <ele>117.7</ele>
        <time>2022-09-28T12:26:05.000Z</time>
      </trkpt>
      <trkpt lat="43.42924" lon="6.38205">
        <ele>117.9</ele>
        <time>2022-09-28T12:26:08.000Z</time>
      </trkpt>
      <trkpt lat="43.42919" lon="6.38203">
        <ele>117.7</ele>
        <time>2022-09-28T12:26:13.000Z</time>
      </trkpt>
      <trkpt lat="43.42914" lon="6.38202">
        <ele>117.9</ele>
        <time>2022-09-28T12:26:17.000Z</time>
      </trkpt>
      <trkpt lat="43.4291" lon="6.38199">
        <ele>117.1</ele>
        <time>2022-09-28T12:26:22.000Z</time>
      </trkpt>
      <trkpt lat="43.42905" lon="6.38198">
        <ele>116.8</ele>
        <time>2022-09-28T12:26:25.000Z</time>
      </trkpt>
      <trkpt lat="43.429" lon="6.38196">
        <ele>116.4</ele>
        <time>2022-09-28T12:26:28.000Z</time>
      </trkpt>
      <trkpt lat="43.42895" lon="6.38196">
        <ele>116.7</ele>
        <time>2022-09-28T12:26:33.000Z</time>
      </trkpt>
      <trkpt lat="43.4289" lon="6.38197">
        <ele>117.6</ele>
        <time>2022-09-28T12:26:37.000Z</time>
      </trkpt>
      <trkpt lat="43.42885" lon="6.38199">
        <ele>117.5</ele>
        <time>2022-09-28T12:26:41.000Z</time>
      </trkpt>
      <trkpt lat="43.42881" lon="6.38203">
        <ele>117.8</ele>
        <time>2022-09-28T12:26:46.000Z</time>
      </trkpt>
      <trkpt lat="43.42876" lon="6.38204">
        <ele>119</ele>
        <time>2022-09-28T12:26:50.000Z</time>
      </trkpt>
      <trkpt lat="43.42871" lon="6.38207">
        <ele>118.8</ele>
        <time>2022-09-28T12:26:55.000Z</time>
      </trkpt>
      <trkpt lat="43.42866" lon="6.3821">
        <ele>119.5</ele>
        <time>2022-09-28T12:27:01.000Z</time>
      </trkpt>
      <trkpt lat="43.42861" lon="6.3821">
        <ele>119.7</ele>
        <time>2022-09-28T12:27:06.000Z</time>
      </trkpt>
      <trkpt lat="43.42856" lon="6.38212">
        <ele>120</ele>
        <time>2022-09-28T12:27:09.000Z</time>
      </trkpt>
      <trkpt lat="43.42851" lon="6.38214">
        <ele>120.2</ele>
        <time>2022-09-28T12:27:14.000Z</time>
      </trkpt>
      <trkpt lat="43.42847" lon="6.38215">
        <ele>120.2</ele>
        <time>2022-09-28T12:27:17.000Z</time>
      </trkpt>
      <trkpt lat="43.42841" lon="6.38217">
        <ele>120.3</ele>
        <time>2022-09-28T12:27:23.000Z</time>
      </trkpt>
      <trkpt lat="43.42837" lon="6.38218">
        <ele>120.4</ele>
        <time>2022-09-28T12:27:26.000Z</time>
      </trkpt>
      <trkpt lat="43.42832" lon="6.3822">
        <ele>120.1</ele>
        <time>2022-09-28T12:27:31.000Z</time>
      </trkpt>
      <trkpt lat="43.42828" lon="6.38223">
        <ele>120.6</ele>
        <time>2022-09-28T12:27:35.000Z</time>
      </trkpt>
      <trkpt lat="43.42823" lon="6.38225">
        <ele>121</ele>
        <time>2022-09-28T12:27:40.000Z</time>
      </trkpt>
      <trkpt lat="43.42818" lon="6.38227">
        <ele>120.9</ele>
        <time>2022-09-28T12:27:44.000Z</time>
      </trkpt>
      <trkpt lat="43.42813" lon="6.38229">
        <ele>121.2</ele>
        <time>2022-09-28T12:27:47.000Z</time>
      </trkpt>
      <trkpt lat="43.42809" lon="6.38232">
        <ele>121.1</ele>
        <time>2022-09-28T12:27:51.000Z</time>
      </trkpt>
      <trkpt lat="43.42804" lon="6.38235">
        <ele>120.4</ele>
        <time>2022-09-28T12:27:56.000Z</time>
      </trkpt>
      <trkpt lat="43.428" lon="6.38238">
        <ele>120.4</ele>
        <time>2022-09-28T12:27:59.000Z</time>
      </trkpt>
      <trkpt lat="43.42796" lon="6.38241">
        <ele>119.8</ele>
        <time>2022-09-28T12:28:04.000Z</time>
      </trkpt>
      <trkpt lat="43.42792" lon="6.38244">
        <ele>120.1</ele>
        <time>2022-09-28T12:28:08.000Z</time>
      </trkpt>
      <trkpt lat="43.42787" lon="6.38247">
        <ele>119.3</ele>
        <time>2022-09-28T12:28:11.000Z</time>
      </trkpt>
      <trkpt lat="43.42782" lon="6.38251">
        <ele>119.9</ele>
        <time>2022-09-28T12:28:14.000Z</time>
      </trkpt>
      <trkpt lat="43.42779" lon="6.38255">
        <ele>120</ele>
        <time>2022-09-28T12:28:19.000Z</time>
      </trkpt>
      <trkpt lat="43.42775" lon="6.38261">
        <ele>119.8</ele>
        <time>2022-09-28T12:28:23.000Z</time>
      </trkpt>
      <trkpt lat="43.4277" lon="6.38267">
        <ele>119.9</ele>
        <time>2022-09-28T12:28:26.000Z</time>
      </trkpt>
      <trkpt lat="43.42767" lon="6.38271">
        <ele>119.8</ele>
        <time>2022-09-28T12:28:31.000Z</time>
      </trkpt>
      <trkpt lat="43.42764" lon="6.38277">
        <ele>119.6</ele>
        <time>2022-09-28T12:28:35.000Z</time>
      </trkpt>
      <trkpt lat="43.4276" lon="6.38282">
        <ele>119.6</ele>
        <time>2022-09-28T12:28:38.000Z</time>
      </trkpt>
      <trkpt lat="43.42757" lon="6.38288">
        <ele>119.6</ele>
        <time>2022-09-28T12:28:43.000Z</time>
      </trkpt>
      <trkpt lat="43.42754" lon="6.38293">
        <ele>119.7</ele>
        <time>2022-09-28T12:28:47.000Z</time>
      </trkpt>
      <trkpt lat="43.42751" lon="6.38299">
        <ele>120.2</ele>
        <time>2022-09-28T12:28:50.000Z</time>
      </trkpt>
      <trkpt lat="43.42747" lon="6.38304">
        <ele>120.1</ele>
        <time>2022-09-28T12:28:55.000Z</time>
      </trkpt>
      <trkpt lat="43.42744" lon="6.38308">
        <ele>119.8</ele>
        <time>2022-09-28T12:28:59.000Z</time>
      </trkpt>
      <trkpt lat="43.42741" lon="6.38314">
        <ele>119.9</ele>
        <time>2022-09-28T12:29:02.000Z</time>
      </trkpt>
      <trkpt lat="43.42737" lon="6.3832">
        <ele>120.3</ele>
        <time>2022-09-28T12:29:05.000Z</time>
      </trkpt>
      <trkpt lat="43.42734" lon="6.38326">
        <ele>120.1</ele>
        <time>2022-09-28T12:29:11.000Z</time>
      </trkpt>
      <trkpt lat="43.42731" lon="6.38333">
        <ele>121</ele>
        <time>2022-09-28T12:29:15.000Z</time>
      </trkpt>
      <trkpt lat="43.42728" lon="6.38338">
        <ele>120.9</ele>
        <time>2022-09-28T12:29:19.000Z</time>
      </trkpt>
      <trkpt lat="43.42723" lon="6.38344">
        <ele>120.2</ele>
        <time>2022-09-28T12:29:24.000Z</time>
      </trkpt>
      <trkpt lat="43.42721" lon="6.3835">
        <ele>120.3</ele>
        <time>2022-09-28T12:29:29.000Z</time>
      </trkpt>
      <trkpt lat="43.42719" lon="6.38356">
        <ele>120</ele>
        <time>2022-09-28T12:29:33.000Z</time>
      </trkpt>
      <trkpt lat="43.42715" lon="6.3836">
        <ele>119.9</ele>
        <time>2022-09-28T12:29:36.000Z</time>
      </trkpt>
      <trkpt lat="43.42711" lon="6.38363">
        <ele>119.6</ele>
        <time>2022-09-28T12:29:43.000Z</time>
      </trkpt>
      <trkpt lat="43.42707" lon="6.38367">
        <ele>119.6</ele>
        <time>2022-09-28T12:29:47.000Z</time>
      </trkpt>
      <trkpt lat="43.42703" lon="6.38369">
        <ele>118.9</ele>
        <time>2022-09-28T12:29:53.000Z</time>
      </trkpt>
      <trkpt lat="43.42697" lon="6.38372">
        <ele>118.5</ele>
        <time>2022-09-28T12:29:57.000Z</time>
      </trkpt>
      <trkpt lat="43.42692" lon="6.38372">
        <ele>118.3</ele>
        <time>2022-09-28T12:30:03.000Z</time>
      </trkpt>
      <trkpt lat="43.42688" lon="6.38374">
        <ele>118.6</ele>
        <time>2022-09-28T12:30:06.000Z</time>
      </trkpt>
      <trkpt lat="43.42683" lon="6.38374">
        <ele>118.9</ele>
        <time>2022-09-28T12:30:11.000Z</time>
      </trkpt>
      <trkpt lat="43.42677" lon="6.38374">
        <ele>117.5</ele>
        <time>2022-09-28T12:30:16.000Z</time>
      </trkpt>
      <trkpt lat="43.42672" lon="6.38375">
        <ele>118.1</ele>
        <time>2022-09-28T12:30:22.000Z</time>
      </trkpt>
      <trkpt lat="43.42667" lon="6.38374">
        <ele>118.7</ele>
        <time>2022-09-28T12:30:26.000Z</time>
      </trkpt>
      <trkpt lat="43.42661" lon="6.38373">
        <ele>118.1</ele>
        <time>2022-09-28T12:30:32.000Z</time>
      </trkpt>
      <trkpt lat="43.42656" lon="6.38372">
        <ele>117.8</ele>
        <time>2022-09-28T12:30:36.000Z</time>
      </trkpt>
      <trkpt lat="43.42651" lon="6.38373">
        <ele>116.7</ele>
        <time>2022-09-28T12:30:42.000Z</time>
      </trkpt>
      <trkpt lat="43.42646" lon="6.38373">
        <ele>116.7</ele>
        <time>2022-09-28T12:30:45.000Z</time>
      </trkpt>
      <trkpt lat="43.42641" lon="6.38372">
        <ele>115.6</ele>
        <time>2022-09-28T12:30:50.000Z</time>
      </trkpt>
      <trkpt lat="43.42635" lon="6.38371">
        <ele>115</ele>
        <time>2022-09-28T12:30:55.000Z</time>
      </trkpt>
      <trkpt lat="43.4263" lon="6.38371">
        <ele>115.1</ele>
        <time>2022-09-28T12:30:58.000Z</time>
      </trkpt>
      <trkpt lat="43.42625" lon="6.38372">
        <ele>114.2</ele>
        <time>2022-09-28T12:31:04.000Z</time>
      </trkpt>
      <trkpt lat="43.4262" lon="6.38375">
        <ele>113.8</ele>
        <time>2022-09-28T12:31:08.000Z</time>
      </trkpt>
      <trkpt lat="43.42615" lon="6.38376">
        <ele>112.9</ele>
        <time>2022-09-28T12:31:13.000Z</time>
      </trkpt>
      <trkpt lat="43.42611" lon="6.3838">
        <ele>112.6</ele>
        <time>2022-09-28T12:31:18.000Z</time>
      </trkpt>
      <trkpt lat="43.42606" lon="6.38382">
        <ele>112.7</ele>
        <time>2022-09-28T12:31:21.000Z</time>
      </trkpt>
      <trkpt lat="43.42601" lon="6.38385">
        <ele>112</ele>
        <time>2022-09-28T12:31:27.000Z</time>
      </trkpt>
      <trkpt lat="43.42597" lon="6.38387">
        <ele>112.1</ele>
        <time>2022-09-28T12:31:31.000Z</time>
      </trkpt>
      <trkpt lat="43.42593" lon="6.3839">
        <ele>110.9</ele>
        <time>2022-09-28T12:31:37.000Z</time>
      </trkpt>
      <trkpt lat="43.42588" lon="6.38391">
        <ele>110.7</ele>
        <time>2022-09-28T12:31:41.000Z</time>
      </trkpt>
      <trkpt lat="43.42584" lon="6.38391">
        <ele>110.4</ele>
        <time>2022-09-28T12:31:47.000Z</time>
      </trkpt>
      <trkpt lat="43.42579" lon="6.38391">
        <ele>109.9</ele>
        <time>2022-09-28T12:32:02.000Z</time>
      </trkpt>
      <trkpt lat="43.42575" lon="6.38388">
        <ele>109.4</ele>
        <time>2022-09-28T12:32:24.000Z</time>
      </trkpt>
      <trkpt lat="43.4257" lon="6.3839">
        <ele>108.9</ele>
        <time>2022-09-28T12:32:30.000Z</time>
      </trkpt>
      <trkpt lat="43.42564" lon="6.3839">
        <ele>108.6</ele>
        <time>2022-09-28T12:32:36.000Z</time>
      </trkpt>
      <trkpt lat="43.42562" lon="6.38396">
        <ele>107.6</ele>
        <time>2022-09-28T12:32:44.000Z</time>
      </trkpt>
      <trkpt lat="43.42563" lon="6.38402">
        <ele>108.4</ele>
        <time>2022-09-28T12:33:01.000Z</time>
      </trkpt>
      <trkpt lat="43.42558" lon="6.38405">
        <ele>108.5</ele>
        <time>2022-09-28T12:33:48.000Z</time>
      </trkpt>
      <trkpt lat="43.42554" lon="6.38406">
        <ele>108.3</ele>
        <time>2022-09-28T12:33:54.000Z</time>
      </trkpt>
      <trkpt lat="43.42548" lon="6.38405">
        <ele>107.3</ele>
        <time>2022-09-28T12:34:01.000Z</time>
      </trkpt>
      <trkpt lat="43.42543" lon="6.38406">
        <ele>107.4</ele>
        <time>2022-09-28T12:34:07.000Z</time>
      </trkpt>
      <trkpt lat="43.42539" lon="6.38406">
        <ele>106.6</ele>
        <time>2022-09-28T12:34:13.000Z</time>
      </trkpt>
      <trkpt lat="43.42534" lon="6.38407">
        <ele>106</ele>
        <time>2022-09-28T12:34:19.000Z</time>
      </trkpt>
      <trkpt lat="43.42529" lon="6.38405">
        <ele>105</ele>
        <time>2022-09-28T12:34:26.000Z</time>
      </trkpt>
      <trkpt lat="43.42531" lon="6.38399">
        <ele>104.6</ele>
        <time>2022-09-28T12:34:35.000Z</time>
      </trkpt>
      <trkpt lat="43.42535" lon="6.38397">
        <ele>103.6</ele>
        <time>2022-09-28T12:34:41.000Z</time>
      </trkpt>
      <trkpt lat="43.4254" lon="6.38394">
        <ele>103</ele>
        <time>2022-09-28T12:34:47.000Z</time>
      </trkpt>
      <trkpt lat="43.42543" lon="6.3839">
        <ele>102.5</ele>
        <time>2022-09-28T12:34:52.000Z</time>
      </trkpt>
      <trkpt lat="43.42547" lon="6.38387">
        <ele>101.8</ele>
        <time>2022-09-28T12:34:57.000Z</time>
      </trkpt>
      <trkpt lat="43.42551" lon="6.38383">
        <ele>101.3</ele>
        <time>2022-09-28T12:35:02.000Z</time>
      </trkpt>
      <trkpt lat="43.42554" lon="6.38379">
        <ele>100.5</ele>
        <time>2022-09-28T12:35:07.000Z</time>
      </trkpt>
      <trkpt lat="43.42558" lon="6.38372">
        <ele>100</ele>
        <time>2022-09-28T12:35:14.000Z</time>
      </trkpt>
      <trkpt lat="43.42562" lon="6.38367">
        <ele>99.6</ele>
        <time>2022-09-28T12:35:20.000Z</time>
      </trkpt>
      <trkpt lat="43.42564" lon="6.38361">
        <ele>99.1</ele>
        <time>2022-09-28T12:35:27.000Z</time>
      </trkpt>
      <trkpt lat="43.42566" lon="6.38354">
        <ele>98.3</ele>
        <time>2022-09-28T12:35:34.000Z</time>
      </trkpt>
      <trkpt lat="43.42568" lon="6.38349">
        <ele>97.6</ele>
        <time>2022-09-28T12:35:40.000Z</time>
      </trkpt>
      <trkpt lat="43.42571" lon="6.38343">
        <ele>96.9</ele>
        <time>2022-09-28T12:35:46.000Z</time>
      </trkpt>
      <trkpt lat="43.42574" lon="6.38336">
        <ele>96.3</ele>
        <time>2022-09-28T12:35:52.000Z</time>
      </trkpt>
      <trkpt lat="43.42576" lon="6.38331">
        <ele>95.3</ele>
        <time>2022-09-28T12:35:58.000Z</time>
      </trkpt>
      <trkpt lat="43.42579" lon="6.38326">
        <ele>95</ele>
        <time>2022-09-28T12:36:04.000Z</time>
      </trkpt>
      <trkpt lat="43.42583" lon="6.3832">
        <ele>94.5</ele>
        <time>2022-09-28T12:36:09.000Z</time>
      </trkpt>
      <trkpt lat="43.42586" lon="6.38315">
        <ele>93.4</ele>
        <time>2022-09-28T12:36:14.000Z</time>
      </trkpt>
      <trkpt lat="43.42587" lon="6.38309">
        <ele>92.9</ele>
        <time>2022-09-28T12:36:19.000Z</time>
      </trkpt>
      <trkpt lat="43.42589" lon="6.38302">
        <ele>92.7</ele>
        <time>2022-09-28T12:36:23.000Z</time>
      </trkpt>
      <trkpt lat="43.42592" lon="6.38295">
        <ele>92</ele>
        <time>2022-09-28T12:36:29.000Z</time>
      </trkpt>
      <trkpt lat="43.42594" lon="6.38289">
        <ele>91.9</ele>
        <time>2022-09-28T12:36:34.000Z</time>
      </trkpt>
      <trkpt lat="43.42595" lon="6.38283">
        <ele>91.5</ele>
        <time>2022-09-28T12:36:38.000Z</time>
      </trkpt>
      <trkpt lat="43.42597" lon="6.38277">
        <ele>91.5</ele>
        <time>2022-09-28T12:36:43.000Z</time>
      </trkpt>
      <trkpt lat="43.42599" lon="6.38271">
        <ele>90.9</ele>
        <time>2022-09-28T12:36:47.000Z</time>
      </trkpt>
      <trkpt lat="43.42601" lon="6.38265">
        <ele>90.3</ele>
        <time>2022-09-28T12:36:53.000Z</time>
      </trkpt>
      <trkpt lat="43.42603" lon="6.38259">
        <ele>89.7</ele>
        <time>2022-09-28T12:36:58.000Z</time>
      </trkpt>
      <trkpt lat="43.42605" lon="6.38251">
        <ele>88.7</ele>
        <time>2022-09-28T12:37:03.000Z</time>
      </trkpt>
      <trkpt lat="43.42605" lon="6.38244">
        <ele>88.2</ele>
        <time>2022-09-28T12:37:08.000Z</time>
      </trkpt>
      <trkpt lat="43.42606" lon="6.38237">
        <ele>87.4</ele>
        <time>2022-09-28T12:37:12.000Z</time>
      </trkpt>
      <trkpt lat="43.42606" lon="6.3823">
        <ele>87.1</ele>
        <time>2022-09-28T12:37:17.000Z</time>
      </trkpt>
      <trkpt lat="43.42607" lon="6.38222">
        <ele>86.3</ele>
        <time>2022-09-28T12:37:22.000Z</time>
      </trkpt>
      <trkpt lat="43.42606" lon="6.38216">
        <ele>85.8</ele>
        <time>2022-09-28T12:37:27.000Z</time>
      </trkpt>
      <trkpt lat="43.42603" lon="6.3821">
        <ele>85.2</ele>
        <time>2022-09-28T12:37:33.000Z</time>
      </trkpt>
      <trkpt lat="43.42604" lon="6.38203">
        <ele>85</ele>
        <time>2022-09-28T12:37:41.000Z</time>
      </trkpt>
      <trkpt lat="43.42605" lon="6.38197">
        <ele>85.1</ele>
        <time>2022-09-28T12:37:50.000Z</time>
      </trkpt>
      <trkpt lat="43.42607" lon="6.38191">
        <ele>85.3</ele>
        <time>2022-09-28T12:37:58.000Z</time>
      </trkpt>
      <trkpt lat="43.4261" lon="6.38187">
        <ele>83.3</ele>
        <time>2022-09-28T12:38:09.000Z</time>
      </trkpt>
      <trkpt lat="43.42611" lon="6.38181">
        <ele>82.4</ele>
        <time>2022-09-28T12:38:24.000Z</time>
      </trkpt>
      <trkpt lat="43.42609" lon="6.38187">
        <ele>82.2</ele>
        <time>2022-09-28T12:38:44.000Z</time>
      </trkpt>
      <trkpt lat="43.42605" lon="6.38192">
        <ele>83.7</ele>
        <time>2022-09-28T12:38:48.000Z</time>
      </trkpt>
      <trkpt lat="43.42599" lon="6.38192">
        <ele>84.6</ele>
        <time>2022-09-28T12:38:53.000Z</time>
      </trkpt>
      <trkpt lat="43.42594" lon="6.38192">
        <ele>84.6</ele>
        <time>2022-09-28T12:38:57.000Z</time>
      </trkpt>
      <trkpt lat="43.42588" lon="6.3819">
        <ele>83.2</ele>
        <time>2022-09-28T12:39:02.000Z</time>
      </trkpt>
      <trkpt lat="43.42583" lon="6.3819">
        <ele>82.8</ele>
        <time>2022-09-28T12:39:06.000Z</time>
      </trkpt>
      <trkpt lat="43.42578" lon="6.38189">
        <ele>83.3</ele>
        <time>2022-09-28T12:39:10.000Z</time>
      </trkpt>
      <trkpt lat="43.42572" lon="6.38189">
        <ele>83.4</ele>
        <time>2022-09-28T12:39:14.000Z</time>
      </trkpt>
      <trkpt lat="43.42567" lon="6.38188">
        <ele>83.2</ele>
        <time>2022-09-28T12:39:17.000Z</time>
      </trkpt>
      <trkpt lat="43.42562" lon="6.38186">
        <ele>83</ele>
        <time>2022-09-28T12:39:21.000Z</time>
      </trkpt>
      <trkpt lat="43.42558" lon="6.38189">
        <ele>82.9</ele>
        <time>2022-09-28T12:39:28.000Z</time>
      </trkpt>
      <trkpt lat="43.42553" lon="6.38192">
        <ele>83.3</ele>
        <time>2022-09-28T12:39:31.000Z</time>
      </trkpt>
      <trkpt lat="43.42549" lon="6.38194">
        <ele>83.5</ele>
        <time>2022-09-28T12:39:34.000Z</time>
      </trkpt>
      <trkpt lat="43.42544" lon="6.38197">
        <ele>83.8</ele>
        <time>2022-09-28T12:39:38.000Z</time>
      </trkpt>
      <trkpt lat="43.42539" lon="6.382">
        <ele>83.6</ele>
        <time>2022-09-28T12:39:42.000Z</time>
      </trkpt>
      <trkpt lat="43.42534" lon="6.38204">
        <ele>83.7</ele>
        <time>2022-09-28T12:39:47.000Z</time>
      </trkpt>
      <trkpt lat="43.42529" lon="6.38206">
        <ele>83.9</ele>
        <time>2022-09-28T12:39:51.000Z</time>
      </trkpt>
      <trkpt lat="43.42525" lon="6.38209">
        <ele>83.8</ele>
        <time>2022-09-28T12:39:55.000Z</time>
      </trkpt>
      <trkpt lat="43.42519" lon="6.38212">
        <ele>83.9</ele>
        <time>2022-09-28T12:39:59.000Z</time>
      </trkpt>
      <trkpt lat="43.42515" lon="6.38216">
        <ele>84.1</ele>
        <time>2022-09-28T12:40:03.000Z</time>
      </trkpt>
      <trkpt lat="43.42511" lon="6.3822">
        <ele>83.8</ele>
        <time>2022-09-28T12:40:08.000Z</time>
      </trkpt>
      <trkpt lat="43.42507" lon="6.38221">
        <ele>83.9</ele>
        <time>2022-09-28T12:40:12.000Z</time>
      </trkpt>
      <trkpt lat="43.42501" lon="6.38222">
        <ele>83.7</ele>
        <time>2022-09-28T12:40:16.000Z</time>
      </trkpt>
      <trkpt lat="43.42496" lon="6.38226">
        <ele>83.3</ele>
        <time>2022-09-28T12:40:20.000Z</time>
      </trkpt>
      <trkpt lat="43.42491" lon="6.38228">
        <ele>82.9</ele>
        <time>2022-09-28T12:40:23.000Z</time>
      </trkpt>
      <trkpt lat="43.42486" lon="6.38229">
        <ele>82.2</ele>
        <time>2022-09-28T12:40:26.000Z</time>
      </trkpt>
      <trkpt lat="43.4248" lon="6.3823">
        <ele>82.1</ele>
        <time>2022-09-28T12:40:29.000Z</time>
      </trkpt>
      <trkpt lat="43.42475" lon="6.38233">
        <ele>81.8</ele>
        <time>2022-09-28T12:40:35.000Z</time>
      </trkpt>
      <trkpt lat="43.4247" lon="6.38233">
        <ele>81.5</ele>
        <time>2022-09-28T12:40:38.000Z</time>
      </trkpt>
      <trkpt lat="43.42466" lon="6.38229">
        <ele>81.6</ele>
        <time>2022-09-28T12:40:48.000Z</time>
      </trkpt>
      <trkpt lat="43.42461" lon="6.38227">
        <ele>81.8</ele>
        <time>2022-09-28T12:41:20.000Z</time>
      </trkpt>
      <trkpt lat="43.42459" lon="6.38233">
        <ele>81.4</ele>
        <time>2022-09-28T12:41:45.000Z</time>
      </trkpt>
      <trkpt lat="43.42455" lon="6.38237">
        <ele>81.2</ele>
        <time>2022-09-28T12:41:57.000Z</time>
      </trkpt>
      <trkpt lat="43.42459" lon="6.38241">
        <ele>80.9</ele>
        <time>2022-09-28T12:42:08.000Z</time>
      </trkpt>
      <trkpt lat="43.42454" lon="6.38241">
        <ele>81</ele>
        <time>2022-09-28T12:42:26.000Z</time>
      </trkpt>
      <trkpt lat="43.42449" lon="6.3824">
        <ele>80.7</ele>
        <time>2022-09-28T12:42:30.000Z</time>
      </trkpt>
      <trkpt lat="43.42444" lon="6.38238">
        <ele>80.3</ele>
        <time>2022-09-28T12:42:40.000Z</time>
      </trkpt>
      <trkpt lat="43.42439" lon="6.38241">
        <ele>80.3</ele>
        <time>2022-09-28T12:42:52.000Z</time>
      </trkpt>
      <trkpt lat="43.42434" lon="6.38243">
        <ele>80.6</ele>
        <time>2022-09-28T12:42:57.000Z</time>
      </trkpt>
      <trkpt lat="43.42429" lon="6.38244">
        <ele>80.6</ele>
        <time>2022-09-28T12:43:01.000Z</time>
      </trkpt>
      <trkpt lat="43.42425" lon="6.38247">
        <ele>80.5</ele>
        <time>2022-09-28T12:43:10.000Z</time>
      </trkpt>
      <trkpt lat="43.4242" lon="6.38247">
        <ele>81.3</ele>
        <time>2022-09-28T12:43:24.000Z</time>
      </trkpt>
      <trkpt lat="43.42416" lon="6.38248">
        <ele>81.2</ele>
        <time>2022-09-28T12:43:27.000Z</time>
      </trkpt>
      <trkpt lat="43.42411" lon="6.3825">
        <ele>80.8</ele>
        <time>2022-09-28T12:43:34.000Z</time>
      </trkpt>
      <trkpt lat="43.42407" lon="6.38254">
        <ele>80.9</ele>
        <time>2022-09-28T12:43:39.000Z</time>
      </trkpt>
      <trkpt lat="43.42403" lon="6.38257">
        <ele>81.2</ele>
        <time>2022-09-28T12:43:44.000Z</time>
      </trkpt>
      <trkpt lat="43.424" lon="6.38252">
        <ele>80.9</ele>
        <time>2022-09-28T12:44:33.000Z</time>
      </trkpt>
      <trkpt lat="43.42397" lon="6.38247">
        <ele>81</ele>
        <time>2022-09-28T12:44:44.000Z</time>
      </trkpt>
      <trkpt lat="43.42399" lon="6.38253">
        <ele>81.9</ele>
        <time>2022-09-28T12:45:40.000Z</time>
      </trkpt>
      <trkpt lat="43.42399" lon="6.38247">
        <ele>82</ele>
        <time>2022-09-28T12:46:35.000Z</time>
      </trkpt>
      <trkpt lat="43.42394" lon="6.38247">
        <ele>80.7</ele>
        <time>2022-09-28T12:47:07.000Z</time>
      </trkpt>
      <trkpt lat="43.42395" lon="6.3824">
        <ele>79.6</ele>
        <time>2022-09-28T12:47:30.000Z</time>
      </trkpt>
      <trkpt lat="43.42396" lon="6.38234">
        <ele>78.1</ele>
        <time>2022-09-28T12:47:49.000Z</time>
      </trkpt>
      <trkpt lat="43.42391" lon="6.38236">
        <ele>78.7</ele>
        <time>2022-09-28T12:48:18.000Z</time>
      </trkpt>
      <trkpt lat="43.42387" lon="6.38234">
        <ele>79.2</ele>
        <time>2022-09-28T12:48:56.000Z</time>
      </trkpt>
      <trkpt lat="43.42392" lon="6.38234">
        <ele>77.2</ele>
        <time>2022-09-28T12:49:53.000Z</time>
      </trkpt>
      <trkpt lat="43.42391" lon="6.38228">
        <ele>77.1</ele>
        <time>2022-09-28T12:50:31.000Z</time>
      </trkpt>
      <trkpt lat="43.42386" lon="6.38224">
        <ele>78.3</ele>
        <time>2022-09-28T12:50:37.000Z</time>
      </trkpt>
      <trkpt lat="43.42381" lon="6.38221">
        <ele>78.6</ele>
        <time>2022-09-28T12:50:42.000Z</time>
      </trkpt>
      <trkpt lat="43.42377" lon="6.38218">
        <ele>78.9</ele>
        <time>2022-09-28T12:50:48.000Z</time>
      </trkpt>
      <trkpt lat="43.42373" lon="6.38214">
        <ele>79.5</ele>
        <time>2022-09-28T12:51:05.000Z</time>
      </trkpt>
      <trkpt lat="43.42369" lon="6.38212">
        <ele>77.6</ele>
        <time>2022-09-28T12:51:27.000Z</time>
      </trkpt>
      <trkpt lat="43.42365" lon="6.38208">
        <ele>77.3</ele>
        <time>2022-09-28T12:51:40.000Z</time>
      </trkpt>
      <trkpt lat="43.42361" lon="6.38207">
        <ele>77</ele>
        <time>2022-09-28T12:54:21.000Z</time>
      </trkpt>
      <trkpt lat="43.42356" lon="6.38204">
        <ele>76.8</ele>
        <time>2022-09-28T12:54:35.000Z</time>
      </trkpt>
      <trkpt lat="43.42352" lon="6.38204">
        <ele>81</ele>
        <time>2022-09-28T12:54:58.000Z</time>
      </trkpt>
      <trkpt lat="43.42351" lon="6.3821">
        <ele>78.4</ele>
        <time>2022-09-28T12:55:24.000Z</time>
      </trkpt>
      <trkpt lat="43.42352" lon="6.38216">
        <ele>79.1</ele>
        <time>2022-09-28T12:55:54.000Z</time>
      </trkpt>
      <trkpt lat="43.42353" lon="6.3821">
        <ele>79.3</ele>
        <time>2022-09-28T12:57:02.000Z</time>
      </trkpt>
      <trkpt lat="43.42348" lon="6.38207">
        <ele>80.5</ele>
        <time>2022-09-28T12:58:43.000Z</time>
      </trkpt>
      <trkpt lat="43.42344" lon="6.38205">
        <ele>80.6</ele>
        <time>2022-09-28T12:58:48.000Z</time>
      </trkpt>
      <trkpt lat="43.42339" lon="6.38206">
        <ele>80.2</ele>
        <time>2022-09-28T12:58:56.000Z</time>
      </trkpt>
      <trkpt lat="43.42335" lon="6.38202">
        <ele>79.7</ele>
        <time>2022-09-28T12:59:07.000Z</time>
      </trkpt>
      <trkpt lat="43.4233" lon="6.38202">
        <ele>79.4</ele>
        <time>2022-09-28T12:59:15.000Z</time>
      </trkpt>
      <trkpt lat="43.42326" lon="6.38202">
        <ele>79.1</ele>
        <time>2022-09-28T12:59:34.000Z</time>
      </trkpt>
      <trkpt lat="43.42322" lon="6.38205">
        <ele>75.8</ele>
        <time>2022-09-28T13:00:09.000Z</time>
      </trkpt>
      <trkpt lat="43.42318" lon="6.382">
        <ele>75.9</ele>
        <time>2022-09-28T13:00:38.000Z</time>
      </trkpt>
      <trkpt lat="43.42314" lon="6.38202">
        <ele>76.7</ele>
        <time>2022-09-28T13:00:41.000Z</time>
      </trkpt>
      <trkpt lat="43.42305" lon="6.38205">
        <ele>88</ele>
        <time>2022-09-28T13:00:55.000Z</time>
      </trkpt>
      <trkpt lat="43.4231" lon="6.38211">
        <ele>85.6</ele>
        <time>2022-09-28T13:01:07.000Z</time>
      </trkpt>
      <trkpt lat="43.42308" lon="6.38204">
        <ele>78</ele>
        <time>2022-09-28T13:01:23.000Z</time>
      </trkpt>
      <trkpt lat="43.42303" lon="6.38203">
        <ele>77</ele>
        <time>2022-09-28T13:01:32.000Z</time>
      </trkpt>
      <trkpt lat="43.42299" lon="6.38202">
        <ele>78.5</ele>
        <time>2022-09-28T13:01:39.000Z</time>
      </trkpt>
      <trkpt lat="43.42295" lon="6.38205">
        <ele>78.5</ele>
        <time>2022-09-28T13:02:00.000Z</time>
      </trkpt>
      <trkpt lat="43.4229" lon="6.38208">
        <ele>76.3</ele>
        <time>2022-09-28T13:02:57.000Z</time>
      </trkpt>
      <trkpt lat="43.42286" lon="6.3821">
        <ele>75.4</ele>
        <time>2022-09-28T13:05:05.000Z</time>
      </trkpt>
      <trkpt lat="43.42289" lon="6.38205">
        <ele>75.3</ele>
        <time>2022-09-28T13:07:02.000Z</time>
      </trkpt>
      <trkpt lat="43.42286" lon="6.3821">
        <ele>75.8</ele>
        <time>2022-09-28T13:10:52.000Z</time>
      </trkpt>
      <trkpt lat="43.42283" lon="6.38215">
        <ele>75.6</ele>
        <time>2022-09-28T13:11:59.000Z</time>
      </trkpt>
      <trkpt lat="43.42285" lon="6.38209">
        <ele>75.4</ele>
        <time>2022-09-28T13:12:58.000Z</time>
      </trkpt>
      <trkpt lat="43.42285" lon="6.38215">
        <ele>75.7</ele>
        <time>2022-09-28T13:13:34.000Z</time>
      </trkpt>
      <trkpt lat="43.42283" lon="6.38209">
        <ele>76.1</ele>
        <time>2022-09-28T13:16:19.000Z</time>
      </trkpt>
      <trkpt lat="43.42287" lon="6.38207">
        <ele>76.6</ele>
        <time>2022-09-28T13:18:20.000Z</time>
      </trkpt>
      <trkpt lat="43.42283" lon="6.38205">
        <ele>77.1</ele>
        <time>2022-09-28T13:19:48.000Z</time>
      </trkpt>
      <trkpt lat="43.42284" lon="6.38211">
        <ele>75.4</ele>
        <time>2022-09-28T13:20:56.000Z</time>
      </trkpt>
      <trkpt lat="43.42282" lon="6.38217">
        <ele>75.3</ele>
        <time>2022-09-28T13:21:22.000Z</time>
      </trkpt>
      <trkpt lat="43.42285" lon="6.38222">
        <ele>73.2</ele>
        <time>2022-09-28T13:24:13.000Z</time>
      </trkpt>
      <trkpt lat="43.42285" lon="6.38229">
        <ele>72.1</ele>
        <time>2022-09-28T13:24:21.000Z</time>
      </trkpt>
      <trkpt lat="43.42285" lon="6.38223">
        <ele>71.1</ele>
        <time>2022-09-28T13:24:48.000Z</time>
      </trkpt>
      <trkpt lat="43.42289" lon="6.3822">
        <ele>71.6</ele>
        <time>2022-09-28T13:25:04.000Z</time>
      </trkpt>
      <trkpt lat="43.42295" lon="6.38222">
        <ele>71.7</ele>
        <time>2022-09-28T13:25:13.000Z</time>
      </trkpt>
      <trkpt lat="43.42297" lon="6.38227">
        <ele>71.7</ele>
        <time>2022-09-28T13:25:17.000Z</time>
      </trkpt>
      <trkpt lat="43.42301" lon="6.3823">
        <ele>71.8</ele>
        <time>2022-09-28T13:25:26.000Z</time>
      </trkpt>
      <trkpt lat="43.42306" lon="6.38231">
        <ele>71</ele>
        <time>2022-09-28T13:25:36.000Z</time>
      </trkpt>
      <trkpt lat="43.4231" lon="6.38233">
        <ele>69.2</ele>
        <time>2022-09-28T13:25:51.000Z</time>
      </trkpt>
      <trkpt lat="43.42308" lon="6.38239">
        <ele>68.8</ele>
        <time>2022-09-28T13:26:07.000Z</time>
      </trkpt>
      <trkpt lat="43.42309" lon="6.38233">
        <ele>68.3</ele>
        <time>2022-09-28T13:26:44.000Z</time>
      </trkpt>
      <trkpt lat="43.42308" lon="6.38226">
        <ele>69.6</ele>
        <time>2022-09-28T13:26:52.000Z</time>
      </trkpt>
      <trkpt lat="43.42304" lon="6.38222">
        <ele>69</ele>
        <time>2022-09-28T13:27:04.000Z</time>
      </trkpt>
      <trkpt lat="43.423" lon="6.38221">
        <ele>71.1</ele>
        <time>2022-09-28T13:27:15.000Z</time>
      </trkpt>
      <trkpt lat="43.42295" lon="6.38223">
        <ele>71.2</ele>
        <time>2022-09-28T13:27:22.000Z</time>
      </trkpt>
      <trkpt lat="43.42311" lon="6.38234">
        <ele>70</ele>
        <time>2022-09-28T13:32:22.000Z</time>
      </trkpt>
      <trkpt lat="43.42302" lon="6.38242">
        <ele>70</ele>
        <time>2022-09-28T13:33:37.000Z</time>
      </trkpt>
      <trkpt lat="43.42299" lon="6.38235">
        <ele>70.6</ele>
        <time>2022-09-28T13:33:43.000Z</time>
      </trkpt>
      <trkpt lat="43.42294" lon="6.38231">
        <ele>69</ele>
        <time>2022-09-28T13:33:48.000Z</time>
      </trkpt>
      <trkpt lat="43.42299" lon="6.38223">
        <ele>69.7</ele>
        <time>2022-09-28T13:33:55.000Z</time>
      </trkpt>
      <trkpt lat="43.42298" lon="6.3823">
        <ele>69.6</ele>
        <time>2022-09-28T13:34:05.000Z</time>
      </trkpt>
      <trkpt lat="43.42297" lon="6.38236">
        <ele>69.5</ele>
        <time>2022-09-28T13:34:09.000Z</time>
      </trkpt>
      <trkpt lat="43.42302" lon="6.38231">
        <ele>65</ele>
        <time>2022-09-28T13:34:41.000Z</time>
      </trkpt>
      <trkpt lat="43.42306" lon="6.38221">
        <ele>67</ele>
        <time>2022-09-28T13:34:44.000Z</time>
      </trkpt>
      <trkpt lat="43.42306" lon="6.38212">
        <ele>66.8</ele>
        <time>2022-09-28T13:34:50.000Z</time>
      </trkpt>
      <trkpt lat="43.4231" lon="6.38206">
        <ele>63.6</ele>
        <time>2022-09-28T13:34:54.000Z</time>
      </trkpt>
      <trkpt lat="43.42308" lon="6.38214">
        <ele>67.5</ele>
        <time>2022-09-28T13:35:02.000Z</time>
      </trkpt>
      <trkpt lat="43.42305" lon="6.38219">
        <ele>69.8</ele>
        <time>2022-09-28T13:35:08.000Z</time>
      </trkpt>
      <trkpt lat="43.42301" lon="6.38222">
        <ele>70</ele>
        <time>2022-09-28T13:35:12.000Z</time>
      </trkpt>
      <trkpt lat="43.42298" lon="6.38228">
        <ele>70.1</ele>
        <time>2022-09-28T13:35:16.000Z</time>
      </trkpt>
      <trkpt lat="43.42295" lon="6.38233">
        <ele>70.1</ele>
        <time>2022-09-28T13:35:20.000Z</time>
      </trkpt>
      <trkpt lat="43.42291" lon="6.38237">
        <ele>70.1</ele>
        <time>2022-09-28T13:35:32.000Z</time>
      </trkpt>
      <trkpt lat="43.42287" lon="6.38241">
        <ele>70.3</ele>
        <time>2022-09-28T13:35:51.000Z</time>
      </trkpt>
      <trkpt lat="43.42291" lon="6.38243">
        <ele>70.3</ele>
        <time>2022-09-28T13:36:13.000Z</time>
      </trkpt>
      <trkpt lat="43.42295" lon="6.38247">
        <ele>70.3</ele>
        <time>2022-09-28T13:36:33.000Z</time>
      </trkpt>
      <trkpt lat="43.4229" lon="6.38245">
        <ele>71.8</ele>
        <time>2022-09-28T13:36:40.000Z</time>
      </trkpt>
      <trkpt lat="43.42288" lon="6.38237">
        <ele>67.7</ele>
        <time>2022-09-28T13:36:48.000Z</time>
      </trkpt>
      <trkpt lat="43.42291" lon="6.38231">
        <ele>70.3</ele>
        <time>2022-09-28T13:36:54.000Z</time>
      </trkpt>
      <trkpt lat="43.42292" lon="6.38222">
        <ele>72.8</ele>
        <time>2022-09-28T13:37:02.000Z</time>
      </trkpt>
      <trkpt lat="43.42289" lon="6.38217">
        <ele>77.5</ele>
        <time>2022-09-28T13:37:39.000Z</time>
      </trkpt>
      <trkpt lat="43.42293" lon="6.38215">
        <ele>80.1</ele>
        <time>2022-09-28T13:38:57.000Z</time>
      </trkpt>
      <trkpt lat="43.42295" lon="6.38209">
        <ele>81.8</ele>
        <time>2022-09-28T13:39:02.000Z</time>
      </trkpt>
      <trkpt lat="43.42294" lon="6.38203">
        <ele>81.8</ele>
        <time>2022-09-28T13:39:13.000Z</time>
      </trkpt>
      <trkpt lat="43.42291" lon="6.38197">
        <ele>82</ele>
        <time>2022-09-28T13:39:22.000Z</time>
      </trkpt>
      <trkpt lat="43.42295" lon="6.38193">
        <ele>84.2</ele>
        <time>2022-09-28T13:39:38.000Z</time>
      </trkpt>
      <trkpt lat="43.42299" lon="6.38192">
        <ele>84.1</ele>
        <time>2022-09-28T13:39:42.000Z</time>
      </trkpt>
      <trkpt lat="43.42304" lon="6.38191">
        <ele>83.8</ele>
        <time>2022-09-28T13:39:46.000Z</time>
      </trkpt>
      <trkpt lat="43.42309" lon="6.38189">
        <ele>84.7</ele>
        <time>2022-09-28T13:39:50.000Z</time>
      </trkpt>
      <trkpt lat="43.42314" lon="6.38189">
        <ele>84.8</ele>
        <time>2022-09-28T13:39:54.000Z</time>
      </trkpt>
      <trkpt lat="43.42319" lon="6.38189">
        <ele>85</ele>
        <time>2022-09-28T13:40:01.000Z</time>
      </trkpt>
      <trkpt lat="43.42324" lon="6.38189">
        <ele>84.9</ele>
        <time>2022-09-28T13:40:07.000Z</time>
      </trkpt>
      <trkpt lat="43.4233" lon="6.38191">
        <ele>84.7</ele>
        <time>2022-09-28T13:40:17.000Z</time>
      </trkpt>
      <trkpt lat="43.42333" lon="6.38195">
        <ele>84.7</ele>
        <time>2022-09-28T13:40:28.000Z</time>
      </trkpt>
      <trkpt lat="43.42338" lon="6.38194">
        <ele>83</ele>
        <time>2022-09-28T13:41:32.000Z</time>
      </trkpt>
      <trkpt lat="43.42343" lon="6.38194">
        <ele>83.1</ele>
        <time>2022-09-28T13:41:57.000Z</time>
      </trkpt>
      <trkpt lat="43.42347" lon="6.38196">
        <ele>83</ele>
        <time>2022-09-28T13:42:02.000Z</time>
      </trkpt>
      <trkpt lat="43.42352" lon="6.38197">
        <ele>82.7</ele>
        <time>2022-09-28T13:42:07.000Z</time>
      </trkpt>
      <trkpt lat="43.42357" lon="6.382">
        <ele>82.8</ele>
        <time>2022-09-28T13:42:10.000Z</time>
      </trkpt>
      <trkpt lat="43.42362" lon="6.38201">
        <ele>82.2</ele>
        <time>2022-09-28T13:42:17.000Z</time>
      </trkpt>
      <trkpt lat="43.42367" lon="6.38205">
        <ele>83</ele>
        <time>2022-09-28T13:42:23.000Z</time>
      </trkpt>
      <trkpt lat="43.42372" lon="6.38206">
        <ele>83.4</ele>
        <time>2022-09-28T13:42:26.000Z</time>
      </trkpt>
      <trkpt lat="43.42377" lon="6.38204">
        <ele>83.6</ele>
        <time>2022-09-28T13:42:32.000Z</time>
      </trkpt>
      <trkpt lat="43.42382" lon="6.38203">
        <ele>83.5</ele>
        <time>2022-09-28T13:42:36.000Z</time>
      </trkpt>
      <trkpt lat="43.42388" lon="6.38201">
        <ele>83.9</ele>
        <time>2022-09-28T13:42:43.000Z</time>
      </trkpt>
      <trkpt lat="43.42393" lon="6.38201">
        <ele>83.4</ele>
        <time>2022-09-28T13:42:48.000Z</time>
      </trkpt>
      <trkpt lat="43.42398" lon="6.38202">
        <ele>83.1</ele>
        <time>2022-09-28T13:42:53.000Z</time>
      </trkpt>
      <trkpt lat="43.42403" lon="6.382">
        <ele>82.3</ele>
        <time>2022-09-28T13:42:56.000Z</time>
      </trkpt>
      <trkpt lat="43.42408" lon="6.38198">
        <ele>82.4</ele>
        <time>2022-09-28T13:43:02.000Z</time>
      </trkpt>
      <trkpt lat="43.4241" lon="6.38204">
        <ele>83.2</ele>
        <time>2022-09-28T13:43:18.000Z</time>
      </trkpt>
      <trkpt lat="43.42413" lon="6.38209">
        <ele>83.5</ele>
        <time>2022-09-28T13:43:44.000Z</time>
      </trkpt>
      <trkpt lat="43.42412" lon="6.38203">
        <ele>83.1</ele>
        <time>2022-09-28T13:44:01.000Z</time>
      </trkpt>
      <trkpt lat="43.42411" lon="6.38196">
        <ele>82.7</ele>
        <time>2022-09-28T13:44:11.000Z</time>
      </trkpt>
      <trkpt lat="43.42407" lon="6.38193">
        <ele>82.4</ele>
        <time>2022-09-28T13:44:51.000Z</time>
      </trkpt>
      <trkpt lat="43.42403" lon="6.38197">
        <ele>82.9</ele>
        <time>2022-09-28T13:45:26.000Z</time>
      </trkpt>
      <trkpt lat="43.42407" lon="6.38195">
        <ele>82.8</ele>
        <time>2022-09-28T13:46:26.000Z</time>
      </trkpt>
      <trkpt lat="43.42403" lon="6.38197">
        <ele>83.2</ele>
        <time>2022-09-28T13:47:37.000Z</time>
      </trkpt>
      <trkpt lat="43.42398" lon="6.38195">
        <ele>82.2</ele>
        <time>2022-09-28T13:48:09.000Z</time>
      </trkpt>
      <trkpt lat="43.42394" lon="6.38194">
        <ele>82.5</ele>
        <time>2022-09-28T13:48:15.000Z</time>
      </trkpt>
      <trkpt lat="43.42389" lon="6.38192">
        <ele>82.8</ele>
        <time>2022-09-28T13:48:25.000Z</time>
      </trkpt>
      <trkpt lat="43.42383" lon="6.38193">
        <ele>82.6</ele>
        <time>2022-09-28T13:48:31.000Z</time>
      </trkpt>
      <trkpt lat="43.42378" lon="6.38194">
        <ele>82.8</ele>
        <time>2022-09-28T13:48:38.000Z</time>
      </trkpt>
      <trkpt lat="43.42375" lon="6.382">
        <ele>83.4</ele>
        <time>2022-09-28T13:48:45.000Z</time>
      </trkpt>
      <trkpt lat="43.42375" lon="6.38207">
        <ele>83.1</ele>
        <time>2022-09-28T13:48:53.000Z</time>
      </trkpt>
      <trkpt lat="43.42372" lon="6.38212">
        <ele>81.6</ele>
        <time>2022-09-28T13:49:03.000Z</time>
      </trkpt>
      <trkpt lat="43.42372" lon="6.38218">
        <ele>81</ele>
        <time>2022-09-28T13:49:15.000Z</time>
      </trkpt>
      <trkpt lat="43.42375" lon="6.38223">
        <ele>81.4</ele>
        <time>2022-09-28T13:49:24.000Z</time>
      </trkpt>
      <trkpt lat="43.42379" lon="6.38227">
        <ele>81.6</ele>
        <time>2022-09-28T13:49:44.000Z</time>
      </trkpt>
      <trkpt lat="43.42383" lon="6.3823">
        <ele>81.8</ele>
        <time>2022-09-28T13:50:16.000Z</time>
      </trkpt>
      <trkpt lat="43.42388" lon="6.38231">
        <ele>82.4</ele>
        <time>2022-09-28T13:51:12.000Z</time>
      </trkpt>
      <trkpt lat="43.42388" lon="6.38237">
        <ele>76.2</ele>
        <time>2022-09-28T13:52:57.000Z</time>
      </trkpt>
      <trkpt lat="43.42385" lon="6.38243">
        <ele>78.7</ele>
        <time>2022-09-28T13:53:02.000Z</time>
      </trkpt>
      <trkpt lat="43.42384" lon="6.3825">
        <ele>80.9</ele>
        <time>2022-09-28T13:53:10.000Z</time>
      </trkpt>
      <trkpt lat="43.42385" lon="6.38258">
        <ele>81.4</ele>
        <time>2022-09-28T13:53:14.000Z</time>
      </trkpt>
      <trkpt lat="43.42383" lon="6.38265">
        <ele>82</ele>
        <time>2022-09-28T13:53:19.000Z</time>
      </trkpt>
      <trkpt lat="43.42379" lon="6.38268">
        <ele>82.3</ele>
        <time>2022-09-28T13:53:24.000Z</time>
      </trkpt>
      <trkpt lat="43.42374" lon="6.38271">
        <ele>82.1</ele>
        <time>2022-09-28T13:53:30.000Z</time>
      </trkpt>
      <trkpt lat="43.4237" lon="6.38274">
        <ele>81.7</ele>
        <time>2022-09-28T13:53:34.000Z</time>
      </trkpt>
      <trkpt lat="43.42367" lon="6.38281">
        <ele>81.1</ele>
        <time>2022-09-28T13:53:40.000Z</time>
      </trkpt>
      <trkpt lat="43.42366" lon="6.38288">
        <ele>80.9</ele>
        <time>2022-09-28T13:53:44.000Z</time>
      </trkpt>
      <trkpt lat="43.42365" lon="6.38295">
        <ele>80.9</ele>
        <time>2022-09-28T13:53:47.000Z</time>
      </trkpt>
      <trkpt lat="43.42364" lon="6.38301">
        <ele>80.5</ele>
        <time>2022-09-28T13:53:51.000Z</time>
      </trkpt>
      <trkpt lat="43.42364" lon="6.38308">
        <ele>80.3</ele>
        <time>2022-09-28T13:53:55.000Z</time>
      </trkpt>
      <trkpt lat="43.42366" lon="6.38315">
        <ele>80.1</ele>
        <time>2022-09-28T13:53:59.000Z</time>
      </trkpt>
      <trkpt lat="43.42368" lon="6.38321">
        <ele>79.5</ele>
        <time>2022-09-28T13:54:02.000Z</time>
      </trkpt>
      <trkpt lat="43.42372" lon="6.38326">
        <ele>79</ele>
        <time>2022-09-28T13:54:05.000Z</time>
      </trkpt>
      <trkpt lat="43.42375" lon="6.38331">
        <ele>78.7</ele>
        <time>2022-09-28T13:54:08.000Z</time>
      </trkpt>
      <trkpt lat="43.42375" lon="6.38338">
        <ele>78.1</ele>
        <time>2022-09-28T13:54:12.000Z</time>
      </trkpt>
      <trkpt lat="43.42375" lon="6.38345">
        <ele>77.1</ele>
        <time>2022-09-28T13:54:18.000Z</time>
      </trkpt>
      <trkpt lat="43.42377" lon="6.38351">
        <ele>77</ele>
        <time>2022-09-28T13:54:23.000Z</time>
      </trkpt>
      <trkpt lat="43.42377" lon="6.38358">
        <ele>77</ele>
        <time>2022-09-28T13:54:28.000Z</time>
      </trkpt>
      <trkpt lat="43.42376" lon="6.38366">
        <ele>76.9</ele>
        <time>2022-09-28T13:54:33.000Z</time>
      </trkpt>
      <trkpt lat="43.42375" lon="6.38373">
        <ele>77</ele>
        <time>2022-09-28T13:54:38.000Z</time>
      </trkpt>
      <trkpt lat="43.42372" lon="6.38377">
        <ele>76.3</ele>
        <time>2022-09-28T13:54:43.000Z</time>
      </trkpt>
      <trkpt lat="43.42367" lon="6.38383">
        <ele>75.3</ele>
        <time>2022-09-28T13:54:49.000Z</time>
      </trkpt>
      <trkpt lat="43.42364" lon="6.38388">
        <ele>74.9</ele>
        <time>2022-09-28T13:54:54.000Z</time>
      </trkpt>
      <trkpt lat="43.42359" lon="6.38391">
        <ele>74.5</ele>
        <time>2022-09-28T13:54:59.000Z</time>
      </trkpt>
      <trkpt lat="43.42353" lon="6.38392">
        <ele>74.2</ele>
        <time>2022-09-28T13:55:03.000Z</time>
      </trkpt>
      <trkpt lat="43.42348" lon="6.38392">
        <ele>74.3</ele>
        <time>2022-09-28T13:55:07.000Z</time>
      </trkpt>
      <trkpt lat="43.42344" lon="6.38391">
        <ele>74.1</ele>
        <time>2022-09-28T13:55:12.000Z</time>
      </trkpt>
      <trkpt lat="43.42338" lon="6.38391">
        <ele>73.6</ele>
        <time>2022-09-28T13:55:16.000Z</time>
      </trkpt>
      <trkpt lat="43.42334" lon="6.38389">
        <ele>73.5</ele>
        <time>2022-09-28T13:55:21.000Z</time>
      </trkpt>
      <trkpt lat="43.4233" lon="6.38393">
        <ele>73.3</ele>
        <time>2022-09-28T13:55:26.000Z</time>
      </trkpt>
      <trkpt lat="43.42326" lon="6.38399">
        <ele>73.3</ele>
        <time>2022-09-28T13:55:31.000Z</time>
      </trkpt>
      <trkpt lat="43.42324" lon="6.38406">
        <ele>73.5</ele>
        <time>2022-09-28T13:55:35.000Z</time>
      </trkpt>
      <trkpt lat="43.42323" lon="6.38413">
        <ele>72.8</ele>
        <time>2022-09-28T13:55:39.000Z</time>
      </trkpt>
      <trkpt lat="43.42323" lon="6.38419">
        <ele>73</ele>
        <time>2022-09-28T13:55:43.000Z</time>
      </trkpt>
      <trkpt lat="43.42321" lon="6.38426">
        <ele>73.2</ele>
        <time>2022-09-28T13:55:46.000Z</time>
      </trkpt>
      <trkpt lat="43.4232" lon="6.38433">
        <ele>73.6</ele>
        <time>2022-09-28T13:55:49.000Z</time>
      </trkpt>
      <trkpt lat="43.42317" lon="6.38438">
        <ele>74</ele>
        <time>2022-09-28T13:55:53.000Z</time>
      </trkpt>
      <trkpt lat="43.42316" lon="6.38445">
        <ele>74</ele>
        <time>2022-09-28T13:55:57.000Z</time>
      </trkpt>
      <trkpt lat="43.42314" lon="6.38453">
        <ele>73.6</ele>
        <time>2022-09-28T13:56:00.000Z</time>
      </trkpt>
      <trkpt lat="43.42313" lon="6.38461">
        <ele>73.7</ele>
        <time>2022-09-28T13:56:03.000Z</time>
      </trkpt>
      <trkpt lat="43.42311" lon="6.38467">
        <ele>73.8</ele>
        <time>2022-09-28T13:56:07.000Z</time>
      </trkpt>
      <trkpt lat="43.42311" lon="6.38474">
        <ele>73.3</ele>
        <time>2022-09-28T13:56:11.000Z</time>
      </trkpt>
      <trkpt lat="43.4231" lon="6.38483">
        <ele>72.9</ele>
        <time>2022-09-28T13:56:14.000Z</time>
      </trkpt>
      <trkpt lat="43.42311" lon="6.3849">
        <ele>72.9</ele>
        <time>2022-09-28T13:56:18.000Z</time>
      </trkpt>
      <trkpt lat="43.42313" lon="6.38497">
        <ele>72.6</ele>
        <time>2022-09-28T13:56:22.000Z</time>
      </trkpt>
      <trkpt lat="43.42313" lon="6.38504">
        <ele>72.8</ele>
        <time>2022-09-28T13:56:25.000Z</time>
      </trkpt>
      <trkpt lat="43.42311" lon="6.38512">
        <ele>73.3</ele>
        <time>2022-09-28T13:56:28.000Z</time>
      </trkpt>
      <trkpt lat="43.42311" lon="6.38518">
        <ele>73.3</ele>
        <time>2022-09-28T13:56:32.000Z</time>
      </trkpt>
      <trkpt lat="43.42311" lon="6.38525">
        <ele>73</ele>
        <time>2022-09-28T13:56:35.000Z</time>
      </trkpt>
      <trkpt lat="43.42311" lon="6.38532">
        <ele>73.2</ele>
        <time>2022-09-28T13:56:38.000Z</time>
      </trkpt>
      <trkpt lat="43.42312" lon="6.38538">
        <ele>73.1</ele>
        <time>2022-09-28T13:56:42.000Z</time>
      </trkpt>
      <trkpt lat="43.42313" lon="6.38546">
        <ele>73.2</ele>
        <time>2022-09-28T13:56:46.000Z</time>
      </trkpt>
      <trkpt lat="43.42315" lon="6.38554">
        <ele>73.2</ele>
        <time>2022-09-28T13:56:49.000Z</time>
      </trkpt>
      <trkpt lat="43.42317" lon="6.38561">
        <ele>73.3</ele>
        <time>2022-09-28T13:56:54.000Z</time>
      </trkpt>
      <trkpt lat="43.42319" lon="6.38567">
        <ele>72.9</ele>
        <time>2022-09-28T13:56:58.000Z</time>
      </trkpt>
      <trkpt lat="43.42322" lon="6.38572">
        <ele>72.4</ele>
        <time>2022-09-28T13:57:01.000Z</time>
      </trkpt>
      <trkpt lat="43.42323" lon="6.38579">
        <ele>72.5</ele>
        <time>2022-09-28T13:57:05.000Z</time>
      </trkpt>
      <trkpt lat="43.42326" lon="6.38586">
        <ele>72.2</ele>
        <time>2022-09-28T13:57:10.000Z</time>
      </trkpt>
      <trkpt lat="43.42329" lon="6.38592">
        <ele>72.2</ele>
        <time>2022-09-28T13:57:13.000Z</time>
      </trkpt>
      <trkpt lat="43.42332" lon="6.38598">
        <ele>72.1</ele>
        <time>2022-09-28T13:57:19.000Z</time>
      </trkpt>
      <trkpt lat="43.42335" lon="6.38603">
        <ele>72.3</ele>
        <time>2022-09-28T13:57:22.000Z</time>
      </trkpt>
      <trkpt lat="43.42336" lon="6.3861">
        <ele>72.3</ele>
        <time>2022-09-28T13:57:26.000Z</time>
      </trkpt>
      <trkpt lat="43.42341" lon="6.38613">
        <ele>71.7</ele>
        <time>2022-09-28T13:57:30.000Z</time>
      </trkpt>
      <trkpt lat="43.42344" lon="6.38619">
        <ele>72.1</ele>
        <time>2022-09-28T13:57:33.000Z</time>
      </trkpt>
      <trkpt lat="43.42349" lon="6.38621">
        <ele>72.1</ele>
        <time>2022-09-28T13:57:38.000Z</time>
      </trkpt>
      <trkpt lat="43.42353" lon="6.38625">
        <ele>72.3</ele>
        <time>2022-09-28T13:57:42.000Z</time>
      </trkpt>
      <trkpt lat="43.42358" lon="6.38628">
        <ele>72.4</ele>
        <time>2022-09-28T13:57:47.000Z</time>
      </trkpt>
      <trkpt lat="43.42362" lon="6.38631">
        <ele>71.9</ele>
        <time>2022-09-28T13:57:50.000Z</time>
      </trkpt>
      <trkpt lat="43.42367" lon="6.38632">
        <ele>71.9</ele>
        <time>2022-09-28T13:57:54.000Z</time>
      </trkpt>
      <trkpt lat="43.42372" lon="6.38636">
        <ele>72.1</ele>
        <time>2022-09-28T13:57:58.000Z</time>
      </trkpt>
      <trkpt lat="43.42377" lon="6.38636">
        <ele>71.7</ele>
        <time>2022-09-28T13:58:02.000Z</time>
      </trkpt>
      <trkpt lat="43.42382" lon="6.38638">
        <ele>71.8</ele>
        <time>2022-09-28T13:58:07.000Z</time>
      </trkpt>
      <trkpt lat="43.42387" lon="6.38641">
        <ele>72.2</ele>
        <time>2022-09-28T13:58:13.000Z</time>
      </trkpt>
      <trkpt lat="43.42392" lon="6.38641">
        <ele>72.3</ele>
        <time>2022-09-28T13:58:19.000Z</time>
      </trkpt>
      <trkpt lat="43.42397" lon="6.38638">
        <ele>73</ele>
        <time>2022-09-28T13:58:26.000Z</time>
      </trkpt>
      <trkpt lat="43.42403" lon="6.38635">
        <ele>73.1</ele>
        <time>2022-09-28T13:58:29.000Z</time>
      </trkpt>
      <trkpt lat="43.42409" lon="6.38631">
        <ele>72.9</ele>
        <time>2022-09-28T13:58:32.000Z</time>
      </trkpt>
      <trkpt lat="43.42414" lon="6.38628">
        <ele>73.1</ele>
        <time>2022-09-28T13:58:35.000Z</time>
      </trkpt>
      <trkpt lat="43.42418" lon="6.38625">
        <ele>72.9</ele>
        <time>2022-09-28T13:58:38.000Z</time>
      </trkpt>
      <trkpt lat="43.42422" lon="6.38622">
        <ele>72.9</ele>
        <time>2022-09-28T13:58:40.000Z</time>
      </trkpt>
      <trkpt lat="43.42426" lon="6.38619">
        <ele>72.9</ele>
        <time>2022-09-28T13:58:42.000Z</time>
      </trkpt>
      <trkpt lat="43.42431" lon="6.38614">
        <ele>72.7</ele>
        <time>2022-09-28T13:58:47.000Z</time>
      </trkpt>
      <trkpt lat="43.42435" lon="6.38609">
        <ele>73.1</ele>
        <time>2022-09-28T13:58:50.000Z</time>
      </trkpt>
      <trkpt lat="43.4244" lon="6.38605">
        <ele>73</ele>
        <time>2022-09-28T13:58:55.000Z</time>
      </trkpt>
      <trkpt lat="43.42443" lon="6.38598">
        <ele>73.5</ele>
        <time>2022-09-28T13:59:00.000Z</time>
      </trkpt>
      <trkpt lat="43.42444" lon="6.38591">
        <ele>73.7</ele>
        <time>2022-09-28T13:59:05.000Z</time>
      </trkpt>
      <trkpt lat="43.42447" lon="6.38586">
        <ele>73.6</ele>
        <time>2022-09-28T13:59:16.000Z</time>
      </trkpt>
      <trkpt lat="43.42451" lon="6.38582">
        <ele>74.1</ele>
        <time>2022-09-28T13:59:27.000Z</time>
      </trkpt>
      <trkpt lat="43.42454" lon="6.38577">
        <ele>74.1</ele>
        <time>2022-09-28T13:59:38.000Z</time>
      </trkpt>
      <trkpt lat="43.42458" lon="6.38573">
        <ele>74.3</ele>
        <time>2022-09-28T13:59:43.000Z</time>
      </trkpt>
      <trkpt lat="43.42462" lon="6.38572">
        <ele>73.9</ele>
        <time>2022-09-28T13:59:46.000Z</time>
      </trkpt>
      <trkpt lat="43.42467" lon="6.38571">
        <ele>74.1</ele>
        <time>2022-09-28T13:59:52.000Z</time>
      </trkpt>
      <trkpt lat="43.42471" lon="6.38571">
        <ele>73.8</ele>
        <time>2022-09-28T14:00:00.000Z</time>
      </trkpt>
      <trkpt lat="43.42477" lon="6.3857">
        <ele>73.5</ele>
        <time>2022-09-28T14:00:06.000Z</time>
      </trkpt>
      <trkpt lat="43.42482" lon="6.38568">
        <ele>73.7</ele>
        <time>2022-09-28T14:00:11.000Z</time>
      </trkpt>
      <trkpt lat="43.42487" lon="6.38567">
        <ele>73.4</ele>
        <time>2022-09-28T14:00:15.000Z</time>
      </trkpt>
      <trkpt lat="43.42492" lon="6.38565">
        <ele>73.5</ele>
        <time>2022-09-28T14:00:20.000Z</time>
      </trkpt>
      <trkpt lat="43.42497" lon="6.38564">
        <ele>73.5</ele>
        <time>2022-09-28T14:00:24.000Z</time>
      </trkpt>
      <trkpt lat="43.42502" lon="6.38561">
        <ele>73.3</ele>
        <time>2022-09-28T14:00:30.000Z</time>
      </trkpt>
      <trkpt lat="43.42507" lon="6.38558">
        <ele>73.3</ele>
        <time>2022-09-28T14:00:35.000Z</time>
      </trkpt>
      <trkpt lat="43.42513" lon="6.38556">
        <ele>73.3</ele>
        <time>2022-09-28T14:00:38.000Z</time>
      </trkpt>
      <trkpt lat="43.42517" lon="6.38554">
        <ele>73.3</ele>
        <time>2022-09-28T14:00:42.000Z</time>
      </trkpt>
      <trkpt lat="43.42521" lon="6.38551">
        <ele>73.2</ele>
        <time>2022-09-28T14:00:45.000Z</time>
      </trkpt>
      <trkpt lat="43.42527" lon="6.3855">
        <ele>73.2</ele>
        <time>2022-09-28T14:00:49.000Z</time>
      </trkpt>
      <trkpt lat="43.42533" lon="6.38547">
        <ele>72.9</ele>
        <time>2022-09-28T14:00:54.000Z</time>
      </trkpt>
      <trkpt lat="43.42537" lon="6.38544">
        <ele>73</ele>
        <time>2022-09-28T14:01:00.000Z</time>
      </trkpt>
      <trkpt lat="43.42542" lon="6.38542">
        <ele>73.1</ele>
        <time>2022-09-28T14:01:07.000Z</time>
      </trkpt>
      <trkpt lat="43.42547" lon="6.38542">
        <ele>73</ele>
        <time>2022-09-28T14:01:13.000Z</time>
      </trkpt>
      <trkpt lat="43.42552" lon="6.3854">
        <ele>73.1</ele>
        <time>2022-09-28T14:01:17.000Z</time>
      </trkpt>
      <trkpt lat="43.42556" lon="6.38537">
        <ele>73.1</ele>
        <time>2022-09-28T14:01:21.000Z</time>
      </trkpt>
      <trkpt lat="43.42561" lon="6.38535">
        <ele>73</ele>
        <time>2022-09-28T14:01:27.000Z</time>
      </trkpt>
      <trkpt lat="43.42566" lon="6.38533">
        <ele>73.1</ele>
        <time>2022-09-28T14:01:33.000Z</time>
      </trkpt>
      <trkpt lat="43.4257" lon="6.3853">
        <ele>73</ele>
        <time>2022-09-28T14:01:38.000Z</time>
      </trkpt>
      <trkpt lat="43.42575" lon="6.38529">
        <ele>73.4</ele>
        <time>2022-09-28T14:01:48.000Z</time>
      </trkpt>
      <trkpt lat="43.4258" lon="6.38528">
        <ele>73.4</ele>
        <time>2022-09-28T14:01:54.000Z</time>
      </trkpt>
      <trkpt lat="43.42585" lon="6.38528">
        <ele>73.3</ele>
        <time>2022-09-28T14:02:00.000Z</time>
      </trkpt>
      <trkpt lat="43.42589" lon="6.38528">
        <ele>73.3</ele>
        <time>2022-09-28T14:02:04.000Z</time>
      </trkpt>
      <trkpt lat="43.42594" lon="6.38528">
        <ele>73.3</ele>
        <time>2022-09-28T14:02:09.000Z</time>
      </trkpt>
      <trkpt lat="43.42598" lon="6.3853">
        <ele>73.3</ele>
        <time>2022-09-28T14:02:15.000Z</time>
      </trkpt>
      <trkpt lat="43.42604" lon="6.38526">
        <ele>73</ele>
        <time>2022-09-28T14:02:18.000Z</time>
      </trkpt>
      <trkpt lat="43.42609" lon="6.38523">
        <ele>73.1</ele>
        <time>2022-09-28T14:02:21.000Z</time>
      </trkpt>
      <trkpt lat="43.42614" lon="6.38523">
        <ele>73.4</ele>
        <time>2022-09-28T14:02:28.000Z</time>
      </trkpt>
      <trkpt lat="43.42619" lon="6.38521">
        <ele>73.3</ele>
        <time>2022-09-28T14:02:33.000Z</time>
      </trkpt>
      <trkpt lat="43.42624" lon="6.38521">
        <ele>73.7</ele>
        <time>2022-09-28T14:02:38.000Z</time>
      </trkpt>
      <trkpt lat="43.42629" lon="6.38521">
        <ele>73.9</ele>
        <time>2022-09-28T14:02:43.000Z</time>
      </trkpt>
      <trkpt lat="43.42635" lon="6.38521">
        <ele>73.6</ele>
        <time>2022-09-28T14:02:48.000Z</time>
      </trkpt>
      <trkpt lat="43.42639" lon="6.38519">
        <ele>73.7</ele>
        <time>2022-09-28T14:02:51.000Z</time>
      </trkpt>
      <trkpt lat="43.42645" lon="6.38518">
        <ele>73.6</ele>
        <time>2022-09-28T14:02:55.000Z</time>
      </trkpt>
      <trkpt lat="43.4265" lon="6.38515">
        <ele>73.4</ele>
        <time>2022-09-28T14:03:00.000Z</time>
      </trkpt>
      <trkpt lat="43.42656" lon="6.38515">
        <ele>73.6</ele>
        <time>2022-09-28T14:03:03.000Z</time>
      </trkpt>
      <trkpt lat="43.42661" lon="6.38514">
        <ele>73.2</ele>
        <time>2022-09-28T14:03:09.000Z</time>
      </trkpt>
      <trkpt lat="43.42666" lon="6.38513">
        <ele>73.4</ele>
        <time>2022-09-28T14:03:16.000Z</time>
      </trkpt>
      <trkpt lat="43.42672" lon="6.38513">
        <ele>73</ele>
        <time>2022-09-28T14:03:21.000Z</time>
      </trkpt>
      <trkpt lat="43.42677" lon="6.38515">
        <ele>72.8</ele>
        <time>2022-09-28T14:03:27.000Z</time>
      </trkpt>
      <trkpt lat="43.42682" lon="6.38516">
        <ele>73</ele>
        <time>2022-09-28T14:03:31.000Z</time>
      </trkpt>
      <trkpt lat="43.42686" lon="6.38517">
        <ele>72.7</ele>
        <time>2022-09-28T14:03:36.000Z</time>
      </trkpt>
      <trkpt lat="43.42692" lon="6.38517">
        <ele>72.9</ele>
        <time>2022-09-28T14:03:40.000Z</time>
      </trkpt>
      <trkpt lat="43.42696" lon="6.38521">
        <ele>73.1</ele>
        <time>2022-09-28T14:03:46.000Z</time>
      </trkpt>
      <trkpt lat="43.42701" lon="6.38522">
        <ele>73</ele>
        <time>2022-09-28T14:03:49.000Z</time>
      </trkpt>
      <trkpt lat="43.42706" lon="6.38521">
        <ele>72.9</ele>
        <time>2022-09-28T14:03:52.000Z</time>
      </trkpt>
      <trkpt lat="43.42711" lon="6.3852">
        <ele>73.2</ele>
        <time>2022-09-28T14:03:55.000Z</time>
      </trkpt>
      <trkpt lat="43.42717" lon="6.38521">
        <ele>73.1</ele>
        <time>2022-09-28T14:03:59.000Z</time>
      </trkpt>
      <trkpt lat="43.42722" lon="6.3852">
        <ele>73.3</ele>
        <time>2022-09-28T14:04:02.000Z</time>
      </trkpt>
      <trkpt lat="43.42728" lon="6.3852">
        <ele>73.2</ele>
        <time>2022-09-28T14:04:08.000Z</time>
      </trkpt>
      <trkpt lat="43.42733" lon="6.38519">
        <ele>73.5</ele>
        <time>2022-09-28T14:04:11.000Z</time>
      </trkpt>
      <trkpt lat="43.42737" lon="6.38521">
        <ele>73.2</ele>
        <time>2022-09-28T14:04:17.000Z</time>
      </trkpt>
      <trkpt lat="43.42742" lon="6.38524">
        <ele>73.2</ele>
        <time>2022-09-28T14:04:22.000Z</time>
      </trkpt>
      <trkpt lat="43.42748" lon="6.38525">
        <ele>73.2</ele>
        <time>2022-09-28T14:04:26.000Z</time>
      </trkpt>
      <trkpt lat="43.42752" lon="6.38529">
        <ele>73.3</ele>
        <time>2022-09-28T14:04:31.000Z</time>
      </trkpt>
      <trkpt lat="43.42757" lon="6.38532">
        <ele>73.1</ele>
        <time>2022-09-28T14:04:36.000Z</time>
      </trkpt>
      <trkpt lat="43.42761" lon="6.38537">
        <ele>73.2</ele>
        <time>2022-09-28T14:04:42.000Z</time>
      </trkpt>
      <trkpt lat="43.42766" lon="6.38538">
        <ele>73.3</ele>
        <time>2022-09-28T14:04:44.000Z</time>
      </trkpt>
      <trkpt lat="43.42771" lon="6.38541">
        <ele>73.1</ele>
        <time>2022-09-28T14:04:48.000Z</time>
      </trkpt>
      <trkpt lat="43.42776" lon="6.38542">
        <ele>73.1</ele>
        <time>2022-09-28T14:04:52.000Z</time>
      </trkpt>
      <trkpt lat="43.42781" lon="6.38544">
        <ele>73</ele>
        <time>2022-09-28T14:04:58.000Z</time>
      </trkpt>
      <trkpt lat="43.42787" lon="6.38548">
        <ele>73.1</ele>
        <time>2022-09-28T14:05:01.000Z</time>
      </trkpt>
      <trkpt lat="43.42791" lon="6.38551">
        <ele>73.1</ele>
        <time>2022-09-28T14:05:06.000Z</time>
      </trkpt>
      <trkpt lat="43.42795" lon="6.38554">
        <ele>73.2</ele>
        <time>2022-09-28T14:05:11.000Z</time>
      </trkpt>
      <trkpt lat="43.428" lon="6.38557">
        <ele>73</ele>
        <time>2022-09-28T14:05:16.000Z</time>
      </trkpt>
      <trkpt lat="43.42803" lon="6.38561">
        <ele>73.2</ele>
        <time>2022-09-28T14:05:19.000Z</time>
      </trkpt>
      <trkpt lat="43.42808" lon="6.38563">
        <ele>73.4</ele>
        <time>2022-09-28T14:05:24.000Z</time>
      </trkpt>
      <trkpt lat="43.42813" lon="6.38565">
        <ele>73.6</ele>
        <time>2022-09-28T14:05:30.000Z</time>
      </trkpt>
      <trkpt lat="43.42818" lon="6.3857">
        <ele>73.5</ele>
        <time>2022-09-28T14:05:35.000Z</time>
      </trkpt>
      <trkpt lat="43.42822" lon="6.38575">
        <ele>73.4</ele>
        <time>2022-09-28T14:05:40.000Z</time>
      </trkpt>
      <trkpt lat="43.42825" lon="6.3858">
        <ele>73.4</ele>
        <time>2022-09-28T14:05:44.000Z</time>
      </trkpt>
      <trkpt lat="43.4283" lon="6.38584">
        <ele>73</ele>
        <time>2022-09-28T14:05:50.000Z</time>
      </trkpt>
      <trkpt lat="43.42833" lon="6.38589">
        <ele>72.8</ele>
        <time>2022-09-28T14:05:56.000Z</time>
      </trkpt>
      <trkpt lat="43.42838" lon="6.3859">
        <ele>72.8</ele>
        <time>2022-09-28T14:06:00.000Z</time>
      </trkpt>
      <trkpt lat="43.42842" lon="6.38594">
        <ele>73</ele>
        <time>2022-09-28T14:06:05.000Z</time>
      </trkpt>
      <trkpt lat="43.42847" lon="6.38597">
        <ele>72.9</ele>
        <time>2022-09-28T14:06:09.000Z</time>
      </trkpt>
      <trkpt lat="43.42851" lon="6.38602">
        <ele>72.2</ele>
        <time>2022-09-28T14:06:15.000Z</time>
      </trkpt>
      <trkpt lat="43.42856" lon="6.38606">
        <ele>71.9</ele>
        <time>2022-09-28T14:06:19.000Z</time>
      </trkpt>
      <trkpt lat="43.42862" lon="6.38608">
        <ele>71.9</ele>
        <time>2022-09-28T14:06:22.000Z</time>
      </trkpt>
      <trkpt lat="43.42866" lon="6.38612">
        <ele>71.7</ele>
        <time>2022-09-28T14:06:27.000Z</time>
      </trkpt>
      <trkpt lat="43.4287" lon="6.38615">
        <ele>72</ele>
        <time>2022-09-28T14:06:30.000Z</time>
      </trkpt>
      <trkpt lat="43.42875" lon="6.38618">
        <ele>72.2</ele>
        <time>2022-09-28T14:06:36.000Z</time>
      </trkpt>
      <trkpt lat="43.4288" lon="6.3862">
        <ele>72.1</ele>
        <time>2022-09-28T14:06:39.000Z</time>
      </trkpt>
      <trkpt lat="43.42884" lon="6.38625">
        <ele>71.9</ele>
        <time>2022-09-28T14:06:44.000Z</time>
      </trkpt>
      <trkpt lat="43.42889" lon="6.38629">
        <ele>71.7</ele>
        <time>2022-09-28T14:06:48.000Z</time>
      </trkpt>
      <trkpt lat="43.42894" lon="6.38632">
        <ele>71.4</ele>
        <time>2022-09-28T14:06:53.000Z</time>
      </trkpt>
      <trkpt lat="43.42897" lon="6.38638">
        <ele>71.4</ele>
        <time>2022-09-28T14:06:57.000Z</time>
      </trkpt>
      <trkpt lat="43.42903" lon="6.3864">
        <ele>71</ele>
        <time>2022-09-28T14:07:01.000Z</time>
      </trkpt>
      <trkpt lat="43.42904" lon="6.38646">
        <ele>71.4</ele>
        <time>2022-09-28T14:07:06.000Z</time>
      </trkpt>
      <trkpt lat="43.42909" lon="6.38651">
        <ele>71.1</ele>
        <time>2022-09-28T14:07:12.000Z</time>
      </trkpt>
      <trkpt lat="43.42913" lon="6.38656">
        <ele>71.5</ele>
        <time>2022-09-28T14:07:17.000Z</time>
      </trkpt>
      <trkpt lat="43.42916" lon="6.38663">
        <ele>71.4</ele>
        <time>2022-09-28T14:07:21.000Z</time>
      </trkpt>
      <trkpt lat="43.42921" lon="6.38665">
        <ele>71.8</ele>
        <time>2022-09-28T14:07:27.000Z</time>
      </trkpt>
      <trkpt lat="43.42926" lon="6.38669">
        <ele>72.1</ele>
        <time>2022-09-28T14:07:31.000Z</time>
      </trkpt>
      <trkpt lat="43.4293" lon="6.38669">
        <ele>72.1</ele>
        <time>2022-09-28T14:07:35.000Z</time>
      </trkpt>
      <trkpt lat="43.42934" lon="6.38675">
        <ele>72.4</ele>
        <time>2022-09-28T14:07:39.000Z</time>
      </trkpt>
      <trkpt lat="43.42939" lon="6.38675">
        <ele>72.5</ele>
        <time>2022-09-28T14:07:43.000Z</time>
      </trkpt>
      <trkpt lat="43.42943" lon="6.38681">
        <ele>72.2</ele>
        <time>2022-09-28T14:07:47.000Z</time>
      </trkpt>
      <trkpt lat="43.42949" lon="6.38683">
        <ele>71.8</ele>
        <time>2022-09-28T14:07:52.000Z</time>
      </trkpt>
      <trkpt lat="43.42952" lon="6.38688">
        <ele>71.9</ele>
        <time>2022-09-28T14:07:55.000Z</time>
      </trkpt>
      <trkpt lat="43.42957" lon="6.3869">
        <ele>72.4</ele>
        <time>2022-09-28T14:08:00.000Z</time>
      </trkpt>
      <trkpt lat="43.42961" lon="6.38693">
        <ele>72.2</ele>
        <time>2022-09-28T14:08:03.000Z</time>
      </trkpt>
      <trkpt lat="43.42964" lon="6.38698">
        <ele>72.8</ele>
        <time>2022-09-28T14:08:09.000Z</time>
      </trkpt>
      <trkpt lat="43.42968" lon="6.38702">
        <ele>72.6</ele>
        <time>2022-09-28T14:08:13.000Z</time>
      </trkpt>
      <trkpt lat="43.42971" lon="6.38707">
        <ele>72.7</ele>
        <time>2022-09-28T14:08:19.000Z</time>
      </trkpt>
      <trkpt lat="43.42976" lon="6.38708">
        <ele>72.9</ele>
        <time>2022-09-28T14:08:24.000Z</time>
      </trkpt>
      <trkpt lat="43.42982" lon="6.38712">
        <ele>73.1</ele>
        <time>2022-09-28T14:08:29.000Z</time>
      </trkpt>
      <trkpt lat="43.42988" lon="6.38714">
        <ele>73.2</ele>
        <time>2022-09-28T14:08:33.000Z</time>
      </trkpt>
      <trkpt lat="43.42994" lon="6.38716">
        <ele>73.3</ele>
        <time>2022-09-28T14:08:36.000Z</time>
      </trkpt>
      <trkpt lat="43.42997" lon="6.38723">
        <ele>73.3</ele>
        <time>2022-09-28T14:08:40.000Z</time>
      </trkpt>
      <trkpt lat="43.43001" lon="6.38728">
        <ele>73.4</ele>
        <time>2022-09-28T14:08:46.000Z</time>
      </trkpt>
      <trkpt lat="43.43005" lon="6.38733">
        <ele>73.4</ele>
        <time>2022-09-28T14:08:50.000Z</time>
      </trkpt>
      <trkpt lat="43.43009" lon="6.38737">
        <ele>73.6</ele>
        <time>2022-09-28T14:08:54.000Z</time>
      </trkpt>
      <trkpt lat="43.43013" lon="6.38741">
        <ele>73.3</ele>
        <time>2022-09-28T14:08:58.000Z</time>
      </trkpt>
      <trkpt lat="43.43014" lon="6.38747">
        <ele>73.6</ele>
        <time>2022-09-28T14:09:01.000Z</time>
      </trkpt>
      <trkpt lat="43.4302" lon="6.3875">
        <ele>74.1</ele>
        <time>2022-09-28T14:09:06.000Z</time>
      </trkpt>
      <trkpt lat="43.43023" lon="6.38754">
        <ele>74.1</ele>
        <time>2022-09-28T14:09:09.000Z</time>
      </trkpt>
      <trkpt lat="43.43027" lon="6.38758">
        <ele>74.4</ele>
        <time>2022-09-28T14:09:13.000Z</time>
      </trkpt>
      <trkpt lat="43.4303" lon="6.38764">
        <ele>74.2</ele>
        <time>2022-09-28T14:09:17.000Z</time>
      </trkpt>
      <trkpt lat="43.43032" lon="6.3877">
        <ele>74.1</ele>
        <time>2022-09-28T14:09:20.000Z</time>
      </trkpt>
      <trkpt lat="43.43034" lon="6.38777">
        <ele>73.7</ele>
        <time>2022-09-28T14:09:26.000Z</time>
      </trkpt>
      <trkpt lat="43.43038" lon="6.38782">
        <ele>74.1</ele>
        <time>2022-09-28T14:09:31.000Z</time>
      </trkpt>
      <trkpt lat="43.43041" lon="6.38787">
        <ele>74.3</ele>
        <time>2022-09-28T14:09:36.000Z</time>
      </trkpt>
      <trkpt lat="43.43045" lon="6.3879">
        <ele>74.4</ele>
        <time>2022-09-28T14:09:39.000Z</time>
      </trkpt>
      <trkpt lat="43.43045" lon="6.38798">
        <ele>74.7</ele>
        <time>2022-09-28T14:09:43.000Z</time>
      </trkpt>
      <trkpt lat="43.43048" lon="6.38804">
        <ele>74.5</ele>
        <time>2022-09-28T14:09:47.000Z</time>
      </trkpt>
      <trkpt lat="43.43051" lon="6.3881">
        <ele>74.7</ele>
        <time>2022-09-28T14:09:51.000Z</time>
      </trkpt>
      <trkpt lat="43.43055" lon="6.38814">
        <ele>74.8</ele>
        <time>2022-09-28T14:09:54.000Z</time>
      </trkpt>
      <trkpt lat="43.43057" lon="6.3882">
        <ele>74.7</ele>
        <time>2022-09-28T14:09:57.000Z</time>
      </trkpt>
      <trkpt lat="43.4306" lon="6.38826">
        <ele>74.9</ele>
        <time>2022-09-28T14:10:02.000Z</time>
      </trkpt>
      <trkpt lat="43.43064" lon="6.3883">
        <ele>75.1</ele>
        <time>2022-09-28T14:10:05.000Z</time>
      </trkpt>
      <trkpt lat="43.43065" lon="6.38836">
        <ele>75.4</ele>
        <time>2022-09-28T14:10:11.000Z</time>
      </trkpt>
      <trkpt lat="43.43067" lon="6.38843">
        <ele>75.6</ele>
        <time>2022-09-28T14:10:15.000Z</time>
      </trkpt>
      <trkpt lat="43.4307" lon="6.38848">
        <ele>75.6</ele>
        <time>2022-09-28T14:10:19.000Z</time>
      </trkpt>
      <trkpt lat="43.43069" lon="6.38855">
        <ele>76</ele>
        <time>2022-09-28T14:10:22.000Z</time>
      </trkpt>
      <trkpt lat="43.4307" lon="6.38861">
        <ele>76.2</ele>
        <time>2022-09-28T14:10:27.000Z</time>
      </trkpt>
      <trkpt lat="43.43073" lon="6.38867">
        <ele>76.4</ele>
        <time>2022-09-28T14:10:32.000Z</time>
      </trkpt>
      <trkpt lat="43.43078" lon="6.38871">
        <ele>76.4</ele>
        <time>2022-09-28T14:10:36.000Z</time>
      </trkpt>
      <trkpt lat="43.43079" lon="6.38877">
        <ele>76.6</ele>
        <time>2022-09-28T14:10:40.000Z</time>
      </trkpt>
      <trkpt lat="43.43079" lon="6.38884">
        <ele>76.5</ele>
        <time>2022-09-28T14:10:45.000Z</time>
      </trkpt>
      <trkpt lat="43.43079" lon="6.38891">
        <ele>76.3</ele>
        <time>2022-09-28T14:10:50.000Z</time>
      </trkpt>
      <trkpt lat="43.43079" lon="6.38898">
        <ele>75.7</ele>
        <time>2022-09-28T14:10:58.000Z</time>
      </trkpt>
      <trkpt lat="43.43079" lon="6.38904">
        <ele>75.3</ele>
        <time>2022-09-28T14:11:02.000Z</time>
      </trkpt>
      <trkpt lat="43.43078" lon="6.38912">
        <ele>75.9</ele>
        <time>2022-09-28T14:11:06.000Z</time>
      </trkpt>
      <trkpt lat="43.43085" lon="6.38915">
        <ele>75.6</ele>
        <time>2022-09-28T14:11:08.000Z</time>
      </trkpt>
      <trkpt lat="43.43087" lon="6.38922">
        <ele>75</ele>
        <time>2022-09-28T14:11:12.000Z</time>
      </trkpt>
      <trkpt lat="43.43089" lon="6.38928">
        <ele>74.9</ele>
        <time>2022-09-28T14:11:16.000Z</time>
      </trkpt>
      <trkpt lat="43.43092" lon="6.38932">
        <ele>74.8</ele>
        <time>2022-09-28T14:11:20.000Z</time>
      </trkpt>
      <trkpt lat="43.43094" lon="6.38938">
        <ele>74.7</ele>
        <time>2022-09-28T14:11:24.000Z</time>
      </trkpt>
      <trkpt lat="43.43097" lon="6.38944">
        <ele>74.3</ele>
        <time>2022-09-28T14:11:28.000Z</time>
      </trkpt>
      <trkpt lat="43.43099" lon="6.3895">
        <ele>74.2</ele>
        <time>2022-09-28T14:11:32.000Z</time>
      </trkpt>
      <trkpt lat="43.431" lon="6.38958">
        <ele>73.7</ele>
        <time>2022-09-28T14:11:37.000Z</time>
      </trkpt>
      <trkpt lat="43.43101" lon="6.38965">
        <ele>73</ele>
        <time>2022-09-28T14:11:42.000Z</time>
      </trkpt>
      <trkpt lat="43.431" lon="6.38972">
        <ele>72.7</ele>
        <time>2022-09-28T14:11:46.000Z</time>
      </trkpt>
      <trkpt lat="43.43099" lon="6.38979">
        <ele>72.9</ele>
        <time>2022-09-28T14:11:51.000Z</time>
      </trkpt>
      <trkpt lat="43.43099" lon="6.38986">
        <ele>73.4</ele>
        <time>2022-09-28T14:11:57.000Z</time>
      </trkpt>
      <trkpt lat="43.43097" lon="6.38992">
        <ele>73.5</ele>
        <time>2022-09-28T14:12:01.000Z</time>
      </trkpt>
      <trkpt lat="43.43095" lon="6.38998">
        <ele>73.3</ele>
        <time>2022-09-28T14:12:05.000Z</time>
      </trkpt>
      <trkpt lat="43.43093" lon="6.39005">
        <ele>73.6</ele>
        <time>2022-09-28T14:12:09.000Z</time>
      </trkpt>
      <trkpt lat="43.43091" lon="6.39012">
        <ele>73</ele>
        <time>2022-09-28T14:12:14.000Z</time>
      </trkpt>
      <trkpt lat="43.43089" lon="6.39018">
        <ele>73.4</ele>
        <time>2022-09-28T14:12:18.000Z</time>
      </trkpt>
      <trkpt lat="43.43089" lon="6.39026">
        <ele>73.1</ele>
        <time>2022-09-28T14:12:22.000Z</time>
      </trkpt>
      <trkpt lat="43.43088" lon="6.39032">
        <ele>73</ele>
        <time>2022-09-28T14:12:31.000Z</time>
      </trkpt>
      <trkpt lat="43.43085" lon="6.39037">
        <ele>73.6</ele>
        <time>2022-09-28T14:12:41.000Z</time>
      </trkpt>
      <trkpt lat="43.43083" lon="6.39043">
        <ele>73</ele>
        <time>2022-09-28T14:13:13.000Z</time>
      </trkpt>
      <trkpt lat="43.43088" lon="6.39045">
        <ele>73.2</ele>
        <time>2022-09-28T14:13:50.000Z</time>
      </trkpt>
      <trkpt lat="43.43089" lon="6.39038">
        <ele>74.1</ele>
        <time>2022-09-28T14:14:16.000Z</time>
      </trkpt>
      <trkpt lat="43.43085" lon="6.39043">
        <ele>74.4</ele>
        <time>2022-09-28T14:16:49.000Z</time>
      </trkpt>
      <trkpt lat="43.43085" lon="6.39049">
        <ele>74.7</ele>
        <time>2022-09-28T14:17:00.000Z</time>
      </trkpt>
      <trkpt lat="43.43086" lon="6.39056">
        <ele>74.4</ele>
        <time>2022-09-28T14:17:10.000Z</time>
      </trkpt>
      <trkpt lat="43.43086" lon="6.39063">
        <ele>74</ele>
        <time>2022-09-28T14:17:22.000Z</time>
      </trkpt>
      <trkpt lat="43.43086" lon="6.39069">
        <ele>74.2</ele>
        <time>2022-09-28T14:17:32.000Z</time>
      </trkpt>
      <trkpt lat="43.43084" lon="6.39074">
        <ele>74.9</ele>
        <time>2022-09-28T14:17:38.000Z</time>
      </trkpt>
      <trkpt lat="43.43085" lon="6.39081">
        <ele>74.7</ele>
        <time>2022-09-28T14:17:43.000Z</time>
      </trkpt>
      <trkpt lat="43.43084" lon="6.39089">
        <ele>74.1</ele>
        <time>2022-09-28T14:17:49.000Z</time>
      </trkpt>
      <trkpt lat="43.43083" lon="6.39095">
        <ele>73.6</ele>
        <time>2022-09-28T14:17:54.000Z</time>
      </trkpt>
      <trkpt lat="43.43081" lon="6.39102">
        <ele>73.5</ele>
        <time>2022-09-28T14:17:58.000Z</time>
      </trkpt>
      <trkpt lat="43.43081" lon="6.39108">
        <ele>73.8</ele>
        <time>2022-09-28T14:18:04.000Z</time>
      </trkpt>
      <trkpt lat="43.4308" lon="6.39114">
        <ele>74.2</ele>
        <time>2022-09-28T14:18:10.000Z</time>
      </trkpt>
      <trkpt lat="43.43079" lon="6.39121">
        <ele>74.5</ele>
        <time>2022-09-28T14:18:16.000Z</time>
      </trkpt>
      <trkpt lat="43.43076" lon="6.39127">
        <ele>74</ele>
        <time>2022-09-28T14:18:21.000Z</time>
      </trkpt>
      <trkpt lat="43.43076" lon="6.39134">
        <ele>73.7</ele>
        <time>2022-09-28T14:18:24.000Z</time>
      </trkpt>
      <trkpt lat="43.43076" lon="6.39142">
        <ele>73.1</ele>
        <time>2022-09-28T14:18:29.000Z</time>
      </trkpt>
      <trkpt lat="43.43074" lon="6.39148">
        <ele>73.1</ele>
        <time>2022-09-28T14:18:32.000Z</time>
      </trkpt>
      <trkpt lat="43.43072" lon="6.39154">
        <ele>73.3</ele>
        <time>2022-09-28T14:18:37.000Z</time>
      </trkpt>
      <trkpt lat="43.4307" lon="6.39163">
        <ele>74.1</ele>
        <time>2022-09-28T14:18:42.000Z</time>
      </trkpt>
      <trkpt lat="43.43069" lon="6.39169">
        <ele>74.2</ele>
        <time>2022-09-28T14:18:46.000Z</time>
      </trkpt>
      <trkpt lat="43.43068" lon="6.39175">
        <ele>73.6</ele>
        <time>2022-09-28T14:18:50.000Z</time>
      </trkpt>
      <trkpt lat="43.43064" lon="6.3918">
        <ele>73.6</ele>
        <time>2022-09-28T14:18:54.000Z</time>
      </trkpt>
      <trkpt lat="43.43062" lon="6.39186">
        <ele>73.6</ele>
        <time>2022-09-28T14:19:00.000Z</time>
      </trkpt>
      <trkpt lat="43.43061" lon="6.39193">
        <ele>73.7</ele>
        <time>2022-09-28T14:19:05.000Z</time>
      </trkpt>
      <trkpt lat="43.43059" lon="6.392">
        <ele>73.5</ele>
        <time>2022-09-28T14:19:08.000Z</time>
      </trkpt>
      <trkpt lat="43.43058" lon="6.39206">
        <ele>73.9</ele>
        <time>2022-09-28T14:19:12.000Z</time>
      </trkpt>
      <trkpt lat="43.43056" lon="6.39212">
        <ele>73.5</ele>
        <time>2022-09-28T14:19:16.000Z</time>
      </trkpt>
      <trkpt lat="43.43056" lon="6.3922">
        <ele>74.3</ele>
        <time>2022-09-28T14:19:20.000Z</time>
      </trkpt>
      <trkpt lat="43.43055" lon="6.39227">
        <ele>74</ele>
        <time>2022-09-28T14:19:25.000Z</time>
      </trkpt>
      <trkpt lat="43.43052" lon="6.39232">
        <ele>74.4</ele>
        <time>2022-09-28T14:19:30.000Z</time>
      </trkpt>
      <trkpt lat="43.4305" lon="6.39238">
        <ele>74.7</ele>
        <time>2022-09-28T14:19:35.000Z</time>
      </trkpt>
      <trkpt lat="43.43048" lon="6.39245">
        <ele>74.1</ele>
        <time>2022-09-28T14:19:41.000Z</time>
      </trkpt>
      <trkpt lat="43.43047" lon="6.39251">
        <ele>74.2</ele>
        <time>2022-09-28T14:19:46.000Z</time>
      </trkpt>
      <trkpt lat="43.43043" lon="6.39256">
        <ele>74.5</ele>
        <time>2022-09-28T14:19:51.000Z</time>
      </trkpt>
      <trkpt lat="43.4304" lon="6.39263">
        <ele>74.5</ele>
        <time>2022-09-28T14:19:57.000Z</time>
      </trkpt>
      <trkpt lat="43.43038" lon="6.39269">
        <ele>74.7</ele>
        <time>2022-09-28T14:20:01.000Z</time>
      </trkpt>
      <trkpt lat="43.43037" lon="6.39276">
        <ele>74.5</ele>
        <time>2022-09-28T14:20:05.000Z</time>
      </trkpt>
      <trkpt lat="43.43035" lon="6.39282">
        <ele>75.2</ele>
        <time>2022-09-28T14:20:09.000Z</time>
      </trkpt>
      <trkpt lat="43.43034" lon="6.39289">
        <ele>75.1</ele>
        <time>2022-09-28T14:20:13.000Z</time>
      </trkpt>
      <trkpt lat="43.43033" lon="6.39294">
        <ele>75.1</ele>
        <time>2022-09-28T14:20:16.000Z</time>
      </trkpt>
      <trkpt lat="43.43032" lon="6.39301">
        <ele>74.3</ele>
        <time>2022-09-28T14:20:21.000Z</time>
      </trkpt>
      <trkpt lat="43.43031" lon="6.39308">
        <ele>74.4</ele>
        <time>2022-09-28T14:20:24.000Z</time>
      </trkpt>
      <trkpt lat="43.43028" lon="6.39314">
        <ele>74.7</ele>
        <time>2022-09-28T14:20:29.000Z</time>
      </trkpt>
      <trkpt lat="43.43026" lon="6.39321">
        <ele>75.3</ele>
        <time>2022-09-28T14:20:33.000Z</time>
      </trkpt>
      <trkpt lat="43.43024" lon="6.39326">
        <ele>75.3</ele>
        <time>2022-09-28T14:20:39.000Z</time>
      </trkpt>
      <trkpt lat="43.43024" lon="6.39333">
        <ele>75.7</ele>
        <time>2022-09-28T14:20:43.000Z</time>
      </trkpt>
      <trkpt lat="43.43022" lon="6.3934">
        <ele>75.5</ele>
        <time>2022-09-28T14:20:48.000Z</time>
      </trkpt>
      <trkpt lat="43.43019" lon="6.39345">
        <ele>75.4</ele>
        <time>2022-09-28T14:20:52.000Z</time>
      </trkpt>
      <trkpt lat="43.43018" lon="6.39351">
        <ele>75.6</ele>
        <time>2022-09-28T14:20:55.000Z</time>
      </trkpt>
      <trkpt lat="43.43015" lon="6.39358">
        <ele>75.4</ele>
        <time>2022-09-28T14:20:59.000Z</time>
      </trkpt>
      <trkpt lat="43.43013" lon="6.39364">
        <ele>75.3</ele>
        <time>2022-09-28T14:21:02.000Z</time>
      </trkpt>
      <trkpt lat="43.43011" lon="6.3937">
        <ele>75.2</ele>
        <time>2022-09-28T14:21:07.000Z</time>
      </trkpt>
      <trkpt lat="43.4301" lon="6.39377">
        <ele>75.4</ele>
        <time>2022-09-28T14:21:10.000Z</time>
      </trkpt>
      <trkpt lat="43.43009" lon="6.39383">
        <ele>75.6</ele>
        <time>2022-09-28T14:21:15.000Z</time>
      </trkpt>
      <trkpt lat="43.43007" lon="6.3939">
        <ele>75.1</ele>
        <time>2022-09-28T14:21:20.000Z</time>
      </trkpt>
      <trkpt lat="43.43005" lon="6.39396">
        <ele>74.9</ele>
        <time>2022-09-28T14:21:23.000Z</time>
      </trkpt>
      <trkpt lat="43.43003" lon="6.39402">
        <ele>74.8</ele>
        <time>2022-09-28T14:21:26.000Z</time>
      </trkpt>
      <trkpt lat="43.43001" lon="6.3941">
        <ele>74.1</ele>
        <time>2022-09-28T14:21:31.000Z</time>
      </trkpt>
      <trkpt lat="43.42999" lon="6.39416">
        <ele>74.1</ele>
        <time>2022-09-28T14:21:34.000Z</time>
      </trkpt>
      <trkpt lat="43.42996" lon="6.39422">
        <ele>74.2</ele>
        <time>2022-09-28T14:21:37.000Z</time>
      </trkpt>
      <trkpt lat="43.42994" lon="6.39428">
        <ele>73.8</ele>
        <time>2022-09-28T14:21:41.000Z</time>
      </trkpt>
      <trkpt lat="43.42992" lon="6.39434">
        <ele>74</ele>
        <time>2022-09-28T14:21:44.000Z</time>
      </trkpt>
      <trkpt lat="43.42989" lon="6.39439">
        <ele>74.2</ele>
        <time>2022-09-28T14:21:47.000Z</time>
      </trkpt>
      <trkpt lat="43.42986" lon="6.39445">
        <ele>73.6</ele>
        <time>2022-09-28T14:21:53.000Z</time>
      </trkpt>
      <trkpt lat="43.42981" lon="6.39451">
        <ele>73.4</ele>
        <time>2022-09-28T14:21:57.000Z</time>
      </trkpt>
      <trkpt lat="43.42978" lon="6.39455">
        <ele>73.2</ele>
        <time>2022-09-28T14:22:00.000Z</time>
      </trkpt>
      <trkpt lat="43.42976" lon="6.39461">
        <ele>72.7</ele>
        <time>2022-09-28T14:22:05.000Z</time>
      </trkpt>
      <trkpt lat="43.42972" lon="6.39467">
        <ele>73</ele>
        <time>2022-09-28T14:22:09.000Z</time>
      </trkpt>
      <trkpt lat="43.4297" lon="6.39473">
        <ele>73.4</ele>
        <time>2022-09-28T14:22:16.000Z</time>
      </trkpt>
      <trkpt lat="43.42967" lon="6.39477">
        <ele>73.6</ele>
        <time>2022-09-28T14:22:19.000Z</time>
      </trkpt>
      <trkpt lat="43.42965" lon="6.39483">
        <ele>73.3</ele>
        <time>2022-09-28T14:22:24.000Z</time>
      </trkpt>
      <trkpt lat="43.42962" lon="6.39488">
        <ele>73.3</ele>
        <time>2022-09-28T14:22:28.000Z</time>
      </trkpt>
      <trkpt lat="43.42958" lon="6.39494">
        <ele>72.9</ele>
        <time>2022-09-28T14:22:34.000Z</time>
      </trkpt>
      <trkpt lat="43.42955" lon="6.39501">
        <ele>73</ele>
        <time>2022-09-28T14:22:38.000Z</time>
      </trkpt>
      <trkpt lat="43.42953" lon="6.39507">
        <ele>73.6</ele>
        <time>2022-09-28T14:22:42.000Z</time>
      </trkpt>
      <trkpt lat="43.42951" lon="6.39513">
        <ele>73.3</ele>
        <time>2022-09-28T14:22:46.000Z</time>
      </trkpt>
      <trkpt lat="43.42948" lon="6.39521">
        <ele>73.7</ele>
        <time>2022-09-28T14:22:50.000Z</time>
      </trkpt>
      <trkpt lat="43.42947" lon="6.39527">
        <ele>73.5</ele>
        <time>2022-09-28T14:22:54.000Z</time>
      </trkpt>
      <trkpt lat="43.42946" lon="6.39533">
        <ele>73.8</ele>
        <time>2022-09-28T14:22:58.000Z</time>
      </trkpt>
      <trkpt lat="43.42944" lon="6.39539">
        <ele>73.9</ele>
        <time>2022-09-28T14:23:01.000Z</time>
      </trkpt>
      <trkpt lat="43.42943" lon="6.39545">
        <ele>73.9</ele>
        <time>2022-09-28T14:23:05.000Z</time>
      </trkpt>
      <trkpt lat="43.42941" lon="6.39551">
        <ele>73.9</ele>
        <time>2022-09-28T14:23:09.000Z</time>
      </trkpt>
      <trkpt lat="43.42939" lon="6.39558">
        <ele>74</ele>
        <time>2022-09-28T14:23:13.000Z</time>
      </trkpt>
      <trkpt lat="43.42936" lon="6.39565">
        <ele>73.5</ele>
        <time>2022-09-28T14:23:18.000Z</time>
      </trkpt>
      <trkpt lat="43.42935" lon="6.39573">
        <ele>73.3</ele>
        <time>2022-09-28T14:23:21.000Z</time>
      </trkpt>
      <trkpt lat="43.42933" lon="6.3958">
        <ele>73.6</ele>
        <time>2022-09-28T14:23:24.000Z</time>
      </trkpt>
      <trkpt lat="43.42932" lon="6.39586">
        <ele>73.4</ele>
        <time>2022-09-28T14:23:28.000Z</time>
      </trkpt>
      <trkpt lat="43.42931" lon="6.39593">
        <ele>73.7</ele>
        <time>2022-09-28T14:23:32.000Z</time>
      </trkpt>
      <trkpt lat="43.42929" lon="6.39598">
        <ele>73.6</ele>
        <time>2022-09-28T14:23:36.000Z</time>
      </trkpt>
      <trkpt lat="43.42926" lon="6.39604">
        <ele>73.1</ele>
        <time>2022-09-28T14:23:40.000Z</time>
      </trkpt>
      <trkpt lat="43.42923" lon="6.39611">
        <ele>73.8</ele>
        <time>2022-09-28T14:23:45.000Z</time>
      </trkpt>
      <trkpt lat="43.42922" lon="6.39617">
        <ele>73.5</ele>
        <time>2022-09-28T14:23:50.000Z</time>
      </trkpt>
      <trkpt lat="43.42919" lon="6.39622">
        <ele>74.2</ele>
        <time>2022-09-28T14:23:56.000Z</time>
      </trkpt>
      <trkpt lat="43.42918" lon="6.39628">
        <ele>73.8</ele>
        <time>2022-09-28T14:24:00.000Z</time>
      </trkpt>
      <trkpt lat="43.42916" lon="6.39636">
        <ele>74</ele>
        <time>2022-09-28T14:24:04.000Z</time>
      </trkpt>
      <trkpt lat="43.42912" lon="6.3964">
        <ele>73.9</ele>
        <time>2022-09-28T14:24:09.000Z</time>
      </trkpt>
      <trkpt lat="43.42909" lon="6.39646">
        <ele>74.5</ele>
        <time>2022-09-28T14:24:13.000Z</time>
      </trkpt>
      <trkpt lat="43.42907" lon="6.39652">
        <ele>74.2</ele>
        <time>2022-09-28T14:24:18.000Z</time>
      </trkpt>
      <trkpt lat="43.42905" lon="6.39659">
        <ele>74.6</ele>
        <time>2022-09-28T14:24:21.000Z</time>
      </trkpt>
      <trkpt lat="43.42903" lon="6.39665">
        <ele>75.4</ele>
        <time>2022-09-28T14:24:25.000Z</time>
      </trkpt>
      <trkpt lat="43.42901" lon="6.39672">
        <ele>75.2</ele>
        <time>2022-09-28T14:24:30.000Z</time>
      </trkpt>
      <trkpt lat="43.42897" lon="6.39679">
        <ele>75.3</ele>
        <time>2022-09-28T14:24:33.000Z</time>
      </trkpt>
      <trkpt lat="43.42895" lon="6.39685">
        <ele>75.2</ele>
        <time>2022-09-28T14:24:37.000Z</time>
      </trkpt>
      <trkpt lat="43.42894" lon="6.39692">
        <ele>74.7</ele>
        <time>2022-09-28T14:24:41.000Z</time>
      </trkpt>
      <trkpt lat="43.42891" lon="6.39699">
        <ele>74.6</ele>
        <time>2022-09-28T14:24:44.000Z</time>
      </trkpt>
      <trkpt lat="43.42889" lon="6.39705">
        <ele>74.7</ele>
        <time>2022-09-28T14:24:48.000Z</time>
      </trkpt>
      <trkpt lat="43.42887" lon="6.39711">
        <ele>74.5</ele>
        <time>2022-09-28T14:24:52.000Z</time>
      </trkpt>
      <trkpt lat="43.42884" lon="6.39717">
        <ele>74.5</ele>
        <time>2022-09-28T14:24:56.000Z</time>
      </trkpt>
      <trkpt lat="43.42883" lon="6.39725">
        <ele>74.2</ele>
        <time>2022-09-28T14:25:01.000Z</time>
      </trkpt>
      <trkpt lat="43.42881" lon="6.39731">
        <ele>74</ele>
        <time>2022-09-28T14:25:04.000Z</time>
      </trkpt>
      <trkpt lat="43.42878" lon="6.39737">
        <ele>73.8</ele>
        <time>2022-09-28T14:25:10.000Z</time>
      </trkpt>
      <trkpt lat="43.42876" lon="6.39744">
        <ele>74</ele>
        <time>2022-09-28T14:25:13.000Z</time>
      </trkpt>
      <trkpt lat="43.42875" lon="6.39751">
        <ele>74.1</ele>
        <time>2022-09-28T14:25:17.000Z</time>
      </trkpt>
      <trkpt lat="43.42871" lon="6.39756">
        <ele>74.3</ele>
        <time>2022-09-28T14:25:23.000Z</time>
      </trkpt>
      <trkpt lat="43.42867" lon="6.3976">
        <ele>74.3</ele>
        <time>2022-09-28T14:25:33.000Z</time>
      </trkpt>
      <trkpt lat="43.42864" lon="6.39765">
        <ele>74.3</ele>
        <time>2022-09-28T14:25:41.000Z</time>
      </trkpt>
      <trkpt lat="43.42861" lon="6.3977">
        <ele>73.8</ele>
        <time>2022-09-28T14:25:53.000Z</time>
      </trkpt>
      <trkpt lat="43.42858" lon="6.39776">
        <ele>74.1</ele>
        <time>2022-09-28T14:25:59.000Z</time>
      </trkpt>
      <trkpt lat="43.42857" lon="6.39783">
        <ele>74.2</ele>
        <time>2022-09-28T14:26:03.000Z</time>
      </trkpt>
      <trkpt lat="43.42855" lon="6.39789">
        <ele>73.9</ele>
        <time>2022-09-28T14:26:09.000Z</time>
      </trkpt>
      <trkpt lat="43.42853" lon="6.39795">
        <ele>73.7</ele>
        <time>2022-09-28T14:26:14.000Z</time>
      </trkpt>
      <trkpt lat="43.42852" lon="6.39802">
        <ele>74.3</ele>
        <time>2022-09-28T14:26:18.000Z</time>
      </trkpt>
      <trkpt lat="43.42849" lon="6.39808">
        <ele>74.1</ele>
        <time>2022-09-28T14:26:22.000Z</time>
      </trkpt>
      <trkpt lat="43.42849" lon="6.39816">
        <ele>74.5</ele>
        <time>2022-09-28T14:26:27.000Z</time>
      </trkpt>
      <trkpt lat="43.42849" lon="6.39824">
        <ele>74</ele>
        <time>2022-09-28T14:26:31.000Z</time>
      </trkpt>
      <trkpt lat="43.42849" lon="6.3983">
        <ele>74</ele>
        <time>2022-09-28T14:26:36.000Z</time>
      </trkpt>
      <trkpt lat="43.42848" lon="6.39837">
        <ele>74.2</ele>
        <time>2022-09-28T14:26:40.000Z</time>
      </trkpt>
      <trkpt lat="43.42849" lon="6.39844">
        <ele>74.5</ele>
        <time>2022-09-28T14:26:44.000Z</time>
      </trkpt>
      <trkpt lat="43.42847" lon="6.39851">
        <ele>74.7</ele>
        <time>2022-09-28T14:26:49.000Z</time>
      </trkpt>
      <trkpt lat="43.42848" lon="6.39857">
        <ele>74.4</ele>
        <time>2022-09-28T14:26:53.000Z</time>
      </trkpt>
      <trkpt lat="43.42848" lon="6.39864">
        <ele>73.8</ele>
        <time>2022-09-28T14:26:58.000Z</time>
      </trkpt>
      <trkpt lat="43.4285" lon="6.39871">
        <ele>73.8</ele>
        <time>2022-09-28T14:27:01.000Z</time>
      </trkpt>
      <trkpt lat="43.42851" lon="6.39878">
        <ele>74.2</ele>
        <time>2022-09-28T14:27:06.000Z</time>
      </trkpt>
      <trkpt lat="43.42852" lon="6.39886">
        <ele>74.8</ele>
        <time>2022-09-28T14:27:10.000Z</time>
      </trkpt>
      <trkpt lat="43.42854" lon="6.39892">
        <ele>75</ele>
        <time>2022-09-28T14:27:15.000Z</time>
      </trkpt>
      <trkpt lat="43.42856" lon="6.39899">
        <ele>74.9</ele>
        <time>2022-09-28T14:27:19.000Z</time>
      </trkpt>
      <trkpt lat="43.42857" lon="6.39905">
        <ele>74.8</ele>
        <time>2022-09-28T14:27:24.000Z</time>
      </trkpt>
      <trkpt lat="43.42859" lon="6.39911">
        <ele>75.3</ele>
        <time>2022-09-28T14:27:40.000Z</time>
      </trkpt>
      <trkpt lat="43.42859" lon="6.39919">
        <ele>75.7</ele>
        <time>2022-09-28T14:27:54.000Z</time>
      </trkpt>
      <trkpt lat="43.42859" lon="6.39926">
        <ele>76</ele>
        <time>2022-09-28T14:28:01.000Z</time>
      </trkpt>
      <trkpt lat="43.4286" lon="6.39933">
        <ele>75.9</ele>
        <time>2022-09-28T14:28:06.000Z</time>
      </trkpt>
      <trkpt lat="43.4286" lon="6.3994">
        <ele>75.8</ele>
        <time>2022-09-28T14:28:11.000Z</time>
      </trkpt>
      <trkpt lat="43.42861" lon="6.39947">
        <ele>75.6</ele>
        <time>2022-09-28T14:28:16.000Z</time>
      </trkpt>
      <trkpt lat="43.42865" lon="6.39951">
        <ele>75.4</ele>
        <time>2022-09-28T14:28:21.000Z</time>
      </trkpt>
      <trkpt lat="43.4287" lon="6.39951">
        <ele>74.9</ele>
        <time>2022-09-28T14:28:26.000Z</time>
      </trkpt>
      <trkpt lat="43.42874" lon="6.39947">
        <ele>75.3</ele>
        <time>2022-09-28T14:28:30.000Z</time>
      </trkpt>
      <trkpt lat="43.42878" lon="6.39943">
        <ele>75.1</ele>
        <time>2022-09-28T14:28:35.000Z</time>
      </trkpt>
      <trkpt lat="43.42882" lon="6.3994">
        <ele>75.4</ele>
        <time>2022-09-28T14:28:39.000Z</time>
      </trkpt>
      <trkpt lat="43.42886" lon="6.39936">
        <ele>76.4</ele>
        <time>2022-09-28T14:28:43.000Z</time>
      </trkpt>
      <trkpt lat="43.4289" lon="6.39933">
        <ele>75.2</ele>
        <time>2022-09-28T14:28:47.000Z</time>
      </trkpt>
      <trkpt lat="43.42896" lon="6.39929">
        <ele>75.1</ele>
        <time>2022-09-28T14:28:50.000Z</time>
      </trkpt>
      <trkpt lat="43.42901" lon="6.39926">
        <ele>74.8</ele>
        <time>2022-09-28T14:28:55.000Z</time>
      </trkpt>
      <trkpt lat="43.42905" lon="6.3992">
        <ele>75</ele>
        <time>2022-09-28T14:28:59.000Z</time>
      </trkpt>
      <trkpt lat="43.4291" lon="6.39916">
        <ele>74.9</ele>
        <time>2022-09-28T14:29:04.000Z</time>
      </trkpt>
      <trkpt lat="43.42913" lon="6.39911">
        <ele>75</ele>
        <time>2022-09-28T14:29:08.000Z</time>
      </trkpt>
      <trkpt lat="43.42917" lon="6.39907">
        <ele>75</ele>
        <time>2022-09-28T14:29:15.000Z</time>
      </trkpt>
      <trkpt lat="43.42921" lon="6.39904">
        <ele>75.1</ele>
        <time>2022-09-28T14:29:19.000Z</time>
      </trkpt>
      <trkpt lat="43.42925" lon="6.39901">
        <ele>76</ele>
        <time>2022-09-28T14:29:30.000Z</time>
      </trkpt>
      <trkpt lat="43.42929" lon="6.39897">
        <ele>76.2</ele>
        <time>2022-09-28T14:29:35.000Z</time>
      </trkpt>
      <trkpt lat="43.42933" lon="6.39895">
        <ele>76.5</ele>
        <time>2022-09-28T14:29:48.000Z</time>
      </trkpt>
      <trkpt lat="43.42937" lon="6.3989">
        <ele>77.1</ele>
        <time>2022-09-28T14:29:59.000Z</time>
      </trkpt>
      <trkpt lat="43.42942" lon="6.39887">
        <ele>77.9</ele>
        <time>2022-09-28T14:30:03.000Z</time>
      </trkpt>
      <trkpt lat="43.42947" lon="6.39885">
        <ele>77.4</ele>
        <time>2022-09-28T14:30:08.000Z</time>
      </trkpt>
      <trkpt lat="43.4295" lon="6.3988">
        <ele>77.8</ele>
        <time>2022-09-28T14:30:11.000Z</time>
      </trkpt>
      <trkpt lat="43.42953" lon="6.39875">
        <ele>77.2</ele>
        <time>2022-09-28T14:30:16.000Z</time>
      </trkpt>
      <trkpt lat="43.42954" lon="6.39869">
        <ele>76.8</ele>
        <time>2022-09-28T14:30:30.000Z</time>
      </trkpt>
      <trkpt lat="43.4296" lon="6.39867">
        <ele>77.7</ele>
        <time>2022-09-28T14:30:34.000Z</time>
      </trkpt>
      <trkpt lat="43.42964" lon="6.39864">
        <ele>77.8</ele>
        <time>2022-09-28T14:30:39.000Z</time>
      </trkpt>
      <trkpt lat="43.42968" lon="6.3986">
        <ele>78.4</ele>
        <time>2022-09-28T14:30:44.000Z</time>
      </trkpt>
      <trkpt lat="43.42972" lon="6.39856">
        <ele>78.3</ele>
        <time>2022-09-28T14:30:57.000Z</time>
      </trkpt>
      <trkpt lat="43.42977" lon="6.39854">
        <ele>78.2</ele>
        <time>2022-09-28T14:31:02.000Z</time>
      </trkpt>
      <trkpt lat="43.42981" lon="6.39852">
        <ele>78.1</ele>
        <time>2022-09-28T14:31:07.000Z</time>
      </trkpt>
      <trkpt lat="43.42986" lon="6.39848">
        <ele>77.9</ele>
        <time>2022-09-28T14:31:13.000Z</time>
      </trkpt>
      <trkpt lat="43.4299" lon="6.39845">
        <ele>78.1</ele>
        <time>2022-09-28T14:31:21.000Z</time>
      </trkpt>
      <trkpt lat="43.42995" lon="6.39843">
        <ele>78.1</ele>
        <time>2022-09-28T14:31:27.000Z</time>
      </trkpt>
      <trkpt lat="43.42999" lon="6.39843">
        <ele>78.9</ele>
        <time>2022-09-28T14:31:36.000Z</time>
      </trkpt>
      <trkpt lat="43.43004" lon="6.39842">
        <ele>80</ele>
        <time>2022-09-28T14:31:55.000Z</time>
      </trkpt>
      <trkpt lat="43.43008" lon="6.39839">
        <ele>79.8</ele>
        <time>2022-09-28T14:32:03.000Z</time>
      </trkpt>
      <trkpt lat="43.43013" lon="6.3984">
        <ele>80.5</ele>
        <time>2022-09-28T14:32:21.000Z</time>
      </trkpt>
      <trkpt lat="43.43017" lon="6.39839">
        <ele>80.4</ele>
        <time>2022-09-28T14:32:32.000Z</time>
      </trkpt>
      <trkpt lat="43.43021" lon="6.39834">
        <ele>80.6</ele>
        <time>2022-09-28T14:32:36.000Z</time>
      </trkpt>
      <trkpt lat="43.43025" lon="6.3983">
        <ele>80.9</ele>
        <time>2022-09-28T14:32:42.000Z</time>
      </trkpt>
      <trkpt lat="43.43027" lon="6.39824">
        <ele>80.6</ele>
        <time>2022-09-28T14:32:49.000Z</time>
      </trkpt>
      <trkpt lat="43.43022" lon="6.39825">
        <ele>80.4</ele>
        <time>2022-09-28T14:34:29.000Z</time>
      </trkpt>
      <trkpt lat="43.43018" lon="6.39828">
        <ele>80.4</ele>
        <time>2022-09-28T14:34:42.000Z</time>
      </trkpt>
      <trkpt lat="43.43014" lon="6.39832">
        <ele>80.1</ele>
        <time>2022-09-28T14:35:02.000Z</time>
      </trkpt>
      <trkpt lat="43.43019" lon="6.3983">
        <ele>79.1</ele>
        <time>2022-09-28T14:36:01.000Z</time>
      </trkpt>
      <trkpt lat="43.43023" lon="6.39829">
        <ele>79</ele>
        <time>2022-09-28T14:36:19.000Z</time>
      </trkpt>
      <trkpt lat="43.43027" lon="6.39832">
        <ele>78.6</ele>
        <time>2022-09-28T14:36:46.000Z</time>
      </trkpt>
      <trkpt lat="43.43025" lon="6.39838">
        <ele>79.6</ele>
        <time>2022-09-28T14:37:40.000Z</time>
      </trkpt>
      <trkpt lat="43.43022" lon="6.39833">
        <ele>79.4</ele>
        <time>2022-09-28T14:37:53.000Z</time>
      </trkpt>
      <trkpt lat="43.43021" lon="6.39827">
        <ele>77.9</ele>
        <time>2022-09-28T14:38:53.000Z</time>
      </trkpt>
      <trkpt lat="43.43023" lon="6.39821">
        <ele>78.1</ele>
        <time>2022-09-28T14:39:00.000Z</time>
      </trkpt>
      <trkpt lat="43.43018" lon="6.39823">
        <ele>77.9</ele>
        <time>2022-09-28T14:39:52.000Z</time>
      </trkpt>
      <trkpt lat="43.43023" lon="6.39824">
        <ele>78.4</ele>
        <time>2022-09-28T14:40:10.000Z</time>
      </trkpt>
      <trkpt lat="43.43017" lon="6.39825">
        <ele>77.5</ele>
        <time>2022-09-28T14:40:33.000Z</time>
      </trkpt>
      <trkpt lat="43.43012" lon="6.39826">
        <ele>77.4</ele>
        <time>2022-09-28T14:40:38.000Z</time>
      </trkpt>
      <trkpt lat="43.43007" lon="6.39828">
        <ele>77.2</ele>
        <time>2022-09-28T14:40:43.000Z</time>
      </trkpt>
      <trkpt lat="43.43002" lon="6.3983">
        <ele>77.5</ele>
        <time>2022-09-28T14:40:46.000Z</time>
      </trkpt>
      <trkpt lat="43.42998" lon="6.39833">
        <ele>75.9</ele>
        <time>2022-09-28T14:40:51.000Z</time>
      </trkpt>
      <trkpt lat="43.42992" lon="6.39835">
        <ele>75.6</ele>
        <time>2022-09-28T14:40:55.000Z</time>
      </trkpt>
      <trkpt lat="43.42987" lon="6.39838">
        <ele>75.7</ele>
        <time>2022-09-28T14:40:58.000Z</time>
      </trkpt>
      <trkpt lat="43.42982" lon="6.39838">
        <ele>75.1</ele>
        <time>2022-09-28T14:41:03.000Z</time>
      </trkpt>
      <trkpt lat="43.42976" lon="6.39841">
        <ele>75.3</ele>
        <time>2022-09-28T14:41:07.000Z</time>
      </trkpt>
      <trkpt lat="43.42972" lon="6.39844">
        <ele>75.4</ele>
        <time>2022-09-28T14:41:10.000Z</time>
      </trkpt>
      <trkpt lat="43.42967" lon="6.39847">
        <ele>74.7</ele>
        <time>2022-09-28T14:41:14.000Z</time>
      </trkpt>
      <trkpt lat="43.42964" lon="6.39854">
        <ele>74.8</ele>
        <time>2022-09-28T14:41:19.000Z</time>
      </trkpt>
      <trkpt lat="43.42963" lon="6.3986">
        <ele>74.9</ele>
        <time>2022-09-28T14:41:58.000Z</time>
      </trkpt>
      <trkpt lat="43.42959" lon="6.39859">
        <ele>72.7</ele>
        <time>2022-09-28T14:42:17.000Z</time>
      </trkpt>
      <trkpt lat="43.42954" lon="6.39861">
        <ele>73.8</ele>
        <time>2022-09-28T14:42:23.000Z</time>
      </trkpt>
      <trkpt lat="43.4295" lon="6.39864">
        <ele>74.3</ele>
        <time>2022-09-28T14:42:28.000Z</time>
      </trkpt>
      <trkpt lat="43.42947" lon="6.39869">
        <ele>74</ele>
        <time>2022-09-28T14:42:32.000Z</time>
      </trkpt>
      <trkpt lat="43.42943" lon="6.39873">
        <ele>74.2</ele>
        <time>2022-09-28T14:42:37.000Z</time>
      </trkpt>
      <trkpt lat="43.42939" lon="6.39877">
        <ele>73.5</ele>
        <time>2022-09-28T14:42:42.000Z</time>
      </trkpt>
      <trkpt lat="43.42935" lon="6.39879">
        <ele>73.4</ele>
        <time>2022-09-28T14:42:45.000Z</time>
      </trkpt>
      <trkpt lat="43.42929" lon="6.39881">
        <ele>73.1</ele>
        <time>2022-09-28T14:42:49.000Z</time>
      </trkpt>
      <trkpt lat="43.42925" lon="6.39885">
        <ele>72.8</ele>
        <time>2022-09-28T14:42:52.000Z</time>
      </trkpt>
      <trkpt lat="43.42921" lon="6.39888">
        <ele>72.4</ele>
        <time>2022-09-28T14:42:58.000Z</time>
      </trkpt>
      <trkpt lat="43.42916" lon="6.39892">
        <ele>72.6</ele>
        <time>2022-09-28T14:43:02.000Z</time>
      </trkpt>
      <trkpt lat="43.42911" lon="6.39896">
        <ele>72.5</ele>
        <time>2022-09-28T14:43:06.000Z</time>
      </trkpt>
      <trkpt lat="43.42908" lon="6.399">
        <ele>72.1</ele>
        <time>2022-09-28T14:43:11.000Z</time>
      </trkpt>
      <trkpt lat="43.42904" lon="6.39904">
        <ele>72.5</ele>
        <time>2022-09-28T14:43:14.000Z</time>
      </trkpt>
      <trkpt lat="43.429" lon="6.39909">
        <ele>72</ele>
        <time>2022-09-28T14:43:18.000Z</time>
      </trkpt>
      <trkpt lat="43.42897" lon="6.39913">
        <ele>71.8</ele>
        <time>2022-09-28T14:43:23.000Z</time>
      </trkpt>
      <trkpt lat="43.42893" lon="6.39918">
        <ele>72</ele>
        <time>2022-09-28T14:43:26.000Z</time>
      </trkpt>
      <trkpt lat="43.42889" lon="6.39921">
        <ele>72.3</ele>
        <time>2022-09-28T14:43:29.000Z</time>
      </trkpt>
      <trkpt lat="43.42885" lon="6.39924">
        <ele>72.1</ele>
        <time>2022-09-28T14:43:34.000Z</time>
      </trkpt>
      <trkpt lat="43.4288" lon="6.39927">
        <ele>71.8</ele>
        <time>2022-09-28T14:43:38.000Z</time>
      </trkpt>
      <trkpt lat="43.42876" lon="6.39931">
        <ele>72.3</ele>
        <time>2022-09-28T14:43:41.000Z</time>
      </trkpt>
      <trkpt lat="43.42872" lon="6.39935">
        <ele>71.5</ele>
        <time>2022-09-28T14:43:46.000Z</time>
      </trkpt>
      <trkpt lat="43.42868" lon="6.3994">
        <ele>71.5</ele>
        <time>2022-09-28T14:43:50.000Z</time>
      </trkpt>
      <trkpt lat="43.42865" lon="6.39945">
        <ele>71.7</ele>
        <time>2022-09-28T14:43:56.000Z</time>
      </trkpt>
      <trkpt lat="43.42862" lon="6.39951">
        <ele>70.9</ele>
        <time>2022-09-28T14:44:05.000Z</time>
      </trkpt>
      <trkpt lat="43.4286" lon="6.39957">
        <ele>70.7</ele>
        <time>2022-09-28T14:44:10.000Z</time>
      </trkpt>
      <trkpt lat="43.42858" lon="6.39964">
        <ele>70.1</ele>
        <time>2022-09-28T14:44:16.000Z</time>
      </trkpt>
      <trkpt lat="43.42858" lon="6.3997">
        <ele>69.6</ele>
        <time>2022-09-28T14:44:20.000Z</time>
      </trkpt>
      <trkpt lat="43.42857" lon="6.39977">
        <ele>70.3</ele>
        <time>2022-09-28T14:44:24.000Z</time>
      </trkpt>
      <trkpt lat="43.42858" lon="6.39983">
        <ele>70.7</ele>
        <time>2022-09-28T14:44:28.000Z</time>
      </trkpt>
      <trkpt lat="43.42858" lon="6.3999">
        <ele>71.2</ele>
        <time>2022-09-28T14:44:33.000Z</time>
      </trkpt>
      <trkpt lat="43.42858" lon="6.39997">
        <ele>71.3</ele>
        <time>2022-09-28T14:44:38.000Z</time>
      </trkpt>
      <trkpt lat="43.42858" lon="6.40005">
        <ele>71.5</ele>
        <time>2022-09-28T14:44:42.000Z</time>
      </trkpt>
      <trkpt lat="43.42858" lon="6.40011">
        <ele>71.5</ele>
        <time>2022-09-28T14:44:47.000Z</time>
      </trkpt>
      <trkpt lat="43.42857" lon="6.40019">
        <ele>71.3</ele>
        <time>2022-09-28T14:44:51.000Z</time>
      </trkpt>
      <trkpt lat="43.42857" lon="6.40025">
        <ele>71.1</ele>
        <time>2022-09-28T14:44:56.000Z</time>
      </trkpt>
      <trkpt lat="43.42857" lon="6.40032">
        <ele>71.4</ele>
        <time>2022-09-28T14:45:01.000Z</time>
      </trkpt>
      <trkpt lat="43.42857" lon="6.40039">
        <ele>71.7</ele>
        <time>2022-09-28T14:45:05.000Z</time>
      </trkpt>
      <trkpt lat="43.42856" lon="6.40047">
        <ele>71.4</ele>
        <time>2022-09-28T14:45:11.000Z</time>
      </trkpt>
      <trkpt lat="43.42857" lon="6.40053">
        <ele>71</ele>
        <time>2022-09-28T14:45:16.000Z</time>
      </trkpt>
      <trkpt lat="43.42856" lon="6.4006">
        <ele>71</ele>
        <time>2022-09-28T14:45:20.000Z</time>
      </trkpt>
      <trkpt lat="43.42856" lon="6.40067">
        <ele>70.8</ele>
        <time>2022-09-28T14:45:25.000Z</time>
      </trkpt>
      <trkpt lat="43.42855" lon="6.40074">
        <ele>70.7</ele>
        <time>2022-09-28T14:45:30.000Z</time>
      </trkpt>
      <trkpt lat="43.42855" lon="6.40081">
        <ele>70.8</ele>
        <time>2022-09-28T14:45:34.000Z</time>
      </trkpt>
      <trkpt lat="43.42855" lon="6.4009">
        <ele>70.6</ele>
        <time>2022-09-28T14:45:40.000Z</time>
      </trkpt>
      <trkpt lat="43.42856" lon="6.40096">
        <ele>70.6</ele>
        <time>2022-09-28T14:45:44.000Z</time>
      </trkpt>
      <trkpt lat="43.42854" lon="6.40103">
        <ele>70.5</ele>
        <time>2022-09-28T14:45:48.000Z</time>
      </trkpt>
      <trkpt lat="43.42852" lon="6.40109">
        <ele>70.7</ele>
        <time>2022-09-28T14:45:54.000Z</time>
      </trkpt>
      <trkpt lat="43.4285" lon="6.40116">
        <ele>70.8</ele>
        <time>2022-09-28T14:46:00.000Z</time>
      </trkpt>
      <trkpt lat="43.42847" lon="6.40124">
        <ele>71.1</ele>
        <time>2022-09-28T14:46:05.000Z</time>
      </trkpt>
      <trkpt lat="43.42845" lon="6.4013">
        <ele>70.9</ele>
        <time>2022-09-28T14:46:10.000Z</time>
      </trkpt>
      <trkpt lat="43.42841" lon="6.40134">
        <ele>70.9</ele>
        <time>2022-09-28T14:46:15.000Z</time>
      </trkpt>
      <trkpt lat="43.42837" lon="6.40137">
        <ele>71.1</ele>
        <time>2022-09-28T14:46:21.000Z</time>
      </trkpt>
      <trkpt lat="43.42833" lon="6.4014">
        <ele>71.5</ele>
        <time>2022-09-28T14:46:26.000Z</time>
      </trkpt>
      <trkpt lat="43.4283" lon="6.40147">
        <ele>71.3</ele>
        <time>2022-09-28T14:46:31.000Z</time>
      </trkpt>
      <trkpt lat="43.42832" lon="6.40153">
        <ele>71.3</ele>
        <time>2022-09-28T14:46:35.000Z</time>
      </trkpt>
      <trkpt lat="43.42836" lon="6.40156">
        <ele>71.4</ele>
        <time>2022-09-28T14:46:40.000Z</time>
      </trkpt>
      <trkpt lat="43.4284" lon="6.40157">
        <ele>71.7</ele>
        <time>2022-09-28T14:46:48.000Z</time>
      </trkpt>
      <trkpt lat="43.42845" lon="6.40161">
        <ele>72</ele>
        <time>2022-09-28T14:46:54.000Z</time>
      </trkpt>
      <trkpt lat="43.4285" lon="6.40161">
        <ele>72.1</ele>
        <time>2022-09-28T14:46:59.000Z</time>
      </trkpt>
      <trkpt lat="43.42855" lon="6.40163">
        <ele>72.3</ele>
        <time>2022-09-28T14:47:05.000Z</time>
      </trkpt>
      <trkpt lat="43.4286" lon="6.40165">
        <ele>72.6</ele>
        <time>2022-09-28T14:47:10.000Z</time>
      </trkpt>
      <trkpt lat="43.42864" lon="6.40167">
        <ele>72.3</ele>
        <time>2022-09-28T14:47:16.000Z</time>
      </trkpt>
      <trkpt lat="43.42868" lon="6.40171">
        <ele>72.7</ele>
        <time>2022-09-28T14:47:23.000Z</time>
      </trkpt>
      <trkpt lat="43.42873" lon="6.40174">
        <ele>73.7</ele>
        <time>2022-09-28T14:47:32.000Z</time>
      </trkpt>
      <trkpt lat="43.42878" lon="6.40173">
        <ele>73.6</ele>
        <time>2022-09-28T14:47:38.000Z</time>
      </trkpt>
      <trkpt lat="43.42882" lon="6.40173">
        <ele>74.4</ele>
        <time>2022-09-28T14:47:42.000Z</time>
      </trkpt>
      <trkpt lat="43.42887" lon="6.40173">
        <ele>74.9</ele>
        <time>2022-09-28T14:47:46.000Z</time>
      </trkpt>
      <trkpt lat="43.42892" lon="6.40172">
        <ele>75.1</ele>
        <time>2022-09-28T14:47:50.000Z</time>
      </trkpt>
      <trkpt lat="43.42897" lon="6.40171">
        <ele>75.7</ele>
        <time>2022-09-28T14:47:54.000Z</time>
      </trkpt>
      <trkpt lat="43.42902" lon="6.40168">
        <ele>75.6</ele>
        <time>2022-09-28T14:47:58.000Z</time>
      </trkpt>
      <trkpt lat="43.42906" lon="6.40165">
        <ele>75.7</ele>
        <time>2022-09-28T14:48:01.000Z</time>
      </trkpt>
      <trkpt lat="43.42911" lon="6.40165">
        <ele>76.1</ele>
        <time>2022-09-28T14:48:05.000Z</time>
      </trkpt>
      <trkpt lat="43.42916" lon="6.40163">
        <ele>76.2</ele>
        <time>2022-09-28T14:48:09.000Z</time>
      </trkpt>
      <trkpt lat="43.4292" lon="6.4016">
        <ele>77.2</ele>
        <time>2022-09-28T14:48:13.000Z</time>
      </trkpt>
      <trkpt lat="43.42924" lon="6.40158">
        <ele>77.2</ele>
        <time>2022-09-28T14:48:18.000Z</time>
      </trkpt>
      <trkpt lat="43.42929" lon="6.40156">
        <ele>76.9</ele>
        <time>2022-09-28T14:48:23.000Z</time>
      </trkpt>
      <trkpt lat="43.42933" lon="6.40151">
        <ele>77.4</ele>
        <time>2022-09-28T14:48:29.000Z</time>
      </trkpt>
      <trkpt lat="43.42937" lon="6.40147">
        <ele>78.8</ele>
        <time>2022-09-28T14:48:36.000Z</time>
      </trkpt>
      <trkpt lat="43.42941" lon="6.40144">
        <ele>78.6</ele>
        <time>2022-09-28T14:48:41.000Z</time>
      </trkpt>
      <trkpt lat="43.42946" lon="6.40142">
        <ele>78.7</ele>
        <time>2022-09-28T14:48:45.000Z</time>
      </trkpt>
      <trkpt lat="43.4295" lon="6.4014">
        <ele>80</ele>
        <time>2022-09-28T14:48:49.000Z</time>
      </trkpt>
      <trkpt lat="43.42955" lon="6.40136">
        <ele>80.3</ele>
        <time>2022-09-28T14:48:54.000Z</time>
      </trkpt>
      <trkpt lat="43.42959" lon="6.40132">
        <ele>79.9</ele>
        <time>2022-09-28T14:48:58.000Z</time>
      </trkpt>
      <trkpt lat="43.42964" lon="6.4013">
        <ele>79.7</ele>
        <time>2022-09-28T14:49:03.000Z</time>
      </trkpt>
      <trkpt lat="43.42968" lon="6.40125">
        <ele>79.9</ele>
        <time>2022-09-28T14:49:08.000Z</time>
      </trkpt>
      <trkpt lat="43.42973" lon="6.40121">
        <ele>79.9</ele>
        <time>2022-09-28T14:49:13.000Z</time>
      </trkpt>
      <trkpt lat="43.42977" lon="6.40118">
        <ele>80.5</ele>
        <time>2022-09-28T14:49:19.000Z</time>
      </trkpt>
      <trkpt lat="43.42981" lon="6.40113">
        <ele>80.5</ele>
        <time>2022-09-28T14:49:23.000Z</time>
      </trkpt>
      <trkpt lat="43.42985" lon="6.4011">
        <ele>80.6</ele>
        <time>2022-09-28T14:49:27.000Z</time>
      </trkpt>
      <trkpt lat="43.42989" lon="6.40107">
        <ele>80.7</ele>
        <time>2022-09-28T14:49:31.000Z</time>
      </trkpt>
      <trkpt lat="43.42994" lon="6.40103">
        <ele>81.4</ele>
        <time>2022-09-28T14:49:35.000Z</time>
      </trkpt>
      <trkpt lat="43.42997" lon="6.40099">
        <ele>81.1</ele>
        <time>2022-09-28T14:49:40.000Z</time>
      </trkpt>
      <trkpt lat="43.43002" lon="6.40097">
        <ele>81.4</ele>
        <time>2022-09-28T14:49:45.000Z</time>
      </trkpt>
      <trkpt lat="43.43007" lon="6.40093">
        <ele>81.2</ele>
        <time>2022-09-28T14:49:50.000Z</time>
      </trkpt>
      <trkpt lat="43.43011" lon="6.4009">
        <ele>81.5</ele>
        <time>2022-09-28T14:49:56.000Z</time>
      </trkpt>
      <trkpt lat="43.43014" lon="6.40085">
        <ele>81.9</ele>
        <time>2022-09-28T14:50:01.000Z</time>
      </trkpt>
      <trkpt lat="43.43018" lon="6.40081">
        <ele>82.2</ele>
        <time>2022-09-28T14:50:06.000Z</time>
      </trkpt>
      <trkpt lat="43.43022" lon="6.40076">
        <ele>82.6</ele>
        <time>2022-09-28T14:50:11.000Z</time>
      </trkpt>
      <trkpt lat="43.43026" lon="6.40074">
        <ele>82.5</ele>
        <time>2022-09-28T14:50:16.000Z</time>
      </trkpt>
      <trkpt lat="43.4303" lon="6.4007">
        <ele>82.8</ele>
        <time>2022-09-28T14:50:21.000Z</time>
      </trkpt>
      <trkpt lat="43.43034" lon="6.40066">
        <ele>83</ele>
        <time>2022-09-28T14:50:26.000Z</time>
      </trkpt>
      <trkpt lat="43.43038" lon="6.40063">
        <ele>83.5</ele>
        <time>2022-09-28T14:50:31.000Z</time>
      </trkpt>
      <trkpt lat="43.43042" lon="6.40059">
        <ele>84</ele>
        <time>2022-09-28T14:50:36.000Z</time>
      </trkpt>
      <trkpt lat="43.43047" lon="6.40055">
        <ele>84.3</ele>
        <time>2022-09-28T14:50:41.000Z</time>
      </trkpt>
      <trkpt lat="43.43051" lon="6.40051">
        <ele>84.5</ele>
        <time>2022-09-28T14:50:47.000Z</time>
      </trkpt>
      <trkpt lat="43.43056" lon="6.40048">
        <ele>84.8</ele>
        <time>2022-09-28T14:50:52.000Z</time>
      </trkpt>
      <trkpt lat="43.4306" lon="6.40044">
        <ele>84.9</ele>
        <time>2022-09-28T14:50:57.000Z</time>
      </trkpt>
      <trkpt lat="43.43064" lon="6.4004">
        <ele>85.4</ele>
        <time>2022-09-28T14:51:02.000Z</time>
      </trkpt>
      <trkpt lat="43.43069" lon="6.40036">
        <ele>84.8</ele>
        <time>2022-09-28T14:51:08.000Z</time>
      </trkpt>
      <trkpt lat="43.43073" lon="6.40033">
        <ele>85.5</ele>
        <time>2022-09-28T14:51:13.000Z</time>
      </trkpt>
      <trkpt lat="43.43078" lon="6.40029">
        <ele>86.1</ele>
        <time>2022-09-28T14:51:18.000Z</time>
      </trkpt>
      <trkpt lat="43.43082" lon="6.40025">
        <ele>86.8</ele>
        <time>2022-09-28T14:51:22.000Z</time>
      </trkpt>
      <trkpt lat="43.43086" lon="6.40021">
        <ele>88.3</ele>
        <time>2022-09-28T14:51:27.000Z</time>
      </trkpt>
      <trkpt lat="43.4309" lon="6.40018">
        <ele>88.3</ele>
        <time>2022-09-28T14:51:32.000Z</time>
      </trkpt>
      <trkpt lat="43.43094" lon="6.40014">
        <ele>88</ele>
        <time>2022-09-28T14:51:37.000Z</time>
      </trkpt>
      <trkpt lat="43.43097" lon="6.4001">
        <ele>88.7</ele>
        <time>2022-09-28T14:51:41.000Z</time>
      </trkpt>
      <trkpt lat="43.43101" lon="6.40007">
        <ele>88.7</ele>
        <time>2022-09-28T14:51:46.000Z</time>
      </trkpt>
      <trkpt lat="43.43106" lon="6.40003">
        <ele>88.3</ele>
        <time>2022-09-28T14:51:51.000Z</time>
      </trkpt>
      <trkpt lat="43.4311" lon="6.39998">
        <ele>88.1</ele>
        <time>2022-09-28T14:51:56.000Z</time>
      </trkpt>
      <trkpt lat="43.43112" lon="6.39992">
        <ele>88.2</ele>
        <time>2022-09-28T14:52:00.000Z</time>
      </trkpt>
      <trkpt lat="43.43115" lon="6.39987">
        <ele>88</ele>
        <time>2022-09-28T14:52:04.000Z</time>
      </trkpt>
      <trkpt lat="43.43118" lon="6.39981">
        <ele>88.7</ele>
        <time>2022-09-28T14:52:10.000Z</time>
      </trkpt>
      <trkpt lat="43.43121" lon="6.39974">
        <ele>88.8</ele>
        <time>2022-09-28T14:52:15.000Z</time>
      </trkpt>
      <trkpt lat="43.43124" lon="6.39968">
        <ele>88.6</ele>
        <time>2022-09-28T14:52:20.000Z</time>
      </trkpt>
      <trkpt lat="43.43126" lon="6.39962">
        <ele>89</ele>
        <time>2022-09-28T14:52:24.000Z</time>
      </trkpt>
      <trkpt lat="43.43129" lon="6.39956">
        <ele>88.7</ele>
        <time>2022-09-28T14:52:28.000Z</time>
      </trkpt>
      <trkpt lat="43.43133" lon="6.39951">
        <ele>88.7</ele>
        <time>2022-09-28T14:52:32.000Z</time>
      </trkpt>
      <trkpt lat="43.43136" lon="6.39944">
        <ele>88.7</ele>
        <time>2022-09-28T14:52:37.000Z</time>
      </trkpt>
      <trkpt lat="43.43138" lon="6.39938">
        <ele>88.6</ele>
        <time>2022-09-28T14:52:41.000Z</time>
      </trkpt>
      <trkpt lat="43.43141" lon="6.39933">
        <ele>88.8</ele>
        <time>2022-09-28T14:52:44.000Z</time>
      </trkpt>
      <trkpt lat="43.43143" lon="6.39926">
        <ele>88.4</ele>
        <time>2022-09-28T14:52:49.000Z</time>
      </trkpt>
      <trkpt lat="43.43147" lon="6.3992">
        <ele>88.5</ele>
        <time>2022-09-28T14:52:53.000Z</time>
      </trkpt>
      <trkpt lat="43.4315" lon="6.39914">
        <ele>88.4</ele>
        <time>2022-09-28T14:52:58.000Z</time>
      </trkpt>
      <trkpt lat="43.43152" lon="6.39907">
        <ele>88.5</ele>
        <time>2022-09-28T14:53:02.000Z</time>
      </trkpt>
      <trkpt lat="43.43154" lon="6.399">
        <ele>89</ele>
        <time>2022-09-28T14:53:07.000Z</time>
      </trkpt>
      <trkpt lat="43.43157" lon="6.39895">
        <ele>88.8</ele>
        <time>2022-09-28T14:53:12.000Z</time>
      </trkpt>
      <trkpt lat="43.43158" lon="6.39889">
        <ele>89.1</ele>
        <time>2022-09-28T14:53:16.000Z</time>
      </trkpt>
      <trkpt lat="43.43161" lon="6.39883">
        <ele>88.5</ele>
        <time>2022-09-28T14:53:21.000Z</time>
      </trkpt>
      <trkpt lat="43.43164" lon="6.39878">
        <ele>89</ele>
        <time>2022-09-28T14:53:25.000Z</time>
      </trkpt>
      <trkpt lat="43.43167" lon="6.39872">
        <ele>89.1</ele>
        <time>2022-09-28T14:53:29.000Z</time>
      </trkpt>
      <trkpt lat="43.43169" lon="6.39865">
        <ele>88.8</ele>
        <time>2022-09-28T14:53:35.000Z</time>
      </trkpt>
      <trkpt lat="43.43171" lon="6.39859">
        <ele>88.8</ele>
        <time>2022-09-28T14:53:40.000Z</time>
      </trkpt>
      <trkpt lat="43.43175" lon="6.39854">
        <ele>88.6</ele>
        <time>2022-09-28T14:53:45.000Z</time>
      </trkpt>
      <trkpt lat="43.43178" lon="6.3985">
        <ele>88.3</ele>
        <time>2022-09-28T14:53:50.000Z</time>
      </trkpt>
      <trkpt lat="43.43182" lon="6.39845">
        <ele>88.5</ele>
        <time>2022-09-28T14:53:54.000Z</time>
      </trkpt>
      <trkpt lat="43.43185" lon="6.3984">
        <ele>88.2</ele>
        <time>2022-09-28T14:53:59.000Z</time>
      </trkpt>
      <trkpt lat="43.43189" lon="6.39836">
        <ele>88.5</ele>
        <time>2022-09-28T14:54:03.000Z</time>
      </trkpt>
      <trkpt lat="43.43194" lon="6.39832">
        <ele>88.3</ele>
        <time>2022-09-28T14:54:08.000Z</time>
      </trkpt>
      <trkpt lat="43.43198" lon="6.39829">
        <ele>88</ele>
        <time>2022-09-28T14:54:12.000Z</time>
      </trkpt>
      <trkpt lat="43.43201" lon="6.39823">
        <ele>88.3</ele>
        <time>2022-09-28T14:54:17.000Z</time>
      </trkpt>
      <trkpt lat="43.43205" lon="6.39818">
        <ele>88.2</ele>
        <time>2022-09-28T14:54:22.000Z</time>
      </trkpt>
      <trkpt lat="43.43209" lon="6.39815">
        <ele>88.4</ele>
        <time>2022-09-28T14:54:25.000Z</time>
      </trkpt>
      <trkpt lat="43.43212" lon="6.39809">
        <ele>88.8</ele>
        <time>2022-09-28T14:54:30.000Z</time>
      </trkpt>
      <trkpt lat="43.43215" lon="6.39804">
        <ele>88.9</ele>
        <time>2022-09-28T14:54:34.000Z</time>
      </trkpt>
      <trkpt lat="43.43218" lon="6.398">
        <ele>89.1</ele>
        <time>2022-09-28T14:54:38.000Z</time>
      </trkpt>
      <trkpt lat="43.43222" lon="6.39796">
        <ele>88.9</ele>
        <time>2022-09-28T14:54:43.000Z</time>
      </trkpt>
      <trkpt lat="43.43226" lon="6.39791">
        <ele>88.3</ele>
        <time>2022-09-28T14:54:47.000Z</time>
      </trkpt>
      <trkpt lat="43.4323" lon="6.39788">
        <ele>88</ele>
        <time>2022-09-28T14:54:52.000Z</time>
      </trkpt>
      <trkpt lat="43.43235" lon="6.39786">
        <ele>88.2</ele>
        <time>2022-09-28T14:54:55.000Z</time>
      </trkpt>
      <trkpt lat="43.43241" lon="6.39785">
        <ele>88.3</ele>
        <time>2022-09-28T14:54:59.000Z</time>
      </trkpt>
      <trkpt lat="43.43245" lon="6.39781">
        <ele>88.4</ele>
        <time>2022-09-28T14:55:03.000Z</time>
      </trkpt>
      <trkpt lat="43.43249" lon="6.39778">
        <ele>87.9</ele>
        <time>2022-09-28T14:55:09.000Z</time>
      </trkpt>
      <trkpt lat="43.43254" lon="6.39775">
        <ele>87.8</ele>
        <time>2022-09-28T14:55:13.000Z</time>
      </trkpt>
      <trkpt lat="43.43259" lon="6.39773">
        <ele>87.8</ele>
        <time>2022-09-28T14:55:18.000Z</time>
      </trkpt>
      <trkpt lat="43.43263" lon="6.3977">
        <ele>87.1</ele>
        <time>2022-09-28T14:55:23.000Z</time>
      </trkpt>
      <trkpt lat="43.43268" lon="6.39768">
        <ele>87</ele>
        <time>2022-09-28T14:55:27.000Z</time>
      </trkpt>
      <trkpt lat="43.43273" lon="6.39768">
        <ele>86.5</ele>
        <time>2022-09-28T14:55:32.000Z</time>
      </trkpt>
      <trkpt lat="43.43277" lon="6.39764">
        <ele>86.6</ele>
        <time>2022-09-28T14:55:36.000Z</time>
      </trkpt>
      <trkpt lat="43.43281" lon="6.3976">
        <ele>86.6</ele>
        <time>2022-09-28T14:55:41.000Z</time>
      </trkpt>
      <trkpt lat="43.43286" lon="6.39758">
        <ele>86.5</ele>
        <time>2022-09-28T14:55:45.000Z</time>
      </trkpt>
      <trkpt lat="43.4329" lon="6.39755">
        <ele>85.6</ele>
        <time>2022-09-28T14:55:50.000Z</time>
      </trkpt>
      <trkpt lat="43.43296" lon="6.39754">
        <ele>85.4</ele>
        <time>2022-09-28T14:55:55.000Z</time>
      </trkpt>
      <trkpt lat="43.43301" lon="6.39751">
        <ele>84.9</ele>
        <time>2022-09-28T14:56:00.000Z</time>
      </trkpt>
      <trkpt lat="43.43305" lon="6.39748">
        <ele>84.9</ele>
        <time>2022-09-28T14:56:04.000Z</time>
      </trkpt>
      <trkpt lat="43.4331" lon="6.39745">
        <ele>84.5</ele>
        <time>2022-09-28T14:56:09.000Z</time>
      </trkpt>
      <trkpt lat="43.43315" lon="6.39743">
        <ele>84.6</ele>
        <time>2022-09-28T14:56:13.000Z</time>
      </trkpt>
      <trkpt lat="43.43319" lon="6.3974">
        <ele>84.5</ele>
        <time>2022-09-28T14:56:17.000Z</time>
      </trkpt>
      <trkpt lat="43.43324" lon="6.39737">
        <ele>84.3</ele>
        <time>2022-09-28T14:56:23.000Z</time>
      </trkpt>
      <trkpt lat="43.43329" lon="6.39734">
        <ele>84</ele>
        <time>2022-09-28T14:56:29.000Z</time>
      </trkpt>
      <trkpt lat="43.43333" lon="6.39731">
        <ele>84.3</ele>
        <time>2022-09-28T14:56:32.000Z</time>
      </trkpt>
      <trkpt lat="43.43338" lon="6.3973">
        <ele>84.2</ele>
        <time>2022-09-28T14:56:37.000Z</time>
      </trkpt>
      <trkpt lat="43.43343" lon="6.39725">
        <ele>84</ele>
        <time>2022-09-28T14:56:42.000Z</time>
      </trkpt>
      <trkpt lat="43.43348" lon="6.39723">
        <ele>84.4</ele>
        <time>2022-09-28T14:56:46.000Z</time>
      </trkpt>
      <trkpt lat="43.43353" lon="6.39722">
        <ele>84.5</ele>
        <time>2022-09-28T14:56:51.000Z</time>
      </trkpt>
      <trkpt lat="43.43358" lon="6.39719">
        <ele>84.8</ele>
        <time>2022-09-28T14:56:57.000Z</time>
      </trkpt>
      <trkpt lat="43.43362" lon="6.39716">
        <ele>85.1</ele>
        <time>2022-09-28T14:57:02.000Z</time>
      </trkpt>
      <trkpt lat="43.43367" lon="6.39714">
        <ele>85.5</ele>
        <time>2022-09-28T14:57:07.000Z</time>
      </trkpt>
      <trkpt lat="43.43371" lon="6.39711">
        <ele>85.8</ele>
        <time>2022-09-28T14:57:10.000Z</time>
      </trkpt>
      <trkpt lat="43.43376" lon="6.39709">
        <ele>85.6</ele>
        <time>2022-09-28T14:57:14.000Z</time>
      </trkpt>
      <trkpt lat="43.4338" lon="6.39704">
        <ele>85.9</ele>
        <time>2022-09-28T14:57:19.000Z</time>
      </trkpt>
      <trkpt lat="43.43385" lon="6.39702">
        <ele>85.7</ele>
        <time>2022-09-28T14:57:23.000Z</time>
      </trkpt>
      <trkpt lat="43.43389" lon="6.39698">
        <ele>85.9</ele>
        <time>2022-09-28T14:57:27.000Z</time>
      </trkpt>
      <trkpt lat="43.43393" lon="6.39694">
        <ele>86</ele>
        <time>2022-09-28T14:57:32.000Z</time>
      </trkpt>
      <trkpt lat="43.43397" lon="6.39691">
        <ele>85.9</ele>
        <time>2022-09-28T14:57:37.000Z</time>
      </trkpt>
      <trkpt lat="43.43403" lon="6.39688">
        <ele>85.9</ele>
        <time>2022-09-28T14:57:42.000Z</time>
      </trkpt>
      <trkpt lat="43.43407" lon="6.39685">
        <ele>85.9</ele>
        <time>2022-09-28T14:57:46.000Z</time>
      </trkpt>
      <trkpt lat="43.4341" lon="6.39681">
        <ele>85.9</ele>
        <time>2022-09-28T14:57:50.000Z</time>
      </trkpt>
      <trkpt lat="43.43413" lon="6.39676">
        <ele>85.9</ele>
        <time>2022-09-28T14:57:54.000Z</time>
      </trkpt>
      <trkpt lat="43.43418" lon="6.39672">
        <ele>86.4</ele>
        <time>2022-09-28T14:57:59.000Z</time>
      </trkpt>
      <trkpt lat="43.43422" lon="6.39669">
        <ele>86.3</ele>
        <time>2022-09-28T14:58:03.000Z</time>
      </trkpt>
      <trkpt lat="43.43425" lon="6.39664">
        <ele>86.6</ele>
        <time>2022-09-28T14:58:09.000Z</time>
      </trkpt>
      <trkpt lat="43.43429" lon="6.39661">
        <ele>87.1</ele>
        <time>2022-09-28T14:58:14.000Z</time>
      </trkpt>
      <trkpt lat="43.43433" lon="6.39656">
        <ele>87.2</ele>
        <time>2022-09-28T14:58:19.000Z</time>
      </trkpt>
      <trkpt lat="43.43436" lon="6.39651">
        <ele>87.8</ele>
        <time>2022-09-28T14:58:23.000Z</time>
      </trkpt>
      <trkpt lat="43.43439" lon="6.39647">
        <ele>87.8</ele>
        <time>2022-09-28T14:58:27.000Z</time>
      </trkpt>
      <trkpt lat="43.43443" lon="6.39643">
        <ele>88</ele>
        <time>2022-09-28T14:58:31.000Z</time>
      </trkpt>
      <trkpt lat="43.43446" lon="6.39638">
        <ele>88.3</ele>
        <time>2022-09-28T14:58:34.000Z</time>
      </trkpt>
      <trkpt lat="43.4345" lon="6.39632">
        <ele>88.5</ele>
        <time>2022-09-28T14:58:39.000Z</time>
      </trkpt>
      <trkpt lat="43.43453" lon="6.39628">
        <ele>88.5</ele>
        <time>2022-09-28T14:58:43.000Z</time>
      </trkpt>
      <trkpt lat="43.43458" lon="6.39624">
        <ele>89</ele>
        <time>2022-09-28T14:58:47.000Z</time>
      </trkpt>
      <trkpt lat="43.43461" lon="6.39619">
        <ele>89.3</ele>
        <time>2022-09-28T14:58:52.000Z</time>
      </trkpt>
      <trkpt lat="43.43464" lon="6.39614">
        <ele>89.5</ele>
        <time>2022-09-28T14:58:57.000Z</time>
      </trkpt>
      <trkpt lat="43.43468" lon="6.39608">
        <ele>89.8</ele>
        <time>2022-09-28T14:59:03.000Z</time>
      </trkpt>
      <trkpt lat="43.43472" lon="6.39603">
        <ele>90</ele>
        <time>2022-09-28T14:59:08.000Z</time>
      </trkpt>
      <trkpt lat="43.43476" lon="6.39599">
        <ele>90.1</ele>
        <time>2022-09-28T14:59:11.000Z</time>
      </trkpt>
      <trkpt lat="43.4348" lon="6.39592">
        <ele>90.6</ele>
        <time>2022-09-28T14:59:16.000Z</time>
      </trkpt>
      <trkpt lat="43.43484" lon="6.39588">
        <ele>90.3</ele>
        <time>2022-09-28T14:59:20.000Z</time>
      </trkpt>
      <trkpt lat="43.43486" lon="6.39583">
        <ele>90.7</ele>
        <time>2022-09-28T14:59:23.000Z</time>
      </trkpt>
      <trkpt lat="43.4349" lon="6.39578">
        <ele>90.8</ele>
        <time>2022-09-28T14:59:28.000Z</time>
      </trkpt>
      <trkpt lat="43.43492" lon="6.39571">
        <ele>90.8</ele>
        <time>2022-09-28T14:59:33.000Z</time>
      </trkpt>
      <trkpt lat="43.43494" lon="6.39566">
        <ele>90.7</ele>
        <time>2022-09-28T14:59:39.000Z</time>
      </trkpt>
      <trkpt lat="43.43498" lon="6.39561">
        <ele>91.1</ele>
        <time>2022-09-28T14:59:44.000Z</time>
      </trkpt>
      <trkpt lat="43.43502" lon="6.39557">
        <ele>91.4</ele>
        <time>2022-09-28T14:59:48.000Z</time>
      </trkpt>
      <trkpt lat="43.43506" lon="6.39553">
        <ele>91.5</ele>
        <time>2022-09-28T14:59:53.000Z</time>
      </trkpt>
      <trkpt lat="43.43511" lon="6.39549">
        <ele>91.5</ele>
        <time>2022-09-28T14:59:59.000Z</time>
      </trkpt>
      <trkpt lat="43.43515" lon="6.39547">
        <ele>91.7</ele>
        <time>2022-09-28T15:00:03.000Z</time>
      </trkpt>
      <trkpt lat="43.4352" lon="6.39544">
        <ele>91.7</ele>
        <time>2022-09-28T15:00:08.000Z</time>
      </trkpt>
      <trkpt lat="43.43525" lon="6.39541">
        <ele>91.7</ele>
        <time>2022-09-28T15:00:13.000Z</time>
      </trkpt>
      <trkpt lat="43.43529" lon="6.39537">
        <ele>92</ele>
        <time>2022-09-28T15:00:19.000Z</time>
      </trkpt>
      <trkpt lat="43.43533" lon="6.39535">
        <ele>92.1</ele>
        <time>2022-09-28T15:00:23.000Z</time>
      </trkpt>
      <trkpt lat="43.43538" lon="6.39533">
        <ele>91.5</ele>
        <time>2022-09-28T15:00:28.000Z</time>
      </trkpt>
      <trkpt lat="43.43543" lon="6.39529">
        <ele>91.5</ele>
        <time>2022-09-28T15:00:32.000Z</time>
      </trkpt>
      <trkpt lat="43.43547" lon="6.39526">
        <ele>91.9</ele>
        <time>2022-09-28T15:00:37.000Z</time>
      </trkpt>
      <trkpt lat="43.43551" lon="6.39522">
        <ele>92.4</ele>
        <time>2022-09-28T15:00:42.000Z</time>
      </trkpt>
      <trkpt lat="43.43555" lon="6.39518">
        <ele>92.7</ele>
        <time>2022-09-28T15:00:46.000Z</time>
      </trkpt>
      <trkpt lat="43.4356" lon="6.39517">
        <ele>93.1</ele>
        <time>2022-09-28T15:00:51.000Z</time>
      </trkpt>
      <trkpt lat="43.43564" lon="6.39513">
        <ele>93.2</ele>
        <time>2022-09-28T15:00:56.000Z</time>
      </trkpt>
      <trkpt lat="43.43568" lon="6.39508">
        <ele>93.6</ele>
        <time>2022-09-28T15:01:01.000Z</time>
      </trkpt>
      <trkpt lat="43.43571" lon="6.39503">
        <ele>93.9</ele>
        <time>2022-09-28T15:01:05.000Z</time>
      </trkpt>
      <trkpt lat="43.43574" lon="6.39498">
        <ele>94.2</ele>
        <time>2022-09-28T15:01:09.000Z</time>
      </trkpt>
      <trkpt lat="43.43578" lon="6.39492">
        <ele>94.5</ele>
        <time>2022-09-28T15:01:14.000Z</time>
      </trkpt>
      <trkpt lat="43.43579" lon="6.39486">
        <ele>94.8</ele>
        <time>2022-09-28T15:01:19.000Z</time>
      </trkpt>
      <trkpt lat="43.43582" lon="6.39479">
        <ele>95.1</ele>
        <time>2022-09-28T15:01:24.000Z</time>
      </trkpt>
      <trkpt lat="43.43584" lon="6.39473">
        <ele>95.3</ele>
        <time>2022-09-28T15:01:29.000Z</time>
      </trkpt>
      <trkpt lat="43.43585" lon="6.39466">
        <ele>95.6</ele>
        <time>2022-09-28T15:01:33.000Z</time>
      </trkpt>
      <trkpt lat="43.43587" lon="6.3946">
        <ele>95.6</ele>
        <time>2022-09-28T15:01:37.000Z</time>
      </trkpt>
      <trkpt lat="43.4359" lon="6.39453">
        <ele>95.6</ele>
        <time>2022-09-28T15:01:42.000Z</time>
      </trkpt>
      <trkpt lat="43.43592" lon="6.39447">
        <ele>95.6</ele>
        <time>2022-09-28T15:01:47.000Z</time>
      </trkpt>
      <trkpt lat="43.43594" lon="6.39442">
        <ele>95.7</ele>
        <time>2022-09-28T15:01:51.000Z</time>
      </trkpt>
      <trkpt lat="43.43595" lon="6.39435">
        <ele>95.4</ele>
        <time>2022-09-28T15:01:58.000Z</time>
      </trkpt>
      <trkpt lat="43.43598" lon="6.39429">
        <ele>95.4</ele>
        <time>2022-09-28T15:02:02.000Z</time>
      </trkpt>
      <trkpt lat="43.43602" lon="6.39424">
        <ele>95.3</ele>
        <time>2022-09-28T15:02:06.000Z</time>
      </trkpt>
      <trkpt lat="43.43605" lon="6.39418">
        <ele>95.5</ele>
        <time>2022-09-28T15:02:09.000Z</time>
      </trkpt>
      <trkpt lat="43.43607" lon="6.39413">
        <ele>95.7</ele>
        <time>2022-09-28T15:02:14.000Z</time>
      </trkpt>
      <trkpt lat="43.43609" lon="6.39405">
        <ele>96</ele>
        <time>2022-09-28T15:02:18.000Z</time>
      </trkpt>
      <trkpt lat="43.43612" lon="6.39399">
        <ele>95.9</ele>
        <time>2022-09-28T15:02:23.000Z</time>
      </trkpt>
      <trkpt lat="43.43615" lon="6.39394">
        <ele>95.5</ele>
        <time>2022-09-28T15:02:27.000Z</time>
      </trkpt>
      <trkpt lat="43.43618" lon="6.39388">
        <ele>95.9</ele>
        <time>2022-09-28T15:02:31.000Z</time>
      </trkpt>
      <trkpt lat="43.4362" lon="6.39381">
        <ele>95.8</ele>
        <time>2022-09-28T15:02:36.000Z</time>
      </trkpt>
      <trkpt lat="43.43623" lon="6.39375">
        <ele>95.9</ele>
        <time>2022-09-28T15:02:42.000Z</time>
      </trkpt>
      <trkpt lat="43.43627" lon="6.39372">
        <ele>96.1</ele>
        <time>2022-09-28T15:02:46.000Z</time>
      </trkpt>
      <trkpt lat="43.43631" lon="6.39369">
        <ele>96.1</ele>
        <time>2022-09-28T15:02:50.000Z</time>
      </trkpt>
      <trkpt lat="43.43634" lon="6.39364">
        <ele>96.4</ele>
        <time>2022-09-28T15:02:54.000Z</time>
      </trkpt>
      <trkpt lat="43.43637" lon="6.39358">
        <ele>96.3</ele>
        <time>2022-09-28T15:02:58.000Z</time>
      </trkpt>
      <trkpt lat="43.43641" lon="6.39354">
        <ele>96.4</ele>
        <time>2022-09-28T15:03:03.000Z</time>
      </trkpt>
      <trkpt lat="43.43644" lon="6.3935">
        <ele>96.7</ele>
        <time>2022-09-28T15:03:07.000Z</time>
      </trkpt>
      <trkpt lat="43.43649" lon="6.39346">
        <ele>96.7</ele>
        <time>2022-09-28T15:03:12.000Z</time>
      </trkpt>
      <trkpt lat="43.43653" lon="6.39341">
        <ele>96.7</ele>
        <time>2022-09-28T15:03:18.000Z</time>
      </trkpt>
      <trkpt lat="43.43657" lon="6.39338">
        <ele>97</ele>
        <time>2022-09-28T15:03:22.000Z</time>
      </trkpt>
      <trkpt lat="43.43659" lon="6.39332">
        <ele>97.3</ele>
        <time>2022-09-28T15:03:28.000Z</time>
      </trkpt>
      <trkpt lat="43.43663" lon="6.39326">
        <ele>97.9</ele>
        <time>2022-09-28T15:03:33.000Z</time>
      </trkpt>
      <trkpt lat="43.43666" lon="6.39321">
        <ele>98.5</ele>
        <time>2022-09-28T15:03:38.000Z</time>
      </trkpt>
      <trkpt lat="43.4367" lon="6.39318">
        <ele>98.4</ele>
        <time>2022-09-28T15:03:44.000Z</time>
      </trkpt>
      <trkpt lat="43.43675" lon="6.39319">
        <ele>99.2</ele>
        <time>2022-09-28T15:03:51.000Z</time>
      </trkpt>
      <trkpt lat="43.4368" lon="6.39322">
        <ele>99.3</ele>
        <time>2022-09-28T15:03:56.000Z</time>
      </trkpt>
      <trkpt lat="43.43684" lon="6.39324">
        <ele>99.5</ele>
        <time>2022-09-28T15:04:01.000Z</time>
      </trkpt>
      <trkpt lat="43.43689" lon="6.39326">
        <ele>99.4</ele>
        <time>2022-09-28T15:04:06.000Z</time>
      </trkpt>
      <trkpt lat="43.43694" lon="6.39329">
        <ele>99.3</ele>
        <time>2022-09-28T15:04:11.000Z</time>
      </trkpt>
      <trkpt lat="43.437" lon="6.39331">
        <ele>99.2</ele>
        <time>2022-09-28T15:04:16.000Z</time>
      </trkpt>
      <trkpt lat="43.43704" lon="6.39332">
        <ele>98.7</ele>
        <time>2022-09-28T15:04:22.000Z</time>
      </trkpt>
      <trkpt lat="43.43709" lon="6.39333">
        <ele>98.1</ele>
        <time>2022-09-28T15:04:28.000Z</time>
      </trkpt>
      <trkpt lat="43.43714" lon="6.39336">
        <ele>97.9</ele>
        <time>2022-09-28T15:04:33.000Z</time>
      </trkpt>
      <trkpt lat="43.43719" lon="6.39336">
        <ele>97.6</ele>
        <time>2022-09-28T15:04:38.000Z</time>
      </trkpt>
      <trkpt lat="43.43724" lon="6.39336">
        <ele>97.5</ele>
        <time>2022-09-28T15:04:42.000Z</time>
      </trkpt>
      <trkpt lat="43.43729" lon="6.39338">
        <ele>97.9</ele>
        <time>2022-09-28T15:04:46.000Z</time>
      </trkpt>
      <trkpt lat="43.43734" lon="6.39338">
        <ele>98.5</ele>
        <time>2022-09-28T15:04:49.000Z</time>
      </trkpt>
      <trkpt lat="43.43739" lon="6.39339">
        <ele>99.2</ele>
        <time>2022-09-28T15:04:55.000Z</time>
      </trkpt>
      <trkpt lat="43.43744" lon="6.39339">
        <ele>99.1</ele>
        <time>2022-09-28T15:04:58.000Z</time>
      </trkpt>
      <trkpt lat="43.43749" lon="6.39338">
        <ele>99.7</ele>
        <time>2022-09-28T15:05:03.000Z</time>
      </trkpt>
      <trkpt lat="43.43754" lon="6.39336">
        <ele>100</ele>
        <time>2022-09-28T15:05:08.000Z</time>
      </trkpt>
      <trkpt lat="43.43759" lon="6.39336">
        <ele>100</ele>
        <time>2022-09-28T15:05:13.000Z</time>
      </trkpt>
      <trkpt lat="43.43764" lon="6.39334">
        <ele>99.7</ele>
        <time>2022-09-28T15:05:18.000Z</time>
      </trkpt>
      <trkpt lat="43.43769" lon="6.39335">
        <ele>99.8</ele>
        <time>2022-09-28T15:05:22.000Z</time>
      </trkpt>
      <trkpt lat="43.43774" lon="6.39334">
        <ele>100.4</ele>
        <time>2022-09-28T15:05:27.000Z</time>
      </trkpt>
      <trkpt lat="43.43779" lon="6.39331">
        <ele>100.5</ele>
        <time>2022-09-28T15:05:32.000Z</time>
      </trkpt>
      <trkpt lat="43.43784" lon="6.39329">
        <ele>100.2</ele>
        <time>2022-09-28T15:05:38.000Z</time>
      </trkpt>
      <trkpt lat="43.43789" lon="6.39328">
        <ele>100</ele>
        <time>2022-09-28T15:05:42.000Z</time>
      </trkpt>
      <trkpt lat="43.43794" lon="6.39329">
        <ele>99.9</ele>
        <time>2022-09-28T15:05:46.000Z</time>
      </trkpt>
      <trkpt lat="43.43799" lon="6.39329">
        <ele>99.6</ele>
        <time>2022-09-28T15:05:52.000Z</time>
      </trkpt>
      <trkpt lat="43.43804" lon="6.39331">
        <ele>99.9</ele>
        <time>2022-09-28T15:05:56.000Z</time>
      </trkpt>
      <trkpt lat="43.43808" lon="6.39332">
        <ele>100.3</ele>
        <time>2022-09-28T15:06:02.000Z</time>
      </trkpt>
      <trkpt lat="43.43814" lon="6.39334">
        <ele>100.4</ele>
        <time>2022-09-28T15:06:06.000Z</time>
      </trkpt>
      <trkpt lat="43.43819" lon="6.39336">
        <ele>100.6</ele>
        <time>2022-09-28T15:06:11.000Z</time>
      </trkpt>
      <trkpt lat="43.43824" lon="6.39338">
        <ele>100.9</ele>
        <time>2022-09-28T15:06:15.000Z</time>
      </trkpt>
      <trkpt lat="43.43828" lon="6.39338">
        <ele>101.8</ele>
        <time>2022-09-28T15:06:21.000Z</time>
      </trkpt>
      <trkpt lat="43.43835" lon="6.3934">
        <ele>101.2</ele>
        <time>2022-09-28T15:06:28.000Z</time>
      </trkpt>
      <trkpt lat="43.4384" lon="6.3934">
        <ele>101.7</ele>
        <time>2022-09-28T15:06:33.000Z</time>
      </trkpt>
      <trkpt lat="43.43845" lon="6.39339">
        <ele>102.3</ele>
        <time>2022-09-28T15:06:36.000Z</time>
      </trkpt>
      <trkpt lat="43.4385" lon="6.39341">
        <ele>102.5</ele>
        <time>2022-09-28T15:06:41.000Z</time>
      </trkpt>
      <trkpt lat="43.43856" lon="6.39341">
        <ele>103.1</ele>
        <time>2022-09-28T15:06:46.000Z</time>
      </trkpt>
      <trkpt lat="43.43861" lon="6.3934">
        <ele>103.7</ele>
        <time>2022-09-28T15:06:51.000Z</time>
      </trkpt>
      <trkpt lat="43.43865" lon="6.39337">
        <ele>103.9</ele>
        <time>2022-09-28T15:06:55.000Z</time>
      </trkpt>
      <trkpt lat="43.43869" lon="6.39334">
        <ele>104.2</ele>
        <time>2022-09-28T15:06:59.000Z</time>
      </trkpt>
      <trkpt lat="43.43874" lon="6.39331">
        <ele>104.4</ele>
        <time>2022-09-28T15:07:04.000Z</time>
      </trkpt>
      <trkpt lat="43.43878" lon="6.39328">
        <ele>104.8</ele>
        <time>2022-09-28T15:07:07.000Z</time>
      </trkpt>
      <trkpt lat="43.43883" lon="6.39325">
        <ele>104.4</ele>
        <time>2022-09-28T15:07:12.000Z</time>
      </trkpt>
      <trkpt lat="43.43889" lon="6.39322">
        <ele>104.4</ele>
        <time>2022-09-28T15:07:16.000Z</time>
      </trkpt>
      <trkpt lat="43.43893" lon="6.3932">
        <ele>104.6</ele>
        <time>2022-09-28T15:07:20.000Z</time>
      </trkpt>
      <trkpt lat="43.43897" lon="6.39316">
        <ele>105</ele>
        <time>2022-09-28T15:07:24.000Z</time>
      </trkpt>
      <trkpt lat="43.43901" lon="6.39313">
        <ele>105.1</ele>
        <time>2022-09-28T15:07:28.000Z</time>
      </trkpt>
      <trkpt lat="43.43906" lon="6.3931">
        <ele>105.4</ele>
        <time>2022-09-28T15:07:33.000Z</time>
      </trkpt>
      <trkpt lat="43.4391" lon="6.39305">
        <ele>105.6</ele>
        <time>2022-09-28T15:07:38.000Z</time>
      </trkpt>
      <trkpt lat="43.43914" lon="6.393">
        <ele>105.8</ele>
        <time>2022-09-28T15:07:44.000Z</time>
      </trkpt>
      <trkpt lat="43.43916" lon="6.39294">
        <ele>106.2</ele>
        <time>2022-09-28T15:07:49.000Z</time>
      </trkpt>
      <trkpt lat="43.43916" lon="6.39287">
        <ele>107.2</ele>
        <time>2022-09-28T15:07:55.000Z</time>
      </trkpt>
      <trkpt lat="43.43913" lon="6.39282">
        <ele>107.5</ele>
        <time>2022-09-28T15:08:52.000Z</time>
      </trkpt>
      <trkpt lat="43.43913" lon="6.39276">
        <ele>106.9</ele>
        <time>2022-09-28T15:10:24.000Z</time>
      </trkpt>
      <trkpt lat="43.43908" lon="6.39275">
        <ele>108.5</ele>
        <time>2022-09-28T15:10:57.000Z</time>
      </trkpt>
      <trkpt lat="43.43903" lon="6.39277">
        <ele>108.6</ele>
        <time>2022-09-28T15:11:03.000Z</time>
      </trkpt>
      <trkpt lat="43.43898" lon="6.39277">
        <ele>109.7</ele>
        <time>2022-09-28T15:11:09.000Z</time>
      </trkpt>
      <trkpt lat="43.43893" lon="6.39278">
        <ele>110</ele>
        <time>2022-09-28T15:11:14.000Z</time>
      </trkpt>
      <trkpt lat="43.43889" lon="6.39279">
        <ele>110.2</ele>
        <time>2022-09-28T15:11:18.000Z</time>
      </trkpt>
      <trkpt lat="43.43884" lon="6.3928">
        <ele>110.4</ele>
        <time>2022-09-28T15:11:26.000Z</time>
      </trkpt>
      <trkpt lat="43.43879" lon="6.39281">
        <ele>111.7</ele>
        <time>2022-09-28T15:11:31.000Z</time>
      </trkpt>
      <trkpt lat="43.43874" lon="6.39282">
        <ele>112.4</ele>
        <time>2022-09-28T15:11:36.000Z</time>
      </trkpt>
      <trkpt lat="43.43869" lon="6.39283">
        <ele>112.7</ele>
        <time>2022-09-28T15:11:41.000Z</time>
      </trkpt>
      <trkpt lat="43.43863" lon="6.39284">
        <ele>112.8</ele>
        <time>2022-09-28T15:11:48.000Z</time>
      </trkpt>
      <trkpt lat="43.43858" lon="6.39283">
        <ele>113.3</ele>
        <time>2022-09-28T15:11:54.000Z</time>
      </trkpt>
      <trkpt lat="43.43853" lon="6.3928">
        <ele>113.6</ele>
        <time>2022-09-28T15:12:02.000Z</time>
      </trkpt>
      <trkpt lat="43.4385" lon="6.39275">
        <ele>114.1</ele>
        <time>2022-09-28T15:12:09.000Z</time>
      </trkpt>
      <trkpt lat="43.43848" lon="6.39269">
        <ele>114.2</ele>
        <time>2022-09-28T15:12:15.000Z</time>
      </trkpt>
      <trkpt lat="43.43848" lon="6.39262">
        <ele>114.2</ele>
        <time>2022-09-28T15:12:21.000Z</time>
      </trkpt>
      <trkpt lat="43.43848" lon="6.39255">
        <ele>114.4</ele>
        <time>2022-09-28T15:12:27.000Z</time>
      </trkpt>
      <trkpt lat="43.43847" lon="6.39248">
        <ele>114.5</ele>
        <time>2022-09-28T15:12:33.000Z</time>
      </trkpt>
      <trkpt lat="43.43847" lon="6.39242">
        <ele>114.8</ele>
        <time>2022-09-28T15:12:37.000Z</time>
      </trkpt>
      <trkpt lat="43.43844" lon="6.39236">
        <ele>115.4</ele>
        <time>2022-09-28T15:12:42.000Z</time>
      </trkpt>
      <trkpt lat="43.43843" lon="6.39229">
        <ele>115.8</ele>
        <time>2022-09-28T15:12:47.000Z</time>
      </trkpt>
      <trkpt lat="43.43842" lon="6.39222">
        <ele>116.2</ele>
        <time>2022-09-28T15:12:54.000Z</time>
      </trkpt>
      <trkpt lat="43.43841" lon="6.39216">
        <ele>116.3</ele>
        <time>2022-09-28T15:12:58.000Z</time>
      </trkpt>
      <trkpt lat="43.43839" lon="6.3921">
        <ele>116.7</ele>
        <time>2022-09-28T15:13:03.000Z</time>
      </trkpt>
      <trkpt lat="43.43838" lon="6.39203">
        <ele>117.3</ele>
        <time>2022-09-28T15:13:07.000Z</time>
      </trkpt>
      <trkpt lat="43.43836" lon="6.39197">
        <ele>117.5</ele>
        <time>2022-09-28T15:13:12.000Z</time>
      </trkpt>
      <trkpt lat="43.43834" lon="6.39191">
        <ele>117.6</ele>
        <time>2022-09-28T15:13:17.000Z</time>
      </trkpt>
      <trkpt lat="43.43832" lon="6.39185">
        <ele>117.9</ele>
        <time>2022-09-28T15:13:21.000Z</time>
      </trkpt>
      <trkpt lat="43.4383" lon="6.39178">
        <ele>118</ele>
        <time>2022-09-28T15:13:26.000Z</time>
      </trkpt>
      <trkpt lat="43.43829" lon="6.39172">
        <ele>118.1</ele>
        <time>2022-09-28T15:13:31.000Z</time>
      </trkpt>
      <trkpt lat="43.43826" lon="6.39165">
        <ele>119.1</ele>
        <time>2022-09-28T15:13:36.000Z</time>
      </trkpt>
      <trkpt lat="43.43823" lon="6.39159">
        <ele>119.4</ele>
        <time>2022-09-28T15:13:41.000Z</time>
      </trkpt>
      <trkpt lat="43.43823" lon="6.39151">
        <ele>119.8</ele>
        <time>2022-09-28T15:13:48.000Z</time>
      </trkpt>
      <trkpt lat="43.4382" lon="6.39146">
        <ele>120.2</ele>
        <time>2022-09-28T15:13:52.000Z</time>
      </trkpt>
      <trkpt lat="43.43817" lon="6.3914">
        <ele>120.5</ele>
        <time>2022-09-28T15:13:57.000Z</time>
      </trkpt>
      <trkpt lat="43.43814" lon="6.39135">
        <ele>120.7</ele>
        <time>2022-09-28T15:14:01.000Z</time>
      </trkpt>
      <trkpt lat="43.43811" lon="6.39129">
        <ele>120.9</ele>
        <time>2022-09-28T15:14:07.000Z</time>
      </trkpt>
      <trkpt lat="43.43808" lon="6.39123">
        <ele>121.2</ele>
        <time>2022-09-28T15:14:12.000Z</time>
      </trkpt>
      <trkpt lat="43.43806" lon="6.39118">
        <ele>121.5</ele>
        <time>2022-09-28T15:14:17.000Z</time>
      </trkpt>
      <trkpt lat="43.43803" lon="6.39112">
        <ele>122.1</ele>
        <time>2022-09-28T15:14:22.000Z</time>
      </trkpt>
      <trkpt lat="43.43801" lon="6.39105">
        <ele>122.5</ele>
        <time>2022-09-28T15:14:28.000Z</time>
      </trkpt>
      <trkpt lat="43.43799" lon="6.391">
        <ele>123</ele>
        <time>2022-09-28T15:14:33.000Z</time>
      </trkpt>
      <trkpt lat="43.43796" lon="6.39094">
        <ele>123.6</ele>
        <time>2022-09-28T15:14:40.000Z</time>
      </trkpt>
      <trkpt lat="43.43794" lon="6.39088">
        <ele>124.4</ele>
        <time>2022-09-28T15:14:43.000Z</time>
      </trkpt>
      <trkpt lat="43.43791" lon="6.39082">
        <ele>124.8</ele>
        <time>2022-09-28T15:14:47.000Z</time>
      </trkpt>
      <trkpt lat="43.43788" lon="6.39077">
        <ele>125.5</ele>
        <time>2022-09-28T15:14:52.000Z</time>
      </trkpt>
      <trkpt lat="43.43787" lon="6.3907">
        <ele>125.9</ele>
        <time>2022-09-28T15:14:57.000Z</time>
      </trkpt>
      <trkpt lat="43.43784" lon="6.39065">
        <ele>126.2</ele>
        <time>2022-09-28T15:15:03.000Z</time>
      </trkpt>
      <trkpt lat="43.43781" lon="6.39059">
        <ele>126.7</ele>
        <time>2022-09-28T15:15:07.000Z</time>
      </trkpt>
      <trkpt lat="43.43779" lon="6.39053">
        <ele>127.4</ele>
        <time>2022-09-28T15:15:13.000Z</time>
      </trkpt>
      <trkpt lat="43.43779" lon="6.39046">
        <ele>127.4</ele>
        <time>2022-09-28T15:15:19.000Z</time>
      </trkpt>
      <trkpt lat="43.4378" lon="6.39039">
        <ele>127.5</ele>
        <time>2022-09-28T15:15:23.000Z</time>
      </trkpt>
      <trkpt lat="43.43781" lon="6.39033">
        <ele>127.3</ele>
        <time>2022-09-28T15:15:29.000Z</time>
      </trkpt>
      <trkpt lat="43.43781" lon="6.39025">
        <ele>128.5</ele>
        <time>2022-09-28T15:15:36.000Z</time>
      </trkpt>
      <trkpt lat="43.43783" lon="6.39019">
        <ele>128.9</ele>
        <time>2022-09-28T15:15:41.000Z</time>
      </trkpt>
      <trkpt lat="43.43784" lon="6.39012">
        <ele>129.1</ele>
        <time>2022-09-28T15:15:46.000Z</time>
      </trkpt>
      <trkpt lat="43.43785" lon="6.39006">
        <ele>129.9</ele>
        <time>2022-09-28T15:15:51.000Z</time>
      </trkpt>
      <trkpt lat="43.43787" lon="6.39">
        <ele>130</ele>
        <time>2022-09-28T15:15:56.000Z</time>
      </trkpt>
      <trkpt lat="43.43788" lon="6.38993">
        <ele>130.1</ele>
        <time>2022-09-28T15:16:02.000Z</time>
      </trkpt>
      <trkpt lat="43.4379" lon="6.38987">
        <ele>130.7</ele>
        <time>2022-09-28T15:16:06.000Z</time>
      </trkpt>
      <trkpt lat="43.43794" lon="6.38981">
        <ele>131.1</ele>
        <time>2022-09-28T15:16:10.000Z</time>
      </trkpt>
      <trkpt lat="43.43797" lon="6.38975">
        <ele>131.5</ele>
        <time>2022-09-28T15:16:17.000Z</time>
      </trkpt>
      <trkpt lat="43.43798" lon="6.38968">
        <ele>131.8</ele>
        <time>2022-09-28T15:16:21.000Z</time>
      </trkpt>
      <trkpt lat="43.43799" lon="6.38962">
        <ele>131.9</ele>
        <time>2022-09-28T15:16:26.000Z</time>
      </trkpt>
      <trkpt lat="43.43801" lon="6.38956">
        <ele>132.2</ele>
        <time>2022-09-28T15:16:31.000Z</time>
      </trkpt>
      <trkpt lat="43.43803" lon="6.38951">
        <ele>132.9</ele>
        <time>2022-09-28T15:16:36.000Z</time>
      </trkpt>
      <trkpt lat="43.43807" lon="6.38946">
        <ele>132.8</ele>
        <time>2022-09-28T15:16:41.000Z</time>
      </trkpt>
      <trkpt lat="43.43809" lon="6.3894">
        <ele>133</ele>
        <time>2022-09-28T15:16:45.000Z</time>
      </trkpt>
      <trkpt lat="43.43809" lon="6.38934">
        <ele>133.4</ele>
        <time>2022-09-28T15:16:53.000Z</time>
      </trkpt>
      <trkpt lat="43.43812" lon="6.38927">
        <ele>133.9</ele>
        <time>2022-09-28T15:16:59.000Z</time>
      </trkpt>
      <trkpt lat="43.43814" lon="6.3892">
        <ele>133.7</ele>
        <time>2022-09-28T15:17:04.000Z</time>
      </trkpt>
      <trkpt lat="43.43818" lon="6.38918">
        <ele>133.7</ele>
        <time>2022-09-28T15:17:08.000Z</time>
      </trkpt>
      <trkpt lat="43.43822" lon="6.38913">
        <ele>133.8</ele>
        <time>2022-09-28T15:17:13.000Z</time>
      </trkpt>
      <trkpt lat="43.43826" lon="6.38909">
        <ele>133.9</ele>
        <time>2022-09-28T15:17:18.000Z</time>
      </trkpt>
      <trkpt lat="43.43829" lon="6.38904">
        <ele>134.6</ele>
        <time>2022-09-28T15:17:22.000Z</time>
      </trkpt>
      <trkpt lat="43.43831" lon="6.38898">
        <ele>135</ele>
        <time>2022-09-28T15:17:28.000Z</time>
      </trkpt>
      <trkpt lat="43.43832" lon="6.38891">
        <ele>135.3</ele>
        <time>2022-09-28T15:17:31.000Z</time>
      </trkpt>
      <trkpt lat="43.43833" lon="6.38885">
        <ele>135.6</ele>
        <time>2022-09-28T15:17:35.000Z</time>
      </trkpt>
      <trkpt lat="43.43836" lon="6.38877">
        <ele>136</ele>
        <time>2022-09-28T15:17:40.000Z</time>
      </trkpt>
      <trkpt lat="43.43836" lon="6.38871">
        <ele>136.2</ele>
        <time>2022-09-28T15:17:45.000Z</time>
      </trkpt>
      <trkpt lat="43.43837" lon="6.38863">
        <ele>136.2</ele>
        <time>2022-09-28T15:17:50.000Z</time>
      </trkpt>
      <trkpt lat="43.43838" lon="6.38856">
        <ele>137</ele>
        <time>2022-09-28T15:17:55.000Z</time>
      </trkpt>
      <trkpt lat="43.43841" lon="6.3885">
        <ele>137.6</ele>
        <time>2022-09-28T15:17:59.000Z</time>
      </trkpt>
      <trkpt lat="43.43842" lon="6.38844">
        <ele>137.6</ele>
        <time>2022-09-28T15:18:04.000Z</time>
      </trkpt>
      <trkpt lat="43.43841" lon="6.38837">
        <ele>137.7</ele>
        <time>2022-09-28T15:18:09.000Z</time>
      </trkpt>
      <trkpt lat="43.43841" lon="6.3883">
        <ele>138</ele>
        <time>2022-09-28T15:18:14.000Z</time>
      </trkpt>
      <trkpt lat="43.43842" lon="6.38824">
        <ele>138.5</ele>
        <time>2022-09-28T15:18:20.000Z</time>
      </trkpt>
      <trkpt lat="43.43841" lon="6.38817">
        <ele>138.8</ele>
        <time>2022-09-28T15:18:25.000Z</time>
      </trkpt>
      <trkpt lat="43.43843" lon="6.38811">
        <ele>138.8</ele>
        <time>2022-09-28T15:18:29.000Z</time>
      </trkpt>
      <trkpt lat="43.43844" lon="6.38805">
        <ele>138.8</ele>
        <time>2022-09-28T15:18:34.000Z</time>
      </trkpt>
      <trkpt lat="43.43845" lon="6.38797">
        <ele>139.2</ele>
        <time>2022-09-28T15:18:39.000Z</time>
      </trkpt>
      <trkpt lat="43.43848" lon="6.38791">
        <ele>139.4</ele>
        <time>2022-09-28T15:18:44.000Z</time>
      </trkpt>
      <trkpt lat="43.43849" lon="6.38784">
        <ele>139.7</ele>
        <time>2022-09-28T15:18:48.000Z</time>
      </trkpt>
      <trkpt lat="43.43848" lon="6.38777">
        <ele>140.8</ele>
        <time>2022-09-28T15:18:53.000Z</time>
      </trkpt>
      <trkpt lat="43.43846" lon="6.38771">
        <ele>141.4</ele>
        <time>2022-09-28T15:18:58.000Z</time>
      </trkpt>
      <trkpt lat="43.43847" lon="6.38764">
        <ele>142</ele>
        <time>2022-09-28T15:19:03.000Z</time>
      </trkpt>
      <trkpt lat="43.43846" lon="6.38757">
        <ele>142.3</ele>
        <time>2022-09-28T15:19:07.000Z</time>
      </trkpt>
      <trkpt lat="43.43847" lon="6.3875">
        <ele>142.8</ele>
        <time>2022-09-28T15:19:11.000Z</time>
      </trkpt>
      <trkpt lat="43.43848" lon="6.38743">
        <ele>143.2</ele>
        <time>2022-09-28T15:19:16.000Z</time>
      </trkpt>
      <trkpt lat="43.43848" lon="6.38737">
        <ele>143.7</ele>
        <time>2022-09-28T15:19:22.000Z</time>
      </trkpt>
      <trkpt lat="43.43849" lon="6.3873">
        <ele>144.1</ele>
        <time>2022-09-28T15:19:27.000Z</time>
      </trkpt>
      <trkpt lat="43.4385" lon="6.38723">
        <ele>144.9</ele>
        <time>2022-09-28T15:19:32.000Z</time>
      </trkpt>
      <trkpt lat="43.4385" lon="6.38716">
        <ele>144.7</ele>
        <time>2022-09-28T15:19:37.000Z</time>
      </trkpt>
      <trkpt lat="43.43851" lon="6.3871">
        <ele>144.8</ele>
        <time>2022-09-28T15:19:41.000Z</time>
      </trkpt>
      <trkpt lat="43.43851" lon="6.38703">
        <ele>145.7</ele>
        <time>2022-09-28T15:19:45.000Z</time>
      </trkpt>
      <trkpt lat="43.43852" lon="6.38696">
        <ele>145.5</ele>
        <time>2022-09-28T15:19:50.000Z</time>
      </trkpt>
      <trkpt lat="43.43852" lon="6.3869">
        <ele>146.6</ele>
        <time>2022-09-28T15:19:55.000Z</time>
      </trkpt>
      <trkpt lat="43.43853" lon="6.38683">
        <ele>146.8</ele>
        <time>2022-09-28T15:20:01.000Z</time>
      </trkpt>
      <trkpt lat="43.43853" lon="6.38676">
        <ele>147.7</ele>
        <time>2022-09-28T15:20:07.000Z</time>
      </trkpt>
      <trkpt lat="43.43853" lon="6.3867">
        <ele>148.3</ele>
        <time>2022-09-28T15:20:13.000Z</time>
      </trkpt>
      <trkpt lat="43.43854" lon="6.38664">
        <ele>148.9</ele>
        <time>2022-09-28T15:20:18.000Z</time>
      </trkpt>
      <trkpt lat="43.43853" lon="6.38657">
        <ele>149.5</ele>
        <time>2022-09-28T15:20:24.000Z</time>
      </trkpt>
      <trkpt lat="43.43854" lon="6.3865">
        <ele>149.9</ele>
        <time>2022-09-28T15:20:30.000Z</time>
      </trkpt>
      <trkpt lat="43.43855" lon="6.38644">
        <ele>150.3</ele>
        <time>2022-09-28T15:20:35.000Z</time>
      </trkpt>
      <trkpt lat="43.43856" lon="6.38637">
        <ele>150.9</ele>
        <time>2022-09-28T15:20:40.000Z</time>
      </trkpt>
      <trkpt lat="43.43855" lon="6.3863">
        <ele>150.9</ele>
        <time>2022-09-28T15:20:45.000Z</time>
      </trkpt>
      <trkpt lat="43.43854" lon="6.38624">
        <ele>151.3</ele>
        <time>2022-09-28T15:20:49.000Z</time>
      </trkpt>
      <trkpt lat="43.43849" lon="6.38622">
        <ele>151.5</ele>
        <time>2022-09-28T15:21:08.000Z</time>
      </trkpt>
      <trkpt lat="43.4385" lon="6.38616">
        <ele>152</ele>
        <time>2022-09-28T15:21:45.000Z</time>
      </trkpt>
      <trkpt lat="43.43851" lon="6.3861">
        <ele>151.9</ele>
        <time>2022-09-28T15:21:50.000Z</time>
      </trkpt>
      <trkpt lat="43.43853" lon="6.38604">
        <ele>152</ele>
        <time>2022-09-28T15:21:54.000Z</time>
      </trkpt>
      <trkpt lat="43.43854" lon="6.38596">
        <ele>152.3</ele>
        <time>2022-09-28T15:22:00.000Z</time>
      </trkpt>
      <trkpt lat="43.43855" lon="6.38589">
        <ele>153.1</ele>
        <time>2022-09-28T15:22:05.000Z</time>
      </trkpt>
      <trkpt lat="43.43856" lon="6.38582">
        <ele>153.3</ele>
        <time>2022-09-28T15:22:08.000Z</time>
      </trkpt>
      <trkpt lat="43.43859" lon="6.38576">
        <ele>153.3</ele>
        <time>2022-09-28T15:22:13.000Z</time>
      </trkpt>
      <trkpt lat="43.4386" lon="6.38569">
        <ele>153.5</ele>
        <time>2022-09-28T15:22:18.000Z</time>
      </trkpt>
      <trkpt lat="43.4386" lon="6.38563">
        <ele>153.8</ele>
        <time>2022-09-28T15:22:23.000Z</time>
      </trkpt>
      <trkpt lat="43.4386" lon="6.38555">
        <ele>154.1</ele>
        <time>2022-09-28T15:22:27.000Z</time>
      </trkpt>
      <trkpt lat="43.43858" lon="6.38548">
        <ele>154.1</ele>
        <time>2022-09-28T15:22:32.000Z</time>
      </trkpt>
      <trkpt lat="43.4386" lon="6.3854">
        <ele>154.3</ele>
        <time>2022-09-28T15:22:37.000Z</time>
      </trkpt>
      <trkpt lat="43.4386" lon="6.38533">
        <ele>154.8</ele>
        <time>2022-09-28T15:22:43.000Z</time>
      </trkpt>
      <trkpt lat="43.4386" lon="6.38527">
        <ele>154.9</ele>
        <time>2022-09-28T15:22:47.000Z</time>
      </trkpt>
      <trkpt lat="43.4386" lon="6.3852">
        <ele>155.2</ele>
        <time>2022-09-28T15:22:53.000Z</time>
      </trkpt>
      <trkpt lat="43.43865" lon="6.38516">
        <ele>155.6</ele>
        <time>2022-09-28T15:23:04.000Z</time>
      </trkpt>
      <trkpt lat="43.4387" lon="6.38516">
        <ele>155.5</ele>
        <time>2022-09-28T15:23:11.000Z</time>
      </trkpt>
      <trkpt lat="43.43875" lon="6.38515">
        <ele>155.1</ele>
        <time>2022-09-28T15:23:17.000Z</time>
      </trkpt>
      <trkpt lat="43.43879" lon="6.38517">
        <ele>154.8</ele>
        <time>2022-09-28T15:23:21.000Z</time>
      </trkpt>
      <trkpt lat="43.43885" lon="6.38519">
        <ele>155.7</ele>
        <time>2022-09-28T15:23:27.000Z</time>
      </trkpt>
      <trkpt lat="43.4389" lon="6.38518">
        <ele>155.8</ele>
        <time>2022-09-28T15:23:30.000Z</time>
      </trkpt>
      <trkpt lat="43.43896" lon="6.38518">
        <ele>155.6</ele>
        <time>2022-09-28T15:23:35.000Z</time>
      </trkpt>
      <trkpt lat="43.43902" lon="6.38518">
        <ele>156.1</ele>
        <time>2022-09-28T15:23:41.000Z</time>
      </trkpt>
      <trkpt lat="43.43906" lon="6.38519">
        <ele>156.7</ele>
        <time>2022-09-28T15:23:49.000Z</time>
      </trkpt>
      <trkpt lat="43.43911" lon="6.3852">
        <ele>157.6</ele>
        <time>2022-09-28T15:23:54.000Z</time>
      </trkpt>
      <trkpt lat="43.43916" lon="6.3852">
        <ele>158.3</ele>
        <time>2022-09-28T15:23:59.000Z</time>
      </trkpt>
      <trkpt lat="43.43921" lon="6.3852">
        <ele>159</ele>
        <time>2022-09-28T15:24:04.000Z</time>
      </trkpt>
      <trkpt lat="43.43926" lon="6.3852">
        <ele>159.7</ele>
        <time>2022-09-28T15:24:09.000Z</time>
      </trkpt>
      <trkpt lat="43.43931" lon="6.38519">
        <ele>160.4</ele>
        <time>2022-09-28T15:24:16.000Z</time>
      </trkpt>
      <trkpt lat="43.43935" lon="6.38517">
        <ele>161.6</ele>
        <time>2022-09-28T15:24:20.000Z</time>
      </trkpt>
      <trkpt lat="43.4394" lon="6.38515">
        <ele>162.5</ele>
        <time>2022-09-28T15:24:26.000Z</time>
      </trkpt>
      <trkpt lat="43.43944" lon="6.38514">
        <ele>163.6</ele>
        <time>2022-09-28T15:24:34.000Z</time>
      </trkpt>
      <trkpt lat="43.43949" lon="6.38513">
        <ele>164.5</ele>
        <time>2022-09-28T15:24:41.000Z</time>
      </trkpt>
      <trkpt lat="43.43955" lon="6.38511">
        <ele>165.5</ele>
        <time>2022-09-28T15:24:47.000Z</time>
      </trkpt>
      <trkpt lat="43.4396" lon="6.38511">
        <ele>166.6</ele>
        <time>2022-09-28T15:24:54.000Z</time>
      </trkpt>
      <trkpt lat="43.43964" lon="6.38511">
        <ele>166.9</ele>
        <time>2022-09-28T15:24:59.000Z</time>
      </trkpt>
      <trkpt lat="43.4397" lon="6.3851">
        <ele>167.5</ele>
        <time>2022-09-28T15:25:05.000Z</time>
      </trkpt>
      <trkpt lat="43.43974" lon="6.3851">
        <ele>168.1</ele>
        <time>2022-09-28T15:25:09.000Z</time>
      </trkpt>
      <trkpt lat="43.43979" lon="6.38508">
        <ele>170.1</ele>
        <time>2022-09-28T15:25:14.000Z</time>
      </trkpt>
      <trkpt lat="43.43985" lon="6.38508">
        <ele>170.4</ele>
        <time>2022-09-28T15:25:19.000Z</time>
      </trkpt>
      <trkpt lat="43.43989" lon="6.38506">
        <ele>170.1</ele>
        <time>2022-09-28T15:25:23.000Z</time>
      </trkpt>
      <trkpt lat="43.43994" lon="6.38505">
        <ele>170.5</ele>
        <time>2022-09-28T15:25:28.000Z</time>
      </trkpt>
      <trkpt lat="43.43998" lon="6.38504">
        <ele>171.9</ele>
        <time>2022-09-28T15:25:32.000Z</time>
      </trkpt>
      <trkpt lat="43.44004" lon="6.38504">
        <ele>172.2</ele>
        <time>2022-09-28T15:25:36.000Z</time>
      </trkpt>
      <trkpt lat="43.44009" lon="6.38505">
        <ele>172.5</ele>
        <time>2022-09-28T15:25:42.000Z</time>
      </trkpt>
      <trkpt lat="43.44013" lon="6.38503">
        <ele>172</ele>
        <time>2022-09-28T15:25:49.000Z</time>
      </trkpt>
      <trkpt lat="43.44018" lon="6.38503">
        <ele>173.2</ele>
        <time>2022-09-28T15:25:52.000Z</time>
      </trkpt>
      <trkpt lat="43.44023" lon="6.38503">
        <ele>174.2</ele>
        <time>2022-09-28T15:25:57.000Z</time>
      </trkpt>
      <trkpt lat="43.44027" lon="6.38499">
        <ele>174.7</ele>
        <time>2022-09-28T15:26:02.000Z</time>
      </trkpt>
      <trkpt lat="43.44031" lon="6.38498">
        <ele>175.1</ele>
        <time>2022-09-28T15:26:06.000Z</time>
      </trkpt>
      <trkpt lat="43.44036" lon="6.38495">
        <ele>175</ele>
        <time>2022-09-28T15:26:10.000Z</time>
      </trkpt>
      <trkpt lat="43.44041" lon="6.38493">
        <ele>175.1</ele>
        <time>2022-09-28T15:26:15.000Z</time>
      </trkpt>
      <trkpt lat="43.44046" lon="6.38492">
        <ele>175.6</ele>
        <time>2022-09-28T15:26:19.000Z</time>
      </trkpt>
      <trkpt lat="43.44051" lon="6.38489">
        <ele>175.2</ele>
        <time>2022-09-28T15:26:24.000Z</time>
      </trkpt>
      <trkpt lat="43.44055" lon="6.38489">
        <ele>175.3</ele>
        <time>2022-09-28T15:26:28.000Z</time>
      </trkpt>
      <trkpt lat="43.44062" lon="6.3849">
        <ele>175.3</ele>
        <time>2022-09-28T15:26:33.000Z</time>
      </trkpt>
      <trkpt lat="43.44067" lon="6.38489">
        <ele>175.8</ele>
        <time>2022-09-28T15:26:37.000Z</time>
      </trkpt>
      <trkpt lat="43.44071" lon="6.38486">
        <ele>175.6</ele>
        <time>2022-09-28T15:26:41.000Z</time>
      </trkpt>
      <trkpt lat="43.44076" lon="6.38486">
        <ele>175.5</ele>
        <time>2022-09-28T15:26:44.000Z</time>
      </trkpt>
      <trkpt lat="43.4408" lon="6.38485">
        <ele>175.5</ele>
        <time>2022-09-28T15:26:49.000Z</time>
      </trkpt>
      <trkpt lat="43.44086" lon="6.38484">
        <ele>175.5</ele>
        <time>2022-09-28T15:26:53.000Z</time>
      </trkpt>
      <trkpt lat="43.44092" lon="6.38484">
        <ele>175.5</ele>
        <time>2022-09-28T15:26:58.000Z</time>
      </trkpt>
      <trkpt lat="43.44096" lon="6.38484">
        <ele>175.4</ele>
        <time>2022-09-28T15:27:02.000Z</time>
      </trkpt>
      <trkpt lat="43.44101" lon="6.38485">
        <ele>175.2</ele>
        <time>2022-09-28T15:27:05.000Z</time>
      </trkpt>
      <trkpt lat="43.44106" lon="6.38485">
        <ele>175.2</ele>
        <time>2022-09-28T15:27:08.000Z</time>
      </trkpt>
      <trkpt lat="43.44111" lon="6.38486">
        <ele>174.9</ele>
        <time>2022-09-28T15:27:13.000Z</time>
      </trkpt>
      <trkpt lat="43.44116" lon="6.38485">
        <ele>174.7</ele>
        <time>2022-09-28T15:27:16.000Z</time>
      </trkpt>
      <trkpt lat="43.44121" lon="6.38485">
        <ele>174.6</ele>
        <time>2022-09-28T15:27:19.000Z</time>
      </trkpt>
      <trkpt lat="43.44126" lon="6.38487">
        <ele>174</ele>
        <time>2022-09-28T15:27:24.000Z</time>
      </trkpt>
      <trkpt lat="43.4413" lon="6.38482">
        <ele>173.9</ele>
        <time>2022-09-28T15:27:29.000Z</time>
      </trkpt>
      <trkpt lat="43.44134" lon="6.38481">
        <ele>173.5</ele>
        <time>2022-09-28T15:27:40.000Z</time>
      </trkpt>
      <trkpt lat="43.44141" lon="6.38482">
        <ele>173.5</ele>
        <time>2022-09-28T15:27:43.000Z</time>
      </trkpt>
      <trkpt lat="43.44146" lon="6.38483">
        <ele>172.5</ele>
        <time>2022-09-28T15:27:49.000Z</time>
      </trkpt>
      <trkpt lat="43.44152" lon="6.38483">
        <ele>171.9</ele>
        <time>2022-09-28T15:27:54.000Z</time>
      </trkpt>
      <trkpt lat="43.44156" lon="6.38486">
        <ele>171</ele>
        <time>2022-09-28T15:27:58.000Z</time>
      </trkpt>
      <trkpt lat="43.44161" lon="6.38488">
        <ele>170.6</ele>
        <time>2022-09-28T15:28:04.000Z</time>
      </trkpt>
      <trkpt lat="43.44166" lon="6.38486">
        <ele>170.3</ele>
        <time>2022-09-28T15:28:08.000Z</time>
      </trkpt>
      <trkpt lat="43.44172" lon="6.38486">
        <ele>169.9</ele>
        <time>2022-09-28T15:28:14.000Z</time>
      </trkpt>
      <trkpt lat="43.44177" lon="6.38486">
        <ele>169.8</ele>
        <time>2022-09-28T15:28:17.000Z</time>
      </trkpt>
      <trkpt lat="43.44182" lon="6.38485">
        <ele>169.2</ele>
        <time>2022-09-28T15:28:23.000Z</time>
      </trkpt>
      <trkpt lat="43.44187" lon="6.38485">
        <ele>169.5</ele>
        <time>2022-09-28T15:28:26.000Z</time>
      </trkpt>
      <trkpt lat="43.44191" lon="6.38482">
        <ele>169.1</ele>
        <time>2022-09-28T15:28:30.000Z</time>
      </trkpt>
      <trkpt lat="43.44196" lon="6.38481">
        <ele>169</ele>
        <time>2022-09-28T15:28:34.000Z</time>
      </trkpt>
      <trkpt lat="43.44201" lon="6.38481">
        <ele>169.1</ele>
        <time>2022-09-28T15:28:37.000Z</time>
      </trkpt>
      <trkpt lat="43.44206" lon="6.38481">
        <ele>169</ele>
        <time>2022-09-28T15:28:42.000Z</time>
      </trkpt>
      <trkpt lat="43.4421" lon="6.38482">
        <ele>169.3</ele>
        <time>2022-09-28T15:28:45.000Z</time>
      </trkpt>
      <trkpt lat="43.44215" lon="6.38483">
        <ele>169.4</ele>
        <time>2022-09-28T15:28:50.000Z</time>
      </trkpt>
      <trkpt lat="43.44221" lon="6.38482">
        <ele>169.7</ele>
        <time>2022-09-28T15:28:53.000Z</time>
      </trkpt>
      <trkpt lat="43.44225" lon="6.38482">
        <ele>170</ele>
        <time>2022-09-28T15:28:56.000Z</time>
      </trkpt>
      <trkpt lat="43.44231" lon="6.38479">
        <ele>169.9</ele>
        <time>2022-09-28T15:29:01.000Z</time>
      </trkpt>
      <trkpt lat="43.44236" lon="6.3848">
        <ele>169.8</ele>
        <time>2022-09-28T15:29:04.000Z</time>
      </trkpt>
      <trkpt lat="43.4424" lon="6.38477">
        <ele>169.9</ele>
        <time>2022-09-28T15:29:09.000Z</time>
      </trkpt>
      <trkpt lat="43.44245" lon="6.38476">
        <ele>170.2</ele>
        <time>2022-09-28T15:29:13.000Z</time>
      </trkpt>
      <trkpt lat="43.44251" lon="6.38473">
        <ele>170.1</ele>
        <time>2022-09-28T15:29:18.000Z</time>
      </trkpt>
      <trkpt lat="43.44256" lon="6.38471">
        <ele>170.4</ele>
        <time>2022-09-28T15:29:24.000Z</time>
      </trkpt>
      <trkpt lat="43.4426" lon="6.38471">
        <ele>170.5</ele>
        <time>2022-09-28T15:29:29.000Z</time>
      </trkpt>
      <trkpt lat="43.44265" lon="6.38469">
        <ele>171.1</ele>
        <time>2022-09-28T15:29:33.000Z</time>
      </trkpt>
      <trkpt lat="43.44269" lon="6.38468">
        <ele>171.1</ele>
        <time>2022-09-28T15:29:37.000Z</time>
      </trkpt>
      <trkpt lat="43.44274" lon="6.38467">
        <ele>171.2</ele>
        <time>2022-09-28T15:29:42.000Z</time>
      </trkpt>
      <trkpt lat="43.44278" lon="6.38464">
        <ele>171.7</ele>
        <time>2022-09-28T15:29:47.000Z</time>
      </trkpt>
      <trkpt lat="43.44283" lon="6.38462">
        <ele>172.5</ele>
        <time>2022-09-28T15:29:52.000Z</time>
      </trkpt>
      <trkpt lat="43.44288" lon="6.38459">
        <ele>172.9</ele>
        <time>2022-09-28T15:29:56.000Z</time>
      </trkpt>
      <trkpt lat="43.44292" lon="6.38456">
        <ele>172.6</ele>
        <time>2022-09-28T15:30:00.000Z</time>
      </trkpt>
      <trkpt lat="43.44296" lon="6.38452">
        <ele>172.8</ele>
        <time>2022-09-28T15:30:05.000Z</time>
      </trkpt>
      <trkpt lat="43.443" lon="6.38447">
        <ele>172.7</ele>
        <time>2022-09-28T15:30:10.000Z</time>
      </trkpt>
      <trkpt lat="43.44305" lon="6.38442">
        <ele>173.2</ele>
        <time>2022-09-28T15:30:16.000Z</time>
      </trkpt>
      <trkpt lat="43.44309" lon="6.38437">
        <ele>174.5</ele>
        <time>2022-09-28T15:30:23.000Z</time>
      </trkpt>
      <trkpt lat="43.44312" lon="6.38431">
        <ele>174.7</ele>
        <time>2022-09-28T15:30:27.000Z</time>
      </trkpt>
      <trkpt lat="43.44315" lon="6.38426">
        <ele>175.1</ele>
        <time>2022-09-28T15:30:31.000Z</time>
      </trkpt>
      <trkpt lat="43.44318" lon="6.38421">
        <ele>175.2</ele>
        <time>2022-09-28T15:30:35.000Z</time>
      </trkpt>
      <trkpt lat="43.44321" lon="6.38414">
        <ele>175.5</ele>
        <time>2022-09-28T15:30:39.000Z</time>
      </trkpt>
      <trkpt lat="43.44324" lon="6.38409">
        <ele>175.9</ele>
        <time>2022-09-28T15:30:46.000Z</time>
      </trkpt>
      <trkpt lat="43.44328" lon="6.38403">
        <ele>175.8</ele>
        <time>2022-09-28T15:30:51.000Z</time>
      </trkpt>
      <trkpt lat="43.44332" lon="6.38398">
        <ele>175.9</ele>
        <time>2022-09-28T15:30:56.000Z</time>
      </trkpt>
      <trkpt lat="43.44337" lon="6.38394">
        <ele>176.2</ele>
        <time>2022-09-28T15:31:01.000Z</time>
      </trkpt>
      <trkpt lat="43.4434" lon="6.38391">
        <ele>176.6</ele>
        <time>2022-09-28T15:31:04.000Z</time>
      </trkpt>
      <trkpt lat="43.44344" lon="6.38385">
        <ele>177.4</ele>
        <time>2022-09-28T15:31:10.000Z</time>
      </trkpt>
      <trkpt lat="43.44347" lon="6.38379">
        <ele>177.2</ele>
        <time>2022-09-28T15:31:15.000Z</time>
      </trkpt>
      <trkpt lat="43.44348" lon="6.38372">
        <ele>177.6</ele>
        <time>2022-09-28T15:31:18.000Z</time>
      </trkpt>
      <trkpt lat="43.44351" lon="6.38367">
        <ele>178.4</ele>
        <time>2022-09-28T15:31:22.000Z</time>
      </trkpt>
      <trkpt lat="43.44353" lon="6.38361">
        <ele>178.9</ele>
        <time>2022-09-28T15:31:27.000Z</time>
      </trkpt>
      <trkpt lat="43.44356" lon="6.38354">
        <ele>179</ele>
        <time>2022-09-28T15:31:32.000Z</time>
      </trkpt>
      <trkpt lat="43.44359" lon="6.38349">
        <ele>179</ele>
        <time>2022-09-28T15:31:35.000Z</time>
      </trkpt>
      <trkpt lat="43.44363" lon="6.38345">
        <ele>179.1</ele>
        <time>2022-09-28T15:31:39.000Z</time>
      </trkpt>
      <trkpt lat="43.44366" lon="6.3834">
        <ele>179.2</ele>
        <time>2022-09-28T15:31:43.000Z</time>
      </trkpt>
      <trkpt lat="43.44371" lon="6.38336">
        <ele>179</ele>
        <time>2022-09-28T15:31:48.000Z</time>
      </trkpt>
      <trkpt lat="43.44375" lon="6.38333">
        <ele>179.1</ele>
        <time>2022-09-28T15:31:52.000Z</time>
      </trkpt>
      <trkpt lat="43.4438" lon="6.38331">
        <ele>179.4</ele>
        <time>2022-09-28T15:31:57.000Z</time>
      </trkpt>
      <trkpt lat="43.44384" lon="6.38328">
        <ele>179.8</ele>
        <time>2022-09-28T15:32:02.000Z</time>
      </trkpt>
      <trkpt lat="43.4439" lon="6.38326">
        <ele>179.9</ele>
        <time>2022-09-28T15:32:07.000Z</time>
      </trkpt>
      <trkpt lat="43.44394" lon="6.38323">
        <ele>179.7</ele>
        <time>2022-09-28T15:32:12.000Z</time>
      </trkpt>
      <trkpt lat="43.44399" lon="6.38321">
        <ele>179.2</ele>
        <time>2022-09-28T15:32:16.000Z</time>
      </trkpt>
      <trkpt lat="43.44404" lon="6.38321">
        <ele>178.8</ele>
        <time>2022-09-28T15:32:21.000Z</time>
      </trkpt>
      <trkpt lat="43.44409" lon="6.3832">
        <ele>178.6</ele>
        <time>2022-09-28T15:32:25.000Z</time>
      </trkpt>
      <trkpt lat="43.44414" lon="6.38319">
        <ele>178.1</ele>
        <time>2022-09-28T15:32:30.000Z</time>
      </trkpt>
      <trkpt lat="43.44419" lon="6.38317">
        <ele>177.8</ele>
        <time>2022-09-28T15:32:35.000Z</time>
      </trkpt>
      <trkpt lat="43.44424" lon="6.38315">
        <ele>177.4</ele>
        <time>2022-09-28T15:32:40.000Z</time>
      </trkpt>
      <trkpt lat="43.44429" lon="6.38313">
        <ele>177.1</ele>
        <time>2022-09-28T15:32:44.000Z</time>
      </trkpt>
      <trkpt lat="43.44434" lon="6.38311">
        <ele>176.6</ele>
        <time>2022-09-28T15:32:49.000Z</time>
      </trkpt>
      <trkpt lat="43.44439" lon="6.38311">
        <ele>176.4</ele>
        <time>2022-09-28T15:32:54.000Z</time>
      </trkpt>
      <trkpt lat="43.44444" lon="6.38308">
        <ele>176.1</ele>
        <time>2022-09-28T15:32:58.000Z</time>
      </trkpt>
      <trkpt lat="43.44449" lon="6.38307">
        <ele>176</ele>
        <time>2022-09-28T15:33:02.000Z</time>
      </trkpt>
      <trkpt lat="43.44453" lon="6.38306">
        <ele>175.5</ele>
        <time>2022-09-28T15:33:06.000Z</time>
      </trkpt>
      <trkpt lat="43.44458" lon="6.38304">
        <ele>175.3</ele>
        <time>2022-09-28T15:33:11.000Z</time>
      </trkpt>
      <trkpt lat="43.44463" lon="6.383">
        <ele>175.2</ele>
        <time>2022-09-28T15:33:18.000Z</time>
      </trkpt>
      <trkpt lat="43.44468" lon="6.38298">
        <ele>175</ele>
        <time>2022-09-28T15:33:22.000Z</time>
      </trkpt>
      <trkpt lat="43.44473" lon="6.38298">
        <ele>174.9</ele>
        <time>2022-09-28T15:33:26.000Z</time>
      </trkpt>
      <trkpt lat="43.44477" lon="6.38296">
        <ele>174.8</ele>
        <time>2022-09-28T15:33:30.000Z</time>
      </trkpt>
      <trkpt lat="43.44483" lon="6.38294">
        <ele>174.6</ele>
        <time>2022-09-28T15:33:36.000Z</time>
      </trkpt>
      <trkpt lat="43.44488" lon="6.38292">
        <ele>174.3</ele>
        <time>2022-09-28T15:33:43.000Z</time>
      </trkpt>
      <trkpt lat="43.44492" lon="6.38289">
        <ele>174.5</ele>
        <time>2022-09-28T15:33:46.000Z</time>
      </trkpt>
      <trkpt lat="43.44496" lon="6.38284">
        <ele>174.6</ele>
        <time>2022-09-28T15:33:52.000Z</time>
      </trkpt>
      <trkpt lat="43.44501" lon="6.38282">
        <ele>174.7</ele>
        <time>2022-09-28T15:33:55.000Z</time>
      </trkpt>
      <trkpt lat="43.44505" lon="6.38279">
        <ele>174.1</ele>
        <time>2022-09-28T15:34:01.000Z</time>
      </trkpt>
      <trkpt lat="43.4451" lon="6.38277">
        <ele>174</ele>
        <time>2022-09-28T15:34:05.000Z</time>
      </trkpt>
      <trkpt lat="43.44515" lon="6.38276">
        <ele>173.8</ele>
        <time>2022-09-28T15:34:09.000Z</time>
      </trkpt>
      <trkpt lat="43.4452" lon="6.38273">
        <ele>174.4</ele>
        <time>2022-09-28T15:34:13.000Z</time>
      </trkpt>
      <trkpt lat="43.44524" lon="6.38269">
        <ele>174.7</ele>
        <time>2022-09-28T15:34:19.000Z</time>
      </trkpt>
      <trkpt lat="43.44529" lon="6.38263">
        <ele>174.8</ele>
        <time>2022-09-28T15:34:23.000Z</time>
      </trkpt>
      <trkpt lat="43.44531" lon="6.38257">
        <ele>174.9</ele>
        <time>2022-09-28T15:34:27.000Z</time>
      </trkpt>
      <trkpt lat="43.44532" lon="6.38251">
        <ele>175</ele>
        <time>2022-09-28T15:34:30.000Z</time>
      </trkpt>
      <trkpt lat="43.44531" lon="6.38242">
        <ele>175</ele>
        <time>2022-09-28T15:34:34.000Z</time>
      </trkpt>
      <trkpt lat="43.44533" lon="6.38236">
        <ele>174.7</ele>
        <time>2022-09-28T15:34:45.000Z</time>
      </trkpt>
      <trkpt lat="43.44529" lon="6.38234">
        <ele>174.7</ele>
        <time>2022-09-28T15:35:30.000Z</time>
      </trkpt>
      <trkpt lat="43.44528" lon="6.38232">
        <ele>175</ele>
        <time>2022-09-28T15:36:19.000Z</time>
      </trkpt>
    </trkseg>
  </trk>
</gpx>